GFSMA_850_thetae_000.txt.gz
Theta_e
315 318 318 318 318 318 318 318 319 319 318 317 318 317 317 317 316 316 314 315 315 313 312 310 308 308 307 307 307 307 309 312 315 318 318 320 322 324 326 325 324 321 323
320 321 319 317 317 316 315 316 317 317 316 315 316 316 317 317 318 318 316 315 315 315 313 311 310 308 308 308 306 306 307 308 309 311 317 319 321 322 324 327 325 324 321
322 322 320 318 314 312 312 312 312 312 313 316 317 317 318 316 314 313 314 315 315 314 313 312 311 310 309 309 308 306 305 306 306 308 310 316 319 321 324 325 327 327 324
321 318 317 315 314 313 312 312 312 313 314 314 315 315 314 311 311 314 315 313 313 316 314 313 313 311 310 310 309 307 305 305 306 306 306 309 317 319 321 324 324 325 326
317 314 312 312 312 312 312 311 311 311 311 311 312 311 311 311 312 312 312 313 313 315 315 315 314 312 311 310 310 309 307 306 305 306 305 306 307 316 320 323 326 326 326
312 312 312 312 311 310 310 310 309 309 309 308 307 305 305 305 305 306 308 309 310 312 313 313 314 313 311 310 309 309 309 307 305 306 305 305 305 306 312 318 320 324 324
312 312 311 311 310 309 308 308 308 308 307 304 304 303 302 301 301 302 303 306 309 310 311 312 313 313 313 310 309 309 308 308 304 304 305 304 304 305 306 309 316 318 323
311 308 309 309 307 307 306 305 305 305 304 302 301 299 302 300 300 303 303 304 306 307 306 307 310 312 312 311 309 309 308 308 306 306 305 304 303 303 303 304 306 312 317
307 307 307 306 305 303 302 302 302 301 299 299 299 303 304 304 304 303 303 304 303 304 302 301 300 303 308 311 309 309 307 308 307 306 306 303 303 301 301 302 303 305 308
307 307 306 304 301 299 299 298 297 297 297 298 301 302 302 301 301 301 301 300 300 300 299 297 297 297 297 300 308 309 309 309 307 302 304 303 302 302 301 301 301 302 304
306 304 301 299 297 296 296 297 298 299 299 300 299 299 298 298 298 297 297 297 297 297 297 296 296 295 296 297 299 302 308 308 306 305 304 303 302 301 302 301 301 302 302
303 302 300 297 298 298 297 297 298 298 298 298 298 298 297 297 296 296 295 295 295 295 295 295 295 294 295 298 301 304 302 306 306 306 302 302 301 301 301 301 301 306 308
301 301 299 299 299 298 295 297 297 296 297 296 295 294 294 294 294 294 295 295 294 294 294 294 294 293 295 297 298 300 302 302 302 303 302 301 299 299 299 299 300 302 307
300 300 300 299 297 294 296 294 292 291 291 290 290 290 290 291 293 293 294 294 294 295 294 295 294 293 292 294 296 297 299 301 302 301 301 300 301 301 299 300 300 299 301
301 301 300 296 293 292 293 291 290 289 288 288 287 288 289 290 290 291 291 291 290 290 292 292 293 292 292 292 294 295 296 297 299 301 301 301 301 302 302 301 299 298 299
301 300 298 293 292 291 290 289 289 288 288 288 288 288 288 288 288 287 287 288 290 291 290 290 291 291 292 292 292 292 293 294 296 299 299 299 298 296 297 298 298 297 298
299 299 294 293 290 290 289 289 289 288 288 288 288 288 288 288 287 287 286 285 287 289 291 290 289 290 291 291 291 292 292 292 295 296 298 299 298 297 297 295 295 296 298
295 295 293 292 290 289 289 288 288 288 288 288 288 287 287 286 285 286 285 285 284 287 289 289 289 289 290 290 291 291 291 291 292 294 296 298 296 295 294 294 294 293 293
293 294 291 289 289 288 288 288 288 288 288 288 288 287 286 285 285 284 284 284 284 284 288 288 288 288 289 289 289 289 289 290 291 291 292 294 296 295 294 294 293 293 293
293 290 289 289 288 288 288 288 288 288 288 287 286 286 284 283 281 282 283 284 285 284 285 286 287 287 287 288 288 288 289 288 290 291 291 292 292 294 295 293 293 293 292
291 289 289 289 288 288 288 288 288 287 287 286 284 283 283 281 281 282 283 284 285 286 286 286 286 285 286 286 286 285 285 286 287 289 290 291 291 292 292 292 292 292 292
289 289 290 288 288 289 288 288 287 286 284 284 283 283 281 280 280 280 281 282 282 283 283 284 285 285 285 284 284 284 284 284 285 286 288 289 289 290 290 291 292 292 292
291 290 288 288 289 288 288 287 285 284 284 283 282 281 280 279 279 280 280 281 281 281 282 282 283 283 283 283 283 283 283 283 283 284 285 287 288 289 288 288 289 290 291
291 289 288 288 288 287 286 285 284 283 283 282 281 280 279 279 279 279 280 281 281 281 281 281 281 281 281 282 282 282 282 282 283 284 284 284 286 286 287 287 287 287 288
290 288 288 288 287 286 285 283 282 281 280 280 279 279 278 278 279 280 280 280 280 280 281 281 281 282 282 282 282 282 283 283 283 283 283 283 284 285 285 285 285 286 286
289 288 288 287 286 285 283 281 279 279 278 278 278 278 278 278 279 279 280 279 279 279 280 280 280 280 281 282 282 282 283 283 283 283 283 284 284 284 285 285 285 286 286

GFSMA_850_thetae_006.txt.gz
Theta_e
318 319 319 319 319 316 313 313 312 312 311 312 312 311 312 315 315 315 315 316 316 314 312 313 314 313 312 311 310 309 308 308 307 306 307 310 315 318 320 322 323 323 325
320 320 321 321 318 316 314 312 311 310 311 311 310 311 313 313 313 313 312 312 313 314 313 312 312 312 312 312 311 311 310 309 309 307 306 306 307 311 317 318 321 323 325
321 321 321 319 316 313 311 311 310 310 309 309 309 309 309 309 309 309 308 308 308 309 311 313 314 312 311 313 312 311 311 310 309 309 307 305 305 306 308 314 319 321 323
320 318 318 318 313 311 310 308 309 309 308 308 308 308 308 308 306 304 303 302 302 302 306 308 309 312 313 313 312 312 310 310 312 309 308 307 305 306 306 307 311 317 320
315 313 312 311 310 307 307 307 308 308 307 306 306 306 306 305 303 303 302 299 299 302 303 305 305 308 308 310 313 313 312 311 310 312 310 308 308 306 306 306 306 311 318
311 311 310 307 307 306 306 307 307 306 305 304 303 303 303 302 301 300 299 300 302 303 304 305 306 307 308 310 311 312 313 313 311 310 314 313 310 308 306 306 305 305 309
308 307 307 307 307 306 306 305 304 302 301 300 298 299 300 300 299 298 301 301 300 299 300 301 302 303 304 306 308 309 311 312 312 311 311 314 313 310 307 306 306 305 305
308 307 307 306 305 303 302 301 300 297 295 294 294 293 297 296 298 299 296 297 299 298 299 298 297 298 299 300 301 303 305 307 310 310 309 310 313 313 311 306 306 306 304
307 306 305 303 302 303 303 302 298 296 296 295 293 296 298 298 297 296 295 294 296 296 294 294 294 294 294 295 296 297 299 301 303 307 310 309 311 312 312 309 306 305 304
305 304 303 303 303 302 300 298 297 296 296 293 293 296 297 297 296 296 295 294 293 293 293 293 292 293 293 294 294 295 296 296 298 301 304 308 308 310 310 309 306 305 304
303 300 299 301 300 300 299 298 298 297 293 292 292 292 292 292 292 293 292 292 291 290 290 291 292 293 293 294 293 294 294 295 296 297 299 303 307 307 310 309 307 304 304
301 300 300 301 300 299 296 294 293 292 291 290 289 289 288 288 288 289 289 289 289 288 289 289 290 290 293 294 293 293 294 294 294 295 299 301 304 307 308 308 307 304 302
301 300 300 301 299 296 294 293 292 289 289 288 287 287 287 287 286 286 287 287 287 286 286 286 287 289 290 292 294 292 294 296 297 297 301 302 303 304 307 307 305 303 301
299 300 299 300 299 297 298 292 290 288 288 288 287 287 287 286 286 286 287 287 287 286 286 285 285 286 289 290 292 292 293 294 296 298 300 301 301 303 303 302 301 299 299
293 298 299 299 297 297 292 292 289 288 288 288 288 288 287 287 287 287 287 287 286 285 285 285 285 285 286 290 291 290 292 292 293 296 297 298 300 301 302 302 300 300 299
296 299 297 297 295 294 292 289 288 287 288 288 287 287 287 287 287 287 286 286 286 285 283 285 285 284 285 287 289 291 290 293 293 292 294 294 298 299 300 301 301 302 301
297 297 296 296 293 292 289 288 287 288 288 288 287 287 287 287 286 286 285 283 283 282 281 282 282 284 284 287 289 290 289 289 292 292 292 292 294 297 299 299 300 300 300
296 296 294 294 293 289 288 288 287 288 287 287 287 287 287 286 285 283 282 282 281 281 281 283 283 283 284 287 288 288 288 289 288 290 292 291 291 292 297 298 298 295 294
293 293 294 293 289 288 288 288 287 287 288 287 287 287 286 284 283 282 282 281 281 280 282 282 283 284 284 286 287 287 287 287 289 288 290 292 291 291 291 296 295 295 294
293 292 292 289 288 288 288 288 288 288 287 287 287 285 284 283 282 282 281 280 280 280 280 281 282 283 285 284 286 286 286 286 286 287 287 290 290 290 292 296 295 294 294
292 292 290 289 288 289 288 288 288 288 287 286 285 283 282 281 280 280 280 279 279 279 280 281 281 282 283 284 285 285 286 285 285 285 286 287 289 290 291 293 294 294 293
292 292 289 289 290 289 288 288 287 287 285 284 282 281 280 280 279 278 278 278 279 279 279 280 280 281 281 282 283 284 284 284 285 285 284 285 286 288 289 291 292 292 292
291 290 290 290 290 288 288 287 286 285 283 281 281 280 279 279 278 278 278 279 279 280 280 281 281 281 281 282 282 282 283 283 283 283 283 284 284 286 288 288 290 290 291
291 291 291 288 288 288 287 286 286 283 282 281 280 279 279 279 278 278 279 279 279 279 279 279 279 280 281 281 281 281 282 282 282 282 282 283 283 284 285 287 289 288 289
291 290 288 288 288 287 286 285 283 281 281 281 279 279 278 278 278 278 278 278 278 279 279 279 279 279 279 280 281 282 281 281 281 281 282 282 282 283 283 285 285 287 289
289 289 289 288 287 286 285 283 281 281 281 280 279 279 278 278 277 277 278 278 278 278 278 279 279 279 279 279 280 281 281 282 282 282 282 282 282 283 283 284 284 284 285

GFSMA_850_thetae_009.txt.gz
Theta_e
319 318 320 320 320 319 316 315 313 311 310 310 310 310 309 311 312 313 312 313 313 313 314 314 313 312 311 310 312 311 310 310 310 309 307 306 306 310 315 319 321 322 323
320 320 320 320 320 319 317 313 311 309 308 308 309 309 309 309 309 310 310 310 310 310 310 311 312 313 313 311 309 312 311 310 310 310 309 307 306 305 307 312 317 320 322
320 320 321 321 319 314 312 310 308 307 308 308 308 308 308 307 307 307 306 306 306 305 305 305 307 309 312 312 312 312 312 312 311 311 310 309 306 305 305 306 308 316 319
319 317 317 314 311 310 308 307 306 307 307 307 307 307 307 306 306 305 303 303 303 303 302 302 302 303 306 308 310 312 313 313 312 311 310 310 309 307 305 306 306 307 314
312 311 311 310 308 307 308 307 306 306 305 305 305 305 305 304 303 302 302 301 301 301 301 300 300 302 303 304 306 308 309 312 313 312 312 310 310 309 308 305 306 306 306
311 309 308 307 308 307 306 305 304 303 302 301 300 300 302 301 299 300 300 300 300 300 300 299 299 299 301 303 305 306 308 310 311 312 312 314 310 310 310 308 306 306 305
309 309 307 307 306 305 305 303 303 303 302 300 298 299 297 296 298 299 297 298 298 296 296 297 296 297 297 297 299 301 303 305 307 308 310 311 314 311 311 311 308 306 306
308 307 306 305 303 303 303 302 301 299 298 297 296 297 298 298 299 298 299 296 295 295 294 294 293 293 293 293 293 294 295 297 301 303 305 308 310 313 312 312 311 308 306
306 305 303 302 300 299 300 299 298 298 298 297 295 296 297 297 297 297 297 297 296 294 293 291 290 290 291 291 292 293 293 294 295 297 299 302 305 309 312 312 312 311 308
304 303 302 300 298 300 300 299 298 297 296 295 294 295 293 295 294 294 294 294 293 291 291 291 289 288 290 292 292 292 293 294 294 295 295 296 299 304 307 310 311 311 309
303 302 300 297 296 299 299 299 297 293 292 292 290 290 292 291 292 291 290 290 290 289 290 289 289 289 289 290 292 293 293 293 294 294 295 295 296 298 303 307 310 309 308
300 297 295 295 298 299 299 297 296 297 295 292 288 288 289 289 289 289 289 289 288 288 288 288 288 288 286 288 290 290 293 293 293 294 295 298 298 301 303 306 310 308 308
295 294 294 297 299 299 297 296 295 293 289 288 288 288 288 288 288 288 288 288 288 288 287 287 287 287 287 286 289 289 292 292 292 294 295 297 298 301 305 307 308 309 308
291 290 291 297 299 298 296 297 292 290 289 289 288 288 288 288 287 287 288 288 287 287 287 287 287 286 287 287 286 287 291 291 293 294 295 297 298 301 302 303 304 305 305
290 290 293 299 298 297 296 293 289 289 288 288 288 288 287 287 287 287 287 287 287 287 286 286 285 285 285 286 286 287 290 290 292 293 293 293 296 299 299 300 301 300 299
290 292 297 298 297 294 292 289 289 287 287 288 288 287 287 287 287 287 286 286 285 284 284 284 284 284 284 284 286 286 289 290 291 294 293 294 294 295 298 298 301 302 300
290 294 296 296 294 293 292 289 288 287 287 287 287 287 287 287 286 286 285 284 283 283 283 283 283 283 284 285 285 286 289 290 290 289 292 292 292 292 294 298 299 299 301
290 293 294 293 292 293 292 288 288 288 288 288 287 287 287 286 285 285 284 283 282 282 282 282 283 284 284 285 285 287 288 289 289 288 288 290 292 291 291 292 295 298 299
290 292 292 292 292 290 288 288 288 288 288 288 287 287 286 285 284 284 283 282 282 282 281 282 282 282 283 284 285 286 287 288 288 287 289 288 289 291 290 291 295 296 298
290 291 291 292 291 289 288 289 288 288 288 287 287 286 285 283 282 282 282 281 281 280 280 281 281 282 283 283 284 285 286 287 287 286 286 287 288 288 290 290 295 295 295
291 291 291 290 289 289 289 289 288 288 287 286 286 284 282 281 281 280 280 280 280 280 280 281 281 281 282 282 284 283 285 286 286 286 285 286 286 287 289 291 294 296 295
291 291 291 289 290 290 289 288 288 287 286 285 283 282 281 281 279 279 279 279 279 279 280 281 282 281 281 282 283 283 283 285 285 285 285 286 285 287 288 290 292 294 294
291 291 291 291 291 290 288 288 287 286 285 283 282 281 281 279 279 278 278 279 279 279 279 279 280 281 281 281 282 282 282 283 284 285 284 285 285 285 287 288 289 292 292
290 291 291 290 288 288 288 287 286 284 282 282 281 280 279 278 278 277 278 279 279 279 279 279 280 280 280 281 281 281 282 282 283 283 283 284 284 285 285 285 288 288 291
290 289 289 289 288 288 286 286 285 283 281 281 280 279 278 278 277 277 278 278 278 279 279 278 279 279 279 279 279 280 281 282 282 283 283 283 284 284 284 283 285 289 288
289 289 288 288 287 286 286 285 283 281 281 281 279 278 279 278 277 277 277 277 277 278 278 278 278 279 279 279 279 279 280 281 283 283 283 283 284 284 284 284 283 285 287

GFSMA_850_thetae_012.txt.gz
Theta_e
319 322 322 321 320 320 318 317 317 316 314 313 313 310 310 309 309 310 311 310 309 309 310 311 312 312 313 313 313 312 312 312 310 310 310 309 307 306 308 313 317 321 322
319 321 321 320 318 318 317 315 314 311 312 311 310 310 308 308 308 309 309 309 307 306 306 306 306 305 307 310 312 313 311 310 313 311 311 310 309 307 306 307 311 316 319
320 321 320 320 316 315 312 311 310 311 311 310 309 309 308 308 307 308 308 308 307 306 304 304 304 304 303 303 305 309 311 312 312 313 312 311 310 310 306 305 306 308 315
319 318 315 312 311 309 308 310 309 309 309 308 307 307 307 306 305 308 308 306 306 306 305 305 303 303 302 301 302 303 306 308 310 312 313 312 311 311 310 307 305 306 307
312 311 310 308 307 308 308 308 307 306 306 306 305 304 304 305 304 305 307 306 305 304 303 303 301 301 300 300 300 302 304 305 307 308 310 312 312 315 311 310 308 306 306
310 308 309 308 307 307 307 306 306 305 305 304 304 304 304 303 303 304 306 304 303 302 301 301 300 299 298 296 297 297 298 298 301 305 307 309 312 314 314 312 310 307 306
308 308 307 307 306 306 306 305 304 304 303 303 303 301 300 300 302 303 302 301 301 300 300 299 298 297 296 296 295 296 294 293 294 295 300 304 306 310 315 314 313 310 307
308 307 307 306 305 305 304 304 302 301 300 301 301 300 300 300 300 301 301 300 300 299 297 296 296 295 295 295 296 294 296 293 292 293 294 295 300 304 308 314 314 311 311
306 305 305 304 303 303 301 302 301 301 300 300 299 299 299 299 298 298 298 297 297 296 295 294 294 293 293 294 294 295 296 293 291 292 292 293 294 298 302 307 313 313 311
304 304 304 301 300 300 300 301 299 299 298 298 297 297 296 296 297 296 296 296 294 293 292 292 293 291 291 291 291 293 293 291 291 292 292 293 294 295 297 300 306 312 312
305 304 302 301 300 300 300 300 299 297 297 297 296 295 295 294 293 293 293 293 292 292 291 290 290 291 290 290 290 290 291 289 290 291 293 293 294 298 301 297 300 306 311
298 297 297 300 300 299 300 298 297 297 296 295 293 292 292 292 291 291 291 291 291 290 290 290 290 290 290 290 289 289 289 289 289 291 293 293 293 297 300 301 298 301 307
295 295 295 297 299 299 298 298 296 296 294 293 292 291 291 291 290 290 290 290 290 290 290 289 289 289 289 289 289 289 288 287 289 291 292 293 293 295 298 301 301 304 305
294 294 296 297 298 298 297 296 296 295 293 292 291 291 291 290 290 290 290 289 289 289 289 289 289 288 288 288 287 287 288 288 289 291 291 293 294 295 297 299 303 306 309
294 295 297 298 298 297 296 297 295 294 292 291 291 290 290 290 289 289 289 289 289 288 288 288 287 287 287 286 286 286 287 288 288 291 290 293 293 294 296 298 301 302 303
293 294 296 297 298 296 296 295 293 292 291 290 290 290 290 289 289 288 288 288 288 287 287 286 286 286 286 286 287 287 287 287 287 289 290 292 293 294 295 296 299 300 301
293 293 295 296 296 296 294 293 293 291 290 290 290 290 290 289 288 288 288 287 287 286 286 285 285 286 286 286 286 286 287 288 289 290 290 291 293 292 292 293 296 298 300
293 293 293 294 294 294 293 293 293 290 290 290 290 289 289 288 288 287 287 287 286 285 285 284 285 284 284 284 285 286 287 287 289 290 289 290 289 291 292 291 291 296 298
293 294 294 293 293 293 293 292 290 290 290 290 289 289 288 287 287 286 286 285 285 284 284 284 284 283 283 284 285 285 286 287 289 289 288 288 289 289 290 291 290 291 297
293 293 293 293 293 292 292 290 290 290 289 289 289 288 287 286 285 284 283 283 283 283 283 282 282 283 283 283 284 285 286 287 288 289 288 287 287 288 289 289 290 293 295
293 293 292 291 291 290 289 289 289 289 289 288 287 285 284 283 282 281 281 281 281 281 281 282 282 283 283 283 284 284 285 285 287 288 288 287 288 290 290 290 290 293 295
293 293 293 292 291 290 291 290 289 288 287 286 284 283 283 282 281 280 280 279 279 280 281 282 282 283 283 283 283 284 284 285 285 287 287 287 288 288 289 289 289 291 293
292 292 293 292 291 290 288 288 288 287 285 284 283 282 282 281 281 281 280 280 281 281 280 280 281 281 282 283 282 282 283 284 285 285 285 286 287 287 288 288 288 289 292
292 291 291 291 290 288 288 288 287 286 284 283 282 282 281 281 281 279 279 280 280 281 280 280 280 281 281 281 282 282 282 282 283 284 284 285 286 287 287 287 287 288 291
291 291 290 290 289 287 288 287 286 285 283 282 282 281 280 280 279 278 278 279 280 280 280 280 279 279 279 279 279 280 281 282 283 284 284 285 285 286 286 287 287 288 289
291 289 289 288 288 287 286 287 286 283 282 282 282 280 279 279 278 277 277 278 279 279 279 279 279 280 280 281 280 280 281 282 283 284 284 284 285 285 286 286 287 287 288

GFSMA_850_thetae_015.txt.gz
Theta_e
322 320 322 323 323 322 321 320 319 318 316 314 314 313 314 312 311 311 311 311 311 309 307 306 305 305 305 307 309 311 313 312 311 311 311 311 310 309 308 306 310 316 320
321 320 319 321 320 320 318 316 315 314 314 314 313 312 312 311 311 310 310 311 310 309 307 306 304 304 304 303 303 303 306 310 312 311 311 312 311 311 310 308 306 307 314
322 321 320 320 319 318 313 312 313 312 312 311 311 310 310 309 309 309 308 310 310 309 308 307 306 305 304 303 303 302 303 303 306 310 311 313 312 312 311 310 308 305 306
319 319 316 315 314 312 312 312 311 310 310 309 309 308 307 306 307 307 306 308 309 308 307 306 305 304 302 301 301 301 301 302 303 304 307 310 313 313 314 312 310 309 305
314 313 314 313 310 311 311 310 310 309 309 308 307 306 306 305 306 305 305 306 308 307 306 304 302 301 300 300 299 299 299 300 299 300 303 305 308 311 314 315 313 310 309
311 312 312 310 310 310 310 310 309 308 306 305 305 305 304 303 303 302 304 307 306 305 303 302 301 300 299 298 297 296 300 296 301 301 297 299 303 307 310 314 315 313 311
310 309 310 310 310 309 308 308 307 306 303 302 302 304 303 302 302 303 303 304 304 303 302 301 300 298 297 296 297 298 297 299 299 294 294 293 295 299 304 308 315 315 315
310 309 309 309 308 307 306 305 304 304 302 302 302 302 301 300 301 301 301 301 300 301 300 299 297 296 296 295 295 294 296 296 295 293 292 292 292 293 296 300 305 313 315
309 308 308 307 306 305 303 302 302 303 301 301 301 300 299 299 299 298 298 298 298 298 297 296 295 294 294 293 293 293 292 293 292 292 290 291 292 292 293 294 297 303 313
308 307 305 304 304 303 302 302 301 301 300 300 299 299 299 298 298 297 296 295 296 296 295 294 293 293 292 293 292 292 291 290 290 290 288 289 291 292 293 293 294 297 303
302 300 299 299 300 301 302 302 301 300 299 299 298 297 297 296 295 294 294 294 294 293 293 293 292 292 292 292 292 291 291 290 289 289 289 287 289 295 297 298 298 296 299
298 297 297 298 298 300 301 301 300 299 299 298 297 295 295 294 293 293 293 293 293 293 292 292 291 291 291 291 291 290 290 290 290 289 288 291 289 293 297 298 299 301 303
297 297 297 298 299 299 300 299 299 298 298 296 295 294 293 293 293 292 292 292 292 291 291 291 291 291 290 290 289 289 289 288 288 288 289 289 290 292 293 295 294 301 302
296 296 296 298 299 299 299 298 298 298 297 295 294 294 293 292 292 292 291 291 291 290 291 291 290 290 289 288 288 288 288 288 288 288 288 288 288 291 293 293 294 296 301
295 295 296 297 298 298 297 297 296 296 295 294 293 293 292 292 291 291 290 290 290 290 290 289 289 289 288 288 288 288 288 288 288 288 288 288 288 290 293 293 294 295 298
295 295 295 296 297 297 298 297 296 295 295 294 292 292 292 292 292 291 290 290 290 289 289 289 288 288 287 287 287 287 287 287 287 288 288 288 289 289 292 294 294 295 297
295 295 295 295 295 296 296 296 295 295 295 293 292 292 292 291 291 290 290 289 288 288 288 288 287 287 286 286 286 286 286 286 287 288 289 289 290 289 291 293 292 294 295
295 294 295 295 295 294 294 294 294 294 293 292 292 292 291 290 290 289 288 288 287 287 287 286 286 286 286 285 285 285 286 286 287 287 289 290 289 289 291 292 291 291 292
294 294 295 295 294 294 294 294 294 293 292 292 291 291 290 290 289 287 287 286 286 285 285 285 285 284 284 284 285 285 285 286 287 287 288 289 288 288 289 289 290 290 290
294 294 295 294 293 293 292 292 292 291 291 291 291 290 289 287 286 285 284 284 284 284 284 283 283 283 284 284 285 285 285 285 286 287 288 290 289 288 288 289 289 290 291
294 294 294 294 294 293 291 290 291 291 290 290 289 288 286 285 284 283 282 282 282 282 282 282 282 283 283 284 284 284 285 285 285 286 287 289 289 289 290 290 291 290 290
294 294 294 294 294 293 292 289 289 288 288 288 287 286 285 284 284 282 282 281 281 281 281 281 282 282 282 282 283 283 284 284 285 285 286 287 288 289 289 290 290 288 289
294 294 293 293 293 293 291 289 288 288 287 287 286 285 284 284 283 283 282 281 281 281 281 281 282 282 282 282 282 282 283 284 284 284 285 286 286 288 288 289 288 288 288
294 293 293 292 292 291 290 288 288 287 287 286 285 284 284 283 282 282 279 280 281 281 281 281 281 281 281 280 280 281 282 282 282 283 284 285 285 286 287 288 288 287 287
293 293 292 292 291 291 289 288 287 287 286 285 284 284 283 281 281 279 280 279 280 280 281 280 280 279 279 280 280 280 281 281 282 283 284 285 285 286 286 287 287 287 286
293 292 291 290 290 289 288 287 287 286 285 284 284 283 283 281 280 278 277 277 279 280 278 278 279 280 281 282 282 281 282 282 282 283 284 285 286 286 286 286 287 287 286

GFSMA_850_thetae_018.txt.gz
Theta_e
325 324 320 320 319 322 320 319 319 318 316 313 314 313 312 312 311 311 311 310 311 311 309 308 307 305 303 303 303 304 304 306 309 312 312 313 311 310 310 309 308 306 309
321 320 321 320 320 320 320 317 313 313 313 312 311 311 311 310 309 309 310 309 309 311 309 308 307 306 306 304 303 303 303 303 303 304 308 311 313 312 311 310 310 309 306
321 322 322 320 320 319 313 312 312 312 311 310 309 309 309 308 307 306 307 307 307 309 309 308 307 306 306 304 302 302 301 301 301 302 302 304 308 312 312 313 312 311 309
319 318 316 316 315 310 312 312 310 310 310 309 308 306 306 306 306 305 306 306 305 309 309 307 306 305 303 302 300 300 301 303 303 301 301 301 303 306 310 313 313 313 313
313 313 314 313 311 310 310 310 310 310 308 307 305 304 304 305 304 304 304 303 303 308 308 306 304 303 301 300 299 299 300 302 302 303 302 299 299 301 303 307 312 314 315
311 311 312 311 311 310 310 309 308 307 306 305 302 302 303 304 303 302 303 304 305 305 304 303 302 301 299 298 298 298 299 299 301 302 300 299 296 295 297 300 305 312 315
311 310 310 311 310 309 308 307 305 304 303 303 302 302 302 302 302 301 301 301 301 303 301 301 299 298 297 296 296 296 296 297 299 298 297 297 296 293 293 294 296 304 312
311 310 309 309 308 307 305 303 303 302 303 303 301 301 301 300 300 300 299 298 298 298 298 298 298 296 295 294 293 294 294 293 293 294 294 295 295 295 292 293 293 294 302
309 308 308 306 304 304 303 302 301 302 302 302 300 300 300 300 299 298 298 297 297 296 295 295 294 294 293 293 292 293 292 292 292 291 292 293 293 294 295 296 294 297 294
309 306 303 302 301 300 300 301 302 302 301 301 300 299 299 298 296 296 295 294 294 294 294 293 293 293 292 292 292 292 291 291 291 290 290 291 292 293 294 295 298 299 300
303 299 298 298 296 295 297 300 301 301 301 299 300 299 297 296 295 294 293 293 293 292 293 293 292 292 291 291 291 291 291 290 290 289 289 290 291 292 293 294 297 298 300
298 298 297 295 295 297 298 300 301 300 300 299 298 298 295 294 294 293 293 292 292 292 292 291 291 291 291 291 290 290 289 289 289 289 288 289 289 292 292 292 295 298 299
297 296 296 295 295 297 299 300 300 299 297 298 297 295 294 294 293 293 293 292 292 291 291 291 290 290 290 290 289 289 288 288 288 288 288 289 289 290 291 291 293 297 298
295 295 295 293 295 298 299 298 297 297 296 296 296 294 294 293 293 292 291 291 291 290 291 290 290 289 289 289 288 288 287 287 287 287 287 288 288 289 289 288 291 294 294
294 295 294 294 295 297 298 296 298 296 296 295 295 294 293 292 292 292 292 291 290 290 290 290 289 289 289 288 288 287 287 287 287 287 286 287 288 289 287 288 289 292 293
294 295 295 295 295 295 297 298 297 296 296 295 295 293 292 292 292 292 291 291 290 289 289 289 289 289 288 287 287 286 286 285 285 285 286 287 288 289 289 289 289 290 293
295 295 295 295 295 295 295 295 293 295 294 294 294 293 292 292 291 290 290 289 289 288 288 287 287 287 286 286 285 285 284 284 285 286 286 287 287 288 290 290 289 290 293
296 295 295 295 295 295 295 295 294 294 293 293 293 292 292 291 291 290 289 288 287 287 286 285 285 285 284 284 284 284 284 285 285 285 286 287 287 288 289 288 289 290 292
296 295 294 295 295 293 293 293 293 293 293 292 292 291 291 290 289 288 287 286 285 284 284 284 284 283 283 283 283 284 284 285 285 285 285 286 287 289 289 288 289 289 291
296 294 294 294 295 294 293 292 292 292 291 291 291 290 289 288 287 286 285 284 283 282 282 282 282 282 282 282 283 282 283 283 283 284 284 285 286 288 288 287 287 289 290
295 295 294 294 294 294 293 292 290 290 290 290 289 289 288 287 286 285 284 283 283 282 281 281 281 281 282 282 282 282 283 283 283 283 284 285 285 287 288 289 290 290 290
295 295 294 294 294 294 294 293 292 288 288 287 288 287 286 285 285 284 283 283 282 281 281 281 281 282 282 282 282 282 281 281 282 283 284 284 284 286 288 289 290 289 288
294 295 294 294 293 293 293 292 290 288 288 287 287 286 285 284 284 284 283 282 280 281 281 281 281 282 282 281 280 280 280 280 280 281 282 282 283 284 286 287 289 288 288
294 294 294 293 293 293 292 292 290 288 287 287 286 285 284 284 283 282 281 279 279 279 280 280 280 280 280 279 279 280 280 280 280 280 281 282 283 284 285 285 287 287 287
294 294 294 293 292 291 291 290 290 288 287 286 285 284 284 284 283 282 280 279 279 279 280 279 278 278 279 280 281 281 281 281 281 281 282 282 284 285 285 285 285 285 285
293 293 293 292 291 291 290 289 288 287 286 286 284 284 283 283 283 282 279 279 279 279 278 278 279 279 280 281 281 282 283 282 282 282 282 282 283 285 285 285 286 286 287

GFSMA_850_thetae_021.txt.gz
Theta_e
325 321 323 321 320 320 321 320 318 315 314 313 312 312 311 311 310 309 308 309 309 308 307 310 308 308 308 307 306 305 303 303 303 303 303 305 310 312 313 313 311 310 309
318 320 319 321 320 320 320 317 313 312 312 311 311 310 309 308 309 308 306 305 307 307 308 309 308 307 307 307 306 305 305 303 302 301 302 303 303 306 311 312 313 312 311
321 321 321 321 319 316 311 311 311 310 310 310 309 306 304 306 306 306 306 305 303 304 306 309 308 306 305 304 304 304 302 300 301 300 301 300 301 302 303 309 312 313 313
320 319 317 314 313 311 310 310 310 310 310 309 304 302 303 304 303 304 304 304 302 302 305 308 306 305 303 302 302 302 301 302 301 302 303 302 300 299 300 301 305 310 313
312 311 312 312 311 310 310 310 310 309 307 302 303 301 300 303 303 302 302 302 303 306 305 304 304 303 301 300 299 300 300 300 299 302 301 301 300 299 297 297 299 301 307
311 311 311 311 311 310 310 309 308 305 301 302 300 301 301 302 302 301 301 302 301 299 301 303 302 301 300 299 298 297 297 297 298 300 299 299 298 297 296 295 295 296 298
311 311 311 311 310 309 308 306 301 300 300 299 301 301 300 297 300 301 300 300 299 298 297 296 296 297 296 296 295 294 295 296 295 296 295 295 295 295 295 294 296 296 294
311 310 310 308 306 303 301 300 299 298 299 301 302 301 299 299 299 299 299 299 297 296 295 294 294 294 293 293 292 292 292 292 292 292 293 293 293 294 294 295 296 297 299
311 309 308 306 303 302 300 299 297 299 302 302 301 300 299 298 297 297 297 295 295 295 294 293 293 293 292 292 292 291 292 292 292 291 292 292 293 293 293 294 295 296 297
310 308 307 304 300 297 296 295 296 299 301 301 300 300 299 298 296 295 294 293 293 293 293 292 292 292 292 292 291 291 291 291 290 290 290 291 291 291 292 293 294 295 296
308 306 303 297 296 294 293 295 299 300 301 301 300 299 299 298 296 294 293 293 293 292 291 291 292 291 291 291 291 290 290 290 289 289 289 290 290 290 291 291 293 294 294
305 298 296 295 294 293 294 297 299 300 300 300 299 297 297 295 294 293 293 293 292 292 291 291 290 290 290 290 290 289 289 289 288 288 288 289 289 289 290 291 292 293 293
297 296 294 294 293 293 296 298 298 298 299 297 296 296 296 294 294 293 292 292 291 291 290 290 289 290 289 289 289 289 289 288 288 288 287 288 288 288 289 290 291 291 292
295 294 294 293 292 294 297 298 298 295 296 296 295 295 295 294 293 293 292 292 291 291 290 290 289 289 289 289 289 288 288 288 287 287 286 286 286 287 288 289 290 290 291
294 294 293 292 292 293 295 296 297 297 296 295 295 295 294 294 292 292 292 292 291 290 290 289 289 288 288 288 288 287 287 287 286 285 284 284 286 287 288 289 290 289 290
295 294 293 293 293 293 294 295 296 295 295 295 294 294 294 293 292 292 292 290 290 289 288 288 288 287 286 286 286 286 285 284 284 284 285 285 285 286 287 287 288 289 289
296 295 294 294 293 295 295 295 295 294 294 294 294 293 292 292 292 292 290 290 289 288 287 287 286 285 285 284 284 284 283 283 284 284 284 285 286 286 286 287 288 289 290
297 296 295 293 294 295 295 294 293 292 293 293 293 292 292 292 291 290 289 288 287 286 285 284 283 283 283 282 282 282 282 283 283 284 284 285 285 285 286 287 288 289 288
297 297 296 294 294 295 295 294 292 292 292 292 291 291 291 290 289 288 287 287 286 285 283 283 282 281 281 281 281 282 282 281 282 282 282 283 284 285 286 286 288 288 288
297 296 296 294 294 294 294 294 293 292 292 291 291 290 289 289 288 287 286 285 284 283 283 282 281 281 281 281 281 282 282 282 281 282 282 284 284 284 285 287 289 287 287
296 295 294 294 294 294 294 294 293 293 292 290 288 288 288 288 287 286 285 284 284 283 282 281 280 281 281 281 281 282 281 281 280 280 281 282 283 283 284 288 288 288 289
294 294 294 295 294 294 293 293 293 293 291 288 287 287 286 285 286 285 284 284 283 282 279 280 280 280 281 281 281 280 280 279 279 280 280 281 281 282 282 285 287 288 289
294 294 294 294 294 294 293 293 292 292 290 288 288 286 285 285 285 284 284 283 281 280 279 279 280 280 280 280 279 279 279 280 281 281 280 280 281 281 282 284 285 286 287
293 293 293 294 294 293 293 293 292 291 290 288 287 286 285 284 284 284 283 282 281 280 279 279 280 279 279 278 279 280 281 281 282 282 281 282 282 282 284 284 284 285 286
293 293 293 293 293 293 292 291 291 290 289 288 286 286 284 284 284 283 283 282 280 280 280 279 279 279 279 280 281 281 281 282 282 282 282 282 282 282 284 284 285 285 285
292 292 292 293 293 292 292 291 290 289 288 287 286 285 284 283 283 283 282 280 280 280 280 280 279 279 279 280 280 280 281 281 282 283 283 282 282 283 283 285 286 285 286

GFSMA_850_thetae_024.txt.gz
Theta_e
326 325 325 324 320 319 321 321 320 319 314 312 312 311 311 310 309 308 307 306 306 307 307 307 308 308 308 308 308 307 307 306 305 303 302 302 303 303 308 311 311 313 311
320 320 322 322 319 320 320 319 317 312 311 310 310 310 308 303 304 306 307 306 305 304 303 305 308 307 306 306 306 306 304 305 304 303 300 302 300 301 302 303 306 310 312
319 319 320 321 320 317 314 311 310 310 310 309 309 309 301 303 306 305 305 305 304 303 303 307 306 306 305 304 304 303 303 303 302 302 300 301 299 297 297 299 300 302 306
320 320 318 315 312 311 310 310 310 310 310 309 303 301 299 301 303 303 302 302 302 303 307 305 304 304 303 302 301 302 302 302 301 301 301 299 298 296 296 295 296 298 300
314 312 311 311 311 311 310 310 309 309 307 302 301 300 299 301 302 302 302 301 302 303 304 304 303 300 300 300 299 299 299 300 299 300 299 296 294 294 295 295 296 296 296
310 311 311 311 310 310 310 309 307 303 299 298 297 299 301 300 300 300 300 300 299 298 299 298 296 296 297 297 296 296 297 297 298 296 294 294 294 296 296 296 297 297 296
311 311 311 310 310 309 307 302 300 298 296 296 299 300 300 298 299 299 299 299 298 297 296 296 295 294 294 294 294 293 294 295 295 295 294 295 295 295 295 295 295 296 297
311 311 311 309 309 306 301 299 298 296 295 299 301 301 300 298 299 298 297 297 297 296 295 294 293 293 292 292 292 292 293 293 293 293 293 293 293 293 294 294 294 295 295
312 312 311 311 309 303 300 297 296 295 297 299 300 300 299 298 297 297 296 295 294 294 294 293 292 292 292 291 291 291 291 291 291 291 291 292 292 292 292 293 293 293 294
312 312 310 309 306 300 296 294 294 295 298 300 300 300 299 299 298 296 296 295 294 293 293 292 291 291 291 291 290 290 290 290 290 290 290 291 291 292 291 291 292 293 294
311 308 307 303 298 295 294 293 294 295 299 300 300 299 299 297 296 296 294 293 292 292 291 291 291 290 289 289 289 289 290 289 289 289 289 290 290 290 290 290 291 292 293
306 305 302 297 295 294 293 293 295 297 298 297 298 297 296 296 295 294 294 293 292 292 291 291 290 290 289 288 288 289 288 289 288 288 288 288 289 289 289 289 290 291 291
306 299 296 294 294 293 292 293 295 297 297 296 296 295 295 295 295 294 293 293 292 292 291 291 290 290 289 288 288 289 289 288 288 288 288 287 287 287 287 288 289 290 291
298 296 296 293 293 292 292 292 293 296 296 296 296 295 295 294 295 294 293 292 292 292 291 291 290 289 288 288 288 288 288 288 287 287 286 285 285 286 287 288 289 290 290
296 295 294 293 292 292 291 293 294 295 295 294 294 295 294 293 294 293 292 292 291 290 290 290 289 288 287 287 286 286 285 285 284 284 283 284 285 286 287 287 288 288 289
296 295 295 294 293 291 292 294 293 294 294 294 294 294 294 294 293 293 292 291 290 290 289 288 287 286 285 284 283 283 283 283 283 283 283 284 284 285 286 286 287 287 288
299 296 295 295 295 292 293 295 295 293 293 293 293 293 293 292 292 292 291 291 290 288 287 286 285 284 283 282 282 282 282 282 282 282 282 283 284 284 285 285 285 286 287
298 295 296 296 296 293 293 295 295 294 293 292 293 292 292 292 291 291 290 288 287 286 285 284 283 282 282 281 281 281 281 281 281 281 282 282 282 283 284 284 285 285 286
298 297 297 296 296 293 293 294 294 294 293 292 292 291 291 291 290 289 288 287 286 286 284 283 282 281 281 281 281 281 281 281 281 281 281 281 282 283 284 284 284 285 287
297 297 296 295 294 294 294 294 294 294 293 292 290 291 289 289 288 287 287 286 285 284 283 283 281 280 280 281 281 281 281 280 280 280 280 280 280 282 283 283 283 287 288
297 295 294 293 294 294 294 294 294 294 293 293 292 290 287 286 286 285 285 285 284 284 283 281 280 279 280 280 280 280 280 279 280 280 281 281 280 281 282 282 283 287 287
296 294 293 294 294 294 294 294 293 293 293 292 291 289 287 286 285 285 285 284 283 283 281 280 279 278 280 280 280 279 279 279 280 281 281 281 281 281 281 281 282 286 287
296 293 294 294 294 294 294 294 293 293 292 292 291 289 287 286 285 284 284 283 283 282 281 279 279 279 279 278 279 279 280 281 281 282 281 282 282 282 282 282 283 285 286
294 294 293 293 293 293 293 293 293 292 291 291 290 288 287 286 285 284 283 283 282 282 280 280 280 279 278 279 279 280 281 281 281 281 282 282 282 282 282 284 284 285 285
294 293 293 293 293 293 293 293 292 291 291 290 289 287 286 284 284 283 283 282 282 281 280 280 280 279 278 279 280 280 280 280 280 281 282 282 283 283 282 285 285 286 286
293 292 291 291 292 292 293 292 292 291 290 289 288 287 286 284 283 283 282 282 281 280 280 280 280 279 278 278 279 279 280 280 280 281 282 282 283 283 282 284 283 284 285

GFSMA_850_thetae_027.txt.gz
Theta_e
324 323 324 323 321 319 320 321 320 318 315 312 311 311 311 309 306 304 305 306 306 305 306 306 306 308 307 307 307 306 306 306 306 304 304 303 302 302 301 301 302 302 306
325 324 325 324 322 320 319 319 318 314 310 310 309 309 309 307 301 304 305 305 305 304 303 306 309 308 307 306 305 305 305 304 304 303 303 302 302 301 298 298 297 297 299
325 320 320 321 320 319 317 313 310 310 310 309 309 307 301 298 300 302 302 302 303 302 303 308 307 305 305 304 304 303 304 303 302 302 303 302 300 299 298 299 298 298 296
319 320 320 320 317 312 310 310 310 309 309 307 302 299 298 299 302 302 302 302 300 302 306 306 304 304 303 301 301 302 302 302 301 301 302 301 298 296 296 295 295 295 294
320 319 316 311 311 310 310 310 309 307 303 299 297 297 299 301 300 301 301 300 301 304 304 303 303 300 298 296 297 298 299 299 299 300 299 297 295 294 293 294 296 297 297
314 312 311 311 310 310 309 307 304 300 298 296 296 298 299 299 299 299 299 299 299 298 299 300 299 296 295 294 295 295 296 297 297 298 296 296 296 295 293 294 296 296 296
311 311 311 310 310 309 310 308 302 298 297 296 296 298 298 299 299 299 298 298 298 297 297 296 295 294 293 293 292 292 294 295 295 295 295 295 294 294 294 295 295 295 295
311 311 311 310 310 311 310 309 300 296 295 295 296 297 299 298 298 298 297 296 296 295 294 294 293 293 292 292 291 291 291 292 293 293 293 293 293 293 293 294 294 294 294
311 311 311 310 310 310 310 302 296 294 294 296 297 298 298 298 298 297 296 296 295 295 294 293 292 292 291 291 290 290 290 290 290 291 291 292 292 293 293 293 293 293 293
311 311 311 310 309 309 304 296 294 294 294 297 299 300 299 299 298 297 296 296 295 294 293 292 291 290 290 290 289 288 288 289 290 290 290 291 291 291 292 292 292 292 293
312 312 310 307 306 301 296 294 293 294 296 297 298 298 298 297 296 295 295 294 293 293 292 291 291 290 290 289 289 289 287 288 289 289 289 290 290 290 290 290 290 291 291
312 311 306 304 301 296 296 293 293 294 296 297 296 295 295 296 296 295 294 294 293 293 292 292 291 291 290 290 288 288 287 287 288 288 287 288 289 289 289 289 289 289 290
311 305 302 299 301 299 293 292 292 293 296 296 295 296 295 295 295 294 294 293 293 292 292 291 291 291 290 289 288 287 287 287 287 287 287 287 287 286 286 287 288 289 290
305 302 306 304 294 293 292 291 292 293 295 295 295 294 294 294 294 293 294 293 292 292 292 291 290 290 289 288 287 286 285 284 284 283 283 283 284 286 286 287 288 288 289
303 309 304 296 294 293 292 292 293 293 293 293 294 294 293 293 293 293 293 293 292 291 290 290 290 288 287 285 284 283 282 282 283 283 283 283 284 285 286 286 287 287 288
310 305 299 295 295 294 292 292 293 294 294 294 292 292 293 293 294 293 292 292 292 291 290 289 287 286 285 283 282 282 282 282 282 282 282 282 283 284 285 285 286 286 287
300 300 297 296 296 294 293 292 293 294 294 293 293 292 292 292 292 292 291 291 290 289 288 287 286 284 283 282 281 282 282 281 281 281 281 281 282 282 282 283 284 285 285
301 299 296 296 295 295 294 293 292 293 294 294 293 292 292 291 291 291 290 289 288 287 286 285 284 283 282 281 280 281 282 281 281 281 280 280 280 281 281 283 283 283 284
300 299 297 296 295 295 293 294 294 294 294 294 293 292 292 290 290 288 288 287 286 285 284 284 283 282 281 281 281 281 281 281 280 279 280 280 280 280 280 281 283 283 283
299 298 297 295 296 293 294 294 294 294 294 294 293 292 291 291 288 287 286 285 284 284 284 283 282 281 280 280 280 280 281 280 279 280 281 281 281 281 280 281 282 283 283
298 297 295 298 294 294 294 294 294 294 294 294 293 292 292 290 289 287 286 285 284 284 283 282 281 280 280 280 280 279 279 280 280 281 281 281 281 281 281 281 281 282 282
295 296 298 297 294 294 294 294 294 294 293 293 293 292 291 290 288 287 286 285 284 283 283 282 281 280 280 279 279 279 279 280 280 281 281 281 282 282 282 282 281 281 282
297 298 299 295 294 293 293 293 293 293 293 293 292 291 290 289 288 286 285 284 283 283 282 282 280 280 280 279 278 278 279 280 280 280 280 281 282 283 283 282 284 284 283
299 299 296 293 293 293 293 293 293 293 293 292 291 291 290 289 286 285 284 283 283 282 282 280 280 280 279 279 278 279 279 280 280 280 280 281 282 283 283 282 284 285 285
299 296 294 293 291 290 291 291 292 292 292 291 291 290 289 288 286 285 283 283 282 282 281 280 280 280 279 279 278 278 279 279 279 280 281 281 282 282 283 283 284 283 285
295 293 292 290 290 290 290 291 292 292 291 291 291 290 288 287 287 285 283 283 282 281 281 280 280 280 279 279 279 278 278 279 279 279 280 280 282 282 282 283 283 282 283

GFSMA_850_thetae_030.txt.gz
Theta_e
322 324 324 323 322 321 320 320 320 318 315 311 310 309 309 308 307 304 300 304 305 305 307 307 308 309 308 307 306 305 305 304 303 303 303 302 303 302 301 300 299 299 299
324 324 324 323 322 321 319 319 317 313 310 309 309 308 307 304 299 298 299 302 304 303 303 306 308 308 307 306 304 303 302 303 302 303 303 303 301 301 300 300 300 299 299
325 325 324 323 322 319 318 313 310 310 309 308 308 303 299 297 298 299 299 299 300 300 301 304 308 307 306 305 303 304 303 302 302 302 302 302 301 299 297 297 297 297 297
326 324 319 319 319 316 310 310 310 309 307 302 299 297 297 298 299 299 299 300 299 300 302 307 306 304 303 303 301 300 301 301 300 300 301 300 299 298 298 296 295 295 295
321 319 320 319 312 310 310 310 308 303 300 298 296 296 297 298 298 299 299 298 298 300 304 304 303 302 301 299 298 298 298 298 298 298 299 298 297 297 296 295 294 297 297
320 319 316 311 310 310 309 307 304 301 298 296 296 296 297 297 298 299 298 298 298 298 298 298 298 297 295 295 294 294 296 296 297 297 297 297 297 296 295 295 295 295 296
317 314 311 310 310 309 307 306 302 298 296 296 295 296 296 298 298 298 298 297 297 295 295 295 294 294 293 292 292 292 293 294 294 295 295 296 295 294 294 294 295 295 295
312 311 311 310 309 308 307 305 301 298 296 295 295 296 297 297 298 298 297 297 296 295 295 296 294 293 292 291 291 290 290 290 291 292 292 293 293 293 293 294 294 294 294
311 310 310 310 308 307 304 301 299 299 296 295 295 296 298 297 297 297 297 296 296 294 295 294 293 292 291 290 290 289 289 289 288 291 291 292 292 292 293 293 293 293 293
312 311 310 309 307 306 301 300 304 299 295 294 295 296 296 298 298 297 296 296 295 295 295 293 292 291 290 290 289 289 289 288 288 288 290 291 291 291 292 292 292 292 292
313 311 310 308 305 307 308 312 310 296 293 294 295 295 295 295 296 295 295 295 294 294 293 293 292 291 291 290 290 290 289 289 288 287 287 289 289 290 290 290 291 291 291
313 310 308 306 305 309 311 311 296 293 292 293 294 294 295 295 295 294 295 294 294 294 293 293 292 291 291 291 290 289 289 288 287 286 287 287 288 288 288 289 289 289 289
314 311 309 308 307 309 310 298 293 292 292 293 294 294 294 294 293 293 294 293 293 293 293 292 292 291 291 290 290 289 288 286 284 284 283 283 284 285 286 287 288 288 289
315 312 309 306 309 311 301 296 293 292 292 293 293 293 293 293 293 293 293 293 293 292 292 292 291 291 290 288 287 285 284 283 283 283 283 283 283 285 285 286 287 287 288
313 311 305 307 310 304 297 294 292 292 293 293 293 294 292 292 293 293 294 293 292 292 291 291 290 289 287 286 285 283 282 282 282 282 282 282 282 283 284 285 286 286 287
312 306 306 306 300 298 294 293 294 293 294 294 293 293 292 291 291 292 292 292 291 291 290 290 288 286 285 284 283 282 281 281 282 282 281 281 282 283 283 283 284 284 285
308 303 303 300 296 295 295 298 294 292 293 294 294 293 291 291 292 291 291 291 291 290 289 287 286 285 284 283 282 281 281 281 281 281 281 281 280 281 281 281 282 282 285
304 302 300 297 296 295 298 296 293 293 293 293 294 293 292 291 291 291 291 289 288 287 287 286 284 284 283 282 281 281 281 281 281 281 280 279 280 280 281 281 281 281 283
303 300 299 297 296 297 299 294 294 294 294 294 293 293 293 292 291 291 288 287 286 286 285 284 284 283 282 281 281 281 281 281 280 280 280 280 281 281 281 281 281 281 281
300 299 298 297 295 297 298 294 294 294 294 294 293 294 293 292 291 291 289 287 286 285 284 284 283 283 282 281 280 280 281 280 279 280 281 281 281 281 281 281 281 281 281
299 298 297 296 296 298 298 294 294 294 294 294 293 293 293 292 291 290 288 287 286 285 284 283 283 282 281 280 280 280 279 279 280 281 280 281 281 282 282 282 282 282 281
299 297 296 295 297 299 295 294 293 293 294 293 293 293 293 292 291 289 288 287 286 284 283 283 282 282 280 280 280 279 279 279 279 280 280 281 281 282 282 283 282 282 283
297 296 296 297 297 298 294 293 293 292 292 293 293 293 293 291 290 289 288 286 284 284 283 283 282 281 280 279 279 279 278 278 279 279 279 280 281 282 282 283 283 283 284
296 297 297 297 298 296 293 292 291 291 292 292 292 293 292 291 290 289 287 286 284 283 283 282 281 280 280 279 279 279 279 278 278 279 279 280 281 281 282 283 283 283 283
297 297 298 298 294 293 291 290 289 290 291 292 292 292 291 290 289 288 286 286 284 283 282 281 280 280 280 279 279 279 279 278 278 279 280 280 280 281 283 283 283 283 283
298 299 296 293 291 290 289 289 289 290 291 291 291 291 291 290 289 288 287 286 284 283 282 281 280 280 280 279 279 279 279 278 278 277 279 279 280 280 281 283 283 283 282

GFSMA_850_thetae_033.txt.gz
Theta_e
322 323 323 323 322 322 320 320 319 319 317 312 309 309 308 306 303 300 299 301 304 305 305 307 309 309 308 306 306 305 303 304 305 304 303 301 301 301 300 300 299 299 299
322 323 323 323 322 321 320 319 318 313 310 309 308 306 302 299 298 298 298 298 300 301 303 305 308 309 307 306 304 303 304 303 303 303 302 302 302 300 299 298 297 297 296
324 324 324 323 322 321 319 317 310 310 309 307 303 299 297 297 298 298 298 298 299 299 301 306 308 308 307 306 304 303 304 303 302 301 301 302 300 300 299 299 298 298 296
325 325 325 322 319 319 315 310 310 309 305 301 298 297 297 298 298 298 298 298 297 298 302 303 305 306 305 303 302 302 301 300 300 300 300 301 299 299 298 297 297 297 297
325 325 322 319 319 314 310 310 309 307 303 299 297 296 297 297 297 298 298 298 298 300 304 306 305 304 303 302 299 297 298 298 298 298 299 299 298 298 297 296 296 296 296
321 320 319 319 314 310 310 309 308 303 298 296 296 296 296 297 298 298 298 297 297 297 297 297 298 296 295 294 294 293 295 296 297 297 297 297 298 297 296 295 295 296 296
319 319 318 314 311 310 309 309 305 297 296 297 296 296 297 297 297 298 298 297 297 296 296 295 295 295 294 293 292 291 293 294 294 293 294 294 294 294 294 295 295 295 296
318 317 314 311 310 310 308 306 301 301 302 300 297 296 300 298 297 297 296 297 296 296 295 295 295 294 293 292 290 290 290 289 289 291 292 293 293 293 293 294 294 294 294
316 314 311 311 310 308 306 302 308 311 304 305 297 295 299 299 297 297 296 296 296 296 295 295 294 293 292 291 290 290 290 289 289 289 291 292 292 293 293 293 293 294 294
313 312 311 310 309 307 305 308 310 310 308 296 295 294 294 294 298 297 296 296 295 295 294 294 293 293 292 291 290 290 290 290 290 289 289 291 291 291 291 292 292 292 293
313 311 310 310 310 308 308 312 310 302 306 295 295 293 293 294 294 296 296 295 294 294 294 294 293 293 292 291 291 291 290 290 289 289 289 287 289 289 290 290 291 291 291
313 312 311 310 310 309 308 310 311 308 295 297 293 293 294 295 295 295 295 294 294 293 293 293 292 292 292 292 291 291 290 289 288 286 284 284 284 287 287 288 289 289 290
316 316 313 311 311 307 309 310 306 297 296 293 293 293 292 292 293 294 294 294 293 293 292 292 292 292 291 291 290 289 288 286 284 284 283 283 283 283 286 286 287 288 289
318 314 311 309 307 306 308 298 299 295 295 295 294 293 293 292 292 293 294 294 294 293 292 292 291 289 290 289 287 286 285 284 283 283 282 282 282 283 285 285 286 286 287
317 312 311 309 306 307 304 305 295 296 299 297 293 293 293 292 292 292 292 293 293 292 292 291 290 289 288 287 286 284 284 283 282 282 282 282 282 283 283 284 285 285 286
315 312 311 306 305 303 299 297 296 301 296 293 293 292 293 292 291 291 291 291 291 292 291 290 290 289 287 285 284 283 283 282 282 282 282 282 282 282 282 283 283 283 284
314 312 309 303 303 304 301 296 300 298 293 293 293 294 293 292 291 291 291 291 291 291 290 289 288 286 285 284 284 282 282 282 282 282 282 281 281 281 281 281 281 282 282
314 310 304 302 300 297 295 299 298 296 294 293 293 293 294 293 292 291 291 291 290 289 288 288 287 285 284 284 283 282 281 281 281 281 281 281 281 280 281 281 281 281 282
313 307 302 300 299 298 296 297 301 295 294 294 294 294 293 293 293 292 291 291 289 288 287 286 286 285 284 283 282 281 281 281 281 281 281 281 281 281 281 281 282 281 281
308 306 301 299 299 296 296 298 300 294 294 294 294 294 294 293 293 292 291 291 289 288 286 285 285 284 283 282 281 281 281 281 281 281 281 281 281 281 281 282 282 282 282
303 300 299 298 297 296 297 298 299 294 294 294 294 294 294 293 293 293 291 290 289 288 286 285 284 284 283 282 281 281 281 281 281 281 281 282 282 282 283 283 283 283 282
300 299 297 296 295 296 298 298 298 294 293 293 293 293 293 293 293 293 291 290 289 288 286 285 284 283 283 282 280 281 280 280 281 281 281 281 281 282 282 283 283 283 283
299 297 296 295 297 299 298 297 296 293 293 293 292 292 293 293 293 293 292 290 289 288 285 284 283 283 282 280 280 280 281 280 280 280 280 281 281 282 282 282 283 283 283
296 297 298 298 298 298 297 297 293 292 291 290 290 291 292 292 293 292 291 290 289 287 285 284 283 282 281 280 280 280 280 280 280 280 280 280 281 282 282 283 283 283 283
299 298 298 298 298 298 294 292 290 289 289 289 290 291 292 292 292 292 291 289 288 287 286 284 283 282 281 280 280 280 280 280 280 280 280 280 281 281 282 283 284 283 283
297 298 298 297 294 292 291 290 289 289 289 289 289 290 291 292 291 291 290 289 288 287 286 284 283 282 281 280 280 280 280 280 280 280 280 279 280 281 281 283 283 284 283

GFSMA_850_thetae_036.txt.gz
Theta_e
317 319 322 323 322 322 321 320 319 317 315 310 309 308 304 301 300 304 305 301 303 305 307 308 309 309 309 307 306 305 303 302 302 304 303 302 301 300 300 298 298 297 297
319 322 323 323 322 321 321 318 316 313 310 309 307 303 301 299 299 299 305 307 299 299 302 307 310 309 309 307 305 305 305 303 303 303 302 301 302 301 300 300 299 298 297
323 323 324 323 322 322 321 318 314 310 310 308 304 301 300 299 300 298 303 305 307 301 299 303 307 309 308 307 305 305 304 303 302 301 301 302 302 301 300 299 298 298 298
324 324 324 323 323 320 317 315 310 310 308 305 303 302 300 299 298 298 303 304 304 305 304 301 302 306 307 306 305 303 302 301 300 300 300 300 300 300 299 299 298 297 297
324 325 325 324 320 319 317 310 310 308 306 304 303 302 300 301 301 301 303 303 302 303 304 303 306 306 306 304 302 298 298 299 299 299 300 300 300 299 299 299 298 296 297
323 325 325 322 319 318 311 310 309 310 305 306 303 303 302 301 301 301 300 299 300 300 300 300 299 299 299 297 296 294 294 296 297 296 296 296 296 296 296 296 296 296 297
321 321 320 319 318 314 310 310 310 308 312 307 306 306 304 302 301 300 300 299 299 298 298 297 297 297 297 295 294 293 291 292 294 293 294 294 294 295 295 295 295 295 296
320 319 319 319 317 311 310 309 309 310 306 306 306 305 305 304 302 301 299 298 298 297 297 296 296 296 296 295 294 292 290 290 290 291 293 293 293 294 294 294 295 295 295
320 319 319 317 313 310 310 309 309 312 307 306 307 303 303 305 303 301 300 299 298 298 297 296 296 295 295 294 294 293 292 291 290 290 290 291 292 293 293 293 293 294 294
319 318 317 314 311 311 310 309 309 311 311 307 305 300 300 300 300 301 301 300 299 298 297 297 296 296 295 294 293 293 292 291 291 291 291 290 290 291 291 291 292 292 293
318 316 315 313 311 310 310 307 309 311 308 307 302 303 301 300 300 299 299 298 298 297 297 296 296 295 295 294 293 293 292 291 291 290 289 287 285 287 288 289 290 290 291
319 315 313 312 311 310 309 306 309 310 303 300 300 300 299 300 300 298 298 298 297 297 296 295 295 295 294 293 293 291 291 291 289 288 285 284 284 284 286 288 288 289 289
320 317 314 312 311 309 306 306 309 306 308 299 297 300 300 299 297 297 297 297 297 297 296 295 294 294 294 293 292 291 289 287 286 285 284 284 283 283 283 286 287 288 288
321 319 316 312 310 307 307 307 306 306 301 296 298 299 298 298 297 297 296 296 296 296 295 295 295 294 293 292 291 289 288 287 285 284 283 283 282 282 283 283 286 286 287
320 316 316 313 311 306 305 306 304 298 295 300 301 299 298 297 297 296 295 295 295 295 295 294 293 293 292 291 290 288 287 286 285 283 283 282 282 282 282 283 284 285 285
319 318 317 314 310 307 306 302 300 298 301 300 298 298 297 296 296 295 295 295 295 294 294 293 293 292 292 290 289 287 286 285 284 283 282 282 282 282 282 282 283 283 283
322 320 318 314 309 305 304 301 298 300 297 299 298 297 296 296 295 295 295 294 294 293 293 293 292 291 290 289 288 287 286 285 284 283 283 282 282 281 281 281 281 281 282
321 320 316 312 306 303 298 296 298 298 299 299 297 297 296 296 295 295 295 294 294 293 292 292 291 290 289 289 287 286 285 284 284 284 283 282 282 281 281 281 281 281 282
319 316 307 307 303 300 298 297 297 300 299 298 296 296 296 296 295 295 295 294 293 293 292 291 290 290 289 288 287 286 285 284 284 283 283 282 282 282 281 281 281 282 283
317 312 305 303 300 297 296 296 296 298 299 296 295 295 295 295 295 295 294 294 293 292 291 290 290 289 288 287 286 285 285 284 284 284 283 284 283 283 283 283 283 283 283
315 310 305 300 299 296 297 296 298 299 298 298 296 295 295 295 295 294 294 294 293 292 291 290 289 289 288 287 286 285 284 284 284 284 284 284 284 284 284 284 284 284 284
306 303 300 298 297 296 296 298 299 298 297 295 295 295 295 295 294 294 293 293 293 292 291 290 289 288 287 286 286 284 284 284 284 284 283 283 283 284 284 284 284 283 283
301 299 298 301 299 296 297 299 298 297 296 295 294 295 294 294 294 293 293 293 293 292 291 289 289 287 287 286 285 283 283 283 283 283 283 283 283 283 284 284 284 284 283
300 300 299 300 297 297 299 298 297 295 293 293 293 293 293 293 293 293 292 292 291 291 291 290 288 287 286 285 284 283 283 283 283 283 283 283 283 284 284 284 284 284 284
298 298 298 298 298 297 298 296 292 291 290 291 292 292 292 292 292 292 292 292 292 291 290 289 288 286 285 283 282 281 283 283 283 283 283 283 283 283 283 284 285 285 284
299 298 298 297 296 293 292 291 290 290 290 291 291 291 291 290 289 291 292 292 291 291 290 288 287 287 286 284 283 281 282 283 283 283 283 283 282 282 282 283 285 284 284

GFSMA_850_thetae_039.txt.gz
Theta_e
323 323 324 323 322 322 321 320 319 317 313 312 311 309 307 306 306 306 308 307 301 306 307 308 310 311 309 308 307 305 304 304 303 304 303 302 302 302 301 300 299 299 297
325 324 324 323 322 322 321 320 318 315 314 313 311 305 303 305 306 303 307 309 306 299 302 306 311 311 309 308 306 306 306 304 304 303 303 303 302 302 301 301 300 299 299
323 325 324 323 322 321 320 319 318 314 313 310 308 306 306 305 305 305 306 307 308 306 299 304 308 310 309 307 306 305 304 303 302 302 302 302 302 302 301 300 300 299 298
326 324 324 323 322 321 319 318 315 313 312 309 308 307 306 306 304 303 306 306 306 307 308 300 302 305 307 308 307 304 303 301 301 301 301 301 301 301 301 301 300 300 298
326 325 324 323 323 320 318 316 314 312 310 309 308 308 307 306 305 303 305 305 304 304 307 305 301 305 307 307 306 304 302 299 298 299 299 298 298 298 298 298 298 298 297
323 324 324 322 323 319 317 315 312 310 309 309 308 307 308 306 304 304 304 303 303 303 302 304 302 301 299 298 298 299 296 296 297 297 296 296 296 296 296 296 296 296 297
323 324 324 322 321 318 316 313 311 310 309 311 311 312 310 307 306 304 303 302 302 301 300 300 300 300 299 298 297 296 295 294 293 293 294 295 295 295 295 295 295 296 296
324 323 322 320 319 317 315 312 310 310 311 311 312 311 311 309 306 305 304 302 302 301 300 300 299 299 298 298 297 296 295 294 292 291 291 291 293 294 294 294 294 294 294
323 322 320 319 317 316 314 312 310 310 312 311 311 309 309 309 308 306 304 303 302 301 300 300 299 298 297 297 297 296 295 294 293 291 291 291 292 293 293 293 293 293 293
322 320 319 318 316 315 313 311 310 310 311 311 310 308 306 305 305 304 305 304 302 301 301 300 299 298 298 297 296 295 295 294 293 292 291 291 290 290 290 290 291 291 291
322 320 319 318 316 314 311 310 309 309 311 311 308 308 306 306 304 304 304 304 303 301 300 299 299 298 298 297 296 295 294 294 293 291 290 289 286 285 287 289 289 290 290
322 320 319 320 318 314 311 310 309 308 310 308 307 305 304 304 304 304 303 302 301 301 300 299 298 297 297 296 295 294 294 293 292 290 287 286 285 284 285 287 288 288 289
320 321 321 321 319 313 310 309 309 307 310 306 306 302 303 303 303 301 300 300 300 300 299 299 298 297 296 296 295 294 293 292 291 288 287 285 284 284 283 283 285 287 288
320 323 321 320 316 312 309 309 307 309 307 306 302 302 303 302 301 300 299 299 299 298 298 298 298 297 296 295 294 293 292 291 289 288 286 285 284 283 283 283 284 286 286
323 324 321 319 314 310 310 310 307 307 305 300 299 304 303 301 300 299 299 298 298 297 297 297 296 296 295 294 294 293 292 290 289 287 286 285 284 283 282 282 282 283 285
324 323 320 318 316 314 312 306 304 303 299 302 304 302 301 301 299 299 297 297 297 297 296 296 295 295 294 293 293 292 290 289 288 287 286 284 284 283 282 282 282 283 284
323 322 318 317 314 313 311 304 303 299 302 302 301 301 300 300 298 297 297 296 296 296 295 295 295 294 294 293 292 291 290 289 288 286 285 284 284 283 282 283 282 282 282
321 320 316 317 312 308 304 302 302 300 300 299 301 301 300 299 297 297 297 296 296 296 295 295 295 294 293 292 291 291 289 288 287 286 285 285 284 283 284 283 283 282 282
319 319 318 315 307 304 302 301 299 299 297 299 301 300 298 298 297 297 297 296 296 296 295 294 294 293 292 292 291 290 289 288 287 286 285 285 284 284 284 284 284 284 283
318 316 313 307 306 303 300 298 298 299 298 298 300 298 298 297 297 297 297 296 296 295 295 294 294 293 292 291 290 289 288 288 287 286 286 285 285 285 285 285 285 285 285
315 311 308 305 303 299 299 300 300 300 297 299 299 298 297 297 297 296 296 296 295 295 295 294 294 292 292 291 290 289 288 288 286 286 286 286 285 285 285 285 285 285 285
312 310 307 305 303 300 301 301 300 298 297 298 298 297 297 297 297 296 296 295 294 294 294 294 293 292 292 291 290 289 288 287 286 286 286 285 285 285 285 285 285 285 285
306 304 302 301 300 299 300 300 297 295 296 298 297 296 296 295 295 294 294 294 294 293 293 293 293 292 292 291 290 289 288 287 285 285 285 285 285 285 285 285 285 285 285
301 299 298 298 298 299 298 298 297 297 297 295 295 294 294 294 294 294 294 294 294 294 293 293 293 292 291 290 289 288 287 285 285 285 285 285 285 285 285 284 284 284 284
300 300 299 299 298 298 298 297 297 293 292 292 293 293 293 293 293 292 293 293 293 293 293 293 292 291 290 290 288 287 285 284 284 285 285 285 285 284 284 284 284 284 285
299 299 298 298 297 294 295 294 292 291 291 291 292 292 292 292 292 292 292 291 291 291 292 292 292 291 290 289 288 286 285 283 284 284 285 285 284 284 283 283 284 283 283

GFSMA_850_thetae_042.txt.gz
Theta_e
314 314 320 321 322 321 321 320 320 317 312 312 312 309 307 306 305 307 308 308 307 301 306 310 310 312 310 310 308 305 304 304 304 304 303 303 301 303 302 302 301 300 300
315 323 325 323 323 322 321 321 319 315 314 313 312 309 306 306 306 307 307 307 308 305 301 307 311 311 311 310 307 305 305 304 304 303 303 302 303 302 302 301 300 300 300
323 325 324 324 323 322 321 320 318 315 313 312 311 311 308 307 307 304 307 308 308 307 303 304 309 311 310 308 306 305 305 304 303 302 302 302 302 302 301 301 300 300 300
324 324 324 324 323 322 321 320 318 314 314 311 310 308 307 308 309 305 306 307 309 307 307 308 301 303 306 307 307 307 304 303 302 301 301 300 299 299 299 299 300 299 299
326 323 325 324 323 322 320 318 315 314 312 310 309 309 310 309 308 304 306 305 305 305 308 306 305 303 302 306 306 306 305 303 301 299 298 297 296 296 296 297 297 297 297
325 323 324 324 323 321 319 318 315 313 311 310 310 308 309 311 309 306 305 305 303 303 304 303 303 301 301 300 299 298 297 297 297 296 296 296 296 296 296 296 296 296 296
326 324 324 324 323 321 319 318 314 312 310 310 312 313 312 311 310 307 305 304 303 302 302 301 301 301 300 299 298 298 297 296 295 294 293 295 295 295 295 295 295 295 295
325 325 324 324 322 321 318 317 315 312 310 312 311 313 312 310 308 308 305 304 304 302 302 300 300 300 299 299 298 297 296 296 295 294 293 292 291 293 294 294 294 294 294
324 325 324 324 322 319 318 317 315 311 310 312 312 312 310 309 307 307 306 305 303 303 302 301 300 299 299 298 297 297 297 296 295 294 293 292 291 291 292 292 292 292 292
325 324 323 322 321 319 317 317 315 311 311 313 312 312 310 308 306 306 306 305 304 303 302 301 300 300 299 298 298 297 296 296 295 295 293 292 290 288 289 290 290 291 291
324 323 322 321 320 319 318 315 314 311 311 311 311 310 308 307 306 305 304 305 305 304 302 300 299 299 299 298 298 297 296 296 295 294 293 292 290 287 286 289 289 289 290
324 323 322 321 319 319 317 314 313 310 309 310 310 311 309 306 305 305 304 304 304 302 302 300 300 299 298 297 297 296 296 295 295 293 292 291 289 287 285 285 286 288 289
324 323 322 320 319 318 317 314 311 310 309 308 309 308 307 304 304 304 303 301 300 300 300 300 299 299 298 297 296 296 295 294 294 293 292 290 289 287 285 284 284 286 287
322 324 322 321 320 318 317 310 310 311 310 307 309 307 305 303 303 303 301 300 300 299 299 299 298 298 298 297 296 295 295 294 293 293 291 290 288 286 285 284 283 283 286
322 323 323 321 319 318 315 311 311 310 309 306 306 304 302 302 303 301 300 300 299 298 298 297 298 297 296 295 295 294 294 294 293 292 291 289 288 286 285 284 283 283 283
323 324 322 321 319 317 316 312 311 310 306 305 303 303 304 303 302 301 300 299 298 297 297 297 297 296 296 295 294 294 293 293 292 291 290 288 287 286 285 284 283 283 283
322 323 323 322 320 318 315 311 309 308 304 302 303 303 303 301 301 301 300 299 297 297 296 296 296 295 295 295 294 293 293 292 291 290 289 288 287 286 285 284 284 284 284
324 323 321 320 318 316 313 309 307 304 302 302 302 302 302 301 301 300 298 298 297 297 296 296 296 295 294 295 294 293 292 291 291 290 289 288 286 285 285 285 285 285 284
321 320 318 317 317 312 309 308 306 303 300 301 301 302 300 300 299 298 298 298 297 297 297 296 296 295 295 294 294 293 292 291 290 289 288 287 286 286 285 285 285 285 285
320 319 318 315 312 311 308 305 304 302 300 300 301 300 299 299 298 298 297 297 297 297 297 297 296 296 295 295 294 292 291 291 290 289 288 288 286 286 286 285 285 285 285
318 317 315 314 311 307 305 305 302 300 300 301 299 298 298 297 297 297 297 297 297 297 296 297 296 296 295 295 293 292 291 290 289 289 288 287 286 286 286 285 285 285 285
316 314 313 311 309 306 305 303 300 299 300 299 299 298 297 298 297 297 296 296 296 296 296 296 295 294 295 294 293 292 291 290 289 288 288 286 285 285 285 285 285 285 285
311 309 308 307 305 303 301 299 300 298 298 298 298 296 296 294 295 295 295 295 294 294 295 295 295 294 293 293 293 292 291 290 289 288 287 286 285 284 285 285 285 285 284
305 303 302 300 299 298 298 298 298 297 297 297 296 294 294 293 293 293 293 293 293 293 293 293 294 294 294 293 293 292 292 290 289 288 287 285 285 285 285 285 284 284 283
302 300 299 299 299 299 298 298 297 296 295 293 291 291 292 292 292 292 292 292 292 292 291 291 291 291 292 293 292 291 291 290 289 288 286 285 285 285 285 284 284 283 284
300 300 299 298 298 295 295 295 294 293 292 291 290 289 288 287 287 287 288 289 289 289 290 290 290 291 290 291 291 291 291 289 288 288 288 285 285 285 284 284 283 283 282

GFSMA_850_thetae_045.txt.gz
Theta_e
315 314 315 315 319 320 320 320 320 319 314 312 312 308 307 306 307 306 308 308 307 304 305 312 313 313 312 310 309 305 303 303 302 303 303 303 302 303 302 302 300 301 301
315 314 316 321 321 321 321 320 320 316 313 312 312 309 310 309 307 307 307 306 308 307 302 308 312 313 313 311 309 305 304 304 304 303 303 302 303 302 300 300 301 301 301
315 319 323 321 322 322 321 321 319 314 314 312 312 312 312 312 311 307 305 307 307 307 305 300 310 311 311 310 306 304 305 305 303 302 301 302 301 300 298 298 299 300 300
322 321 322 323 323 322 322 321 320 317 314 312 311 311 312 312 312 309 305 307 307 307 305 307 307 306 310 309 307 306 306 305 303 302 301 301 299 297 297 297 298 298 298
315 321 323 323 323 322 322 321 320 317 314 313 310 310 310 312 312 310 307 307 306 306 305 307 307 305 304 304 307 307 305 301 301 301 300 299 296 296 296 296 297 297 297
314 315 324 322 323 323 322 321 319 315 313 312 311 310 310 311 311 311 309 307 305 304 304 304 303 303 302 300 300 300 299 298 297 296 296 295 295 295 293 294 296 296 296
319 318 320 324 323 323 323 321 319 316 314 311 310 310 312 313 312 311 310 306 305 305 303 302 302 301 301 300 300 299 298 298 297 296 295 294 292 292 294 295 295 295 294
320 319 321 322 323 324 322 320 319 317 315 311 310 311 313 312 311 311 309 307 305 304 303 303 302 301 300 300 299 299 298 297 297 296 296 295 293 292 293 293 293 293 293
320 321 321 324 323 323 322 320 319 317 315 311 311 311 312 309 308 307 308 306 305 304 303 303 302 301 300 300 299 299 298 297 297 296 296 295 293 293 291 290 292 292 292
320 322 323 324 323 322 321 320 318 317 316 310 311 312 312 311 310 307 306 306 305 305 304 304 302 300 300 300 299 298 298 298 297 296 295 294 294 292 290 289 290 291 291
325 324 323 323 323 323 322 319 318 317 316 310 312 312 311 310 308 308 306 305 304 305 304 304 303 300 299 299 299 299 298 298 297 296 295 294 293 292 290 289 290 290 290
325 325 324 322 322 322 321 319 318 317 314 312 311 312 311 309 308 307 306 305 305 304 302 303 302 301 300 299 299 298 297 297 296 295 295 294 293 292 291 289 288 288 289
323 324 323 323 323 322 321 319 317 315 315 311 310 311 310 309 307 305 304 304 304 305 302 300 300 300 299 299 298 298 297 296 296 295 294 293 293 291 290 288 287 286 288
322 321 323 323 323 322 321 318 317 316 315 311 311 309 309 308 307 304 304 304 302 301 300 300 300 299 299 298 298 297 296 296 295 294 294 293 292 291 290 288 286 285 287
321 321 321 323 323 322 321 319 317 316 314 309 310 308 307 307 303 303 302 302 300 300 300 300 299 298 297 297 296 296 296 295 294 293 293 292 292 291 289 287 286 285 285
324 322 321 323 322 322 321 318 316 313 309 309 309 306 305 302 302 303 304 303 300 299 299 298 298 297 297 296 296 295 294 294 293 293 293 292 291 290 288 287 285 285 285
322 322 324 324 322 322 320 318 316 311 308 308 307 304 301 303 303 304 302 301 300 299 299 298 297 297 296 296 295 295 295 294 293 293 293 292 291 289 288 286 285 285 285
324 326 324 322 320 320 319 318 315 311 308 307 306 301 302 303 303 301 300 300 300 298 298 297 297 296 296 296 296 295 295 294 294 293 292 291 290 289 287 286 286 286 285
323 323 322 321 320 317 317 316 311 308 307 307 301 302 302 302 300 300 299 298 298 298 298 297 297 297 297 297 296 296 295 294 293 293 291 291 289 288 287 287 286 285 285
322 322 320 320 319 318 316 311 308 307 306 303 303 301 301 301 298 298 297 298 297 297 297 297 297 297 297 297 296 296 295 295 294 293 291 290 289 288 288 287 286 286 285
322 320 320 319 318 315 312 310 308 306 304 302 300 300 300 299 298 297 296 297 297 296 296 296 296 296 296 295 295 294 294 294 293 292 291 289 289 289 288 287 285 285 285
320 319 317 316 314 312 310 307 305 303 300 298 298 299 298 298 296 294 294 295 295 294 294 294 294 294 294 294 294 294 294 294 293 292 290 289 289 289 288 287 285 285 285
317 316 314 312 310 307 305 304 301 299 298 299 297 297 296 296 294 293 292 293 293 293 293 293 292 292 292 292 292 293 293 293 292 292 291 289 290 289 288 286 285 285 285
313 311 309 307 305 303 302 299 298 298 297 296 296 295 295 294 292 292 292 292 291 291 291 292 292 291 291 291 291 291 291 291 292 292 291 290 290 289 288 286 285 285 284
307 305 303 302 300 298 298 298 297 296 296 295 295 293 292 291 290 289 287 285 284 284 283 282 282 282 282 283 288 290 290 291 291 292 291 290 289 289 287 286 285 285 284
302 300 299 298 299 298 297 297 296 295 294 292 292 290 288 286 284 283 282 282 282 282 283 283 284 285 285 284 282 282 286 290 290 289 290 287 288 288 286 285 285 284 284

GFSMA_850_thetae_048.txt.gz
Theta_e
318 315 314 314 318 320 319 319 319 318 317 312 310 307 307 308 308 307 308 307 308 306 309 315 314 313 312 311 309 307 302 302 302 302 302 301 303 302 300 300 301 301 301
314 314 314 314 318 320 320 320 320 320 314 312 310 308 310 311 312 308 307 306 307 307 306 303 312 313 313 311 310 308 302 303 303 302 301 301 300 300 299 296 296 299 300
314 314 316 321 321 321 321 321 320 319 313 312 311 310 312 312 312 311 310 308 307 307 307 303 307 312 312 312 310 304 303 305 304 303 302 302 301 300 297 295 294 296 298
318 317 320 322 322 322 322 321 321 318 316 315 312 311 312 312 312 312 311 309 308 307 307 305 306 308 307 309 307 305 306 306 304 303 302 301 301 299 296 295 294 296 298
317 316 320 321 323 322 322 321 321 320 318 317 312 311 311 310 311 313 312 310 308 306 306 305 305 306 305 304 306 307 307 305 302 298 298 297 297 296 294 293 293 296 296
315 318 320 323 323 323 322 322 321 320 319 315 313 311 310 309 311 313 312 310 307 306 305 304 304 303 303 303 301 302 302 301 298 298 297 296 295 294 292 291 290 296 296
314 315 316 317 323 322 323 322 322 321 318 314 312 311 310 309 312 313 311 310 308 306 305 304 303 303 302 301 300 300 300 299 298 297 297 296 296 295 293 292 292 294 294
314 315 314 315 319 322 323 322 322 322 318 315 312 310 310 311 312 312 311 310 309 307 306 305 303 303 302 301 300 300 299 299 298 298 298 296 296 294 293 292 292 293 293
315 316 319 318 319 321 323 323 323 322 320 317 314 311 311 311 311 311 310 308 308 307 306 305 304 303 303 301 300 300 300 299 299 298 297 296 295 294 293 292 291 290 292
318 319 320 319 320 322 322 322 323 321 319 318 315 313 310 311 310 309 310 308 307 307 306 305 304 304 303 302 300 300 300 299 299 298 297 296 295 294 293 292 291 291 292
317 315 314 318 321 322 322 322 322 320 319 318 317 315 311 311 312 310 309 309 307 306 305 305 304 304 303 303 300 300 299 299 299 298 297 296 295 295 294 293 291 291 290
314 319 317 321 322 323 323 322 322 320 319 318 316 314 311 312 312 311 310 309 307 306 305 304 304 303 303 302 302 300 299 299 298 298 297 296 295 295 293 292 291 291 290
321 324 324 323 323 322 322 322 322 321 319 316 316 316 313 311 311 309 307 307 305 304 304 305 304 301 300 300 301 300 299 299 298 297 296 296 295 294 293 292 291 289 289
322 324 323 322 323 323 323 322 321 320 319 318 317 315 312 310 311 307 306 305 304 303 303 304 304 301 301 300 300 299 298 298 297 296 296 295 295 293 292 292 290 288 287
323 323 324 323 321 322 323 322 321 320 318 317 315 314 310 310 309 307 305 302 302 302 303 304 302 301 300 299 298 297 297 296 296 296 296 295 293 293 292 291 290 288 286
325 324 324 322 321 322 322 322 321 319 318 316 315 312 309 309 308 306 304 303 302 303 301 300 300 300 300 298 297 297 296 296 295 294 294 293 293 293 292 291 290 288 287
325 325 325 324 323 322 322 321 320 319 318 316 314 310 309 309 307 304 303 303 303 302 301 301 300 300 298 297 297 296 296 295 295 294 294 294 294 293 292 291 290 289 288
324 323 324 324 322 322 321 320 319 319 316 316 313 310 308 307 304 302 302 303 301 300 299 299 299 298 298 298 297 296 296 296 296 295 295 294 293 293 292 291 290 289 288
324 324 323 321 324 321 320 320 319 317 315 312 310 308 307 304 302 302 303 300 299 298 298 298 297 297 297 296 296 296 296 297 297 296 295 294 294 292 291 291 290 289 288
322 324 323 323 322 320 319 318 317 316 313 309 307 306 304 302 302 302 300 299 297 297 297 297 296 296 296 296 295 295 295 295 294 294 294 294 294 293 291 290 289 288 288
325 323 322 322 321 320 319 318 315 311 308 307 306 304 303 301 301 298 297 295 295 295 296 295 295 294 294 294 293 293 292 292 292 293 293 293 293 293 291 289 288 289 287
324 323 321 320 319 319 317 314 310 308 306 304 303 301 300 300 298 297 296 295 293 293 293 293 293 293 293 292 292 292 291 291 292 291 292 292 292 291 290 289 288 288 286
322 321 320 319 317 315 312 309 307 305 304 301 299 298 299 298 296 295 295 293 291 292 292 292 292 291 289 287 285 285 286 288 290 291 290 290 291 292 290 288 290 286 286
319 318 316 314 313 311 309 306 304 302 299 298 298 297 296 294 294 294 292 290 289 287 285 284 283 283 282 283 284 285 284 283 281 282 287 290 289 290 290 290 288 287 286
314 312 311 310 308 307 304 302 300 298 298 297 296 295 294 294 292 291 288 285 284 284 283 283 283 282 283 284 285 286 286 285 285 285 286 288 289 289 289 289 287 287 285
311 310 308 305 304 303 300 298 298 297 296 295 295 293 292 291 287 284 284 284 284 283 283 282 281 281 281 281 284 285 285 285 285 285 286 287 289 289 288 287 287 286 285

GFSMA_850_thetae_051.txt.gz
Theta_e
318 319 318 317 318 318 317 315 314 314 314 312 310 308 308 309 310 310 309 308 308 308 312 315 315 314 312 310 310 308 303 301 302 302 301 302 300 300 298 296 295 297 300
318 319 317 315 318 319 319 319 318 316 314 312 309 309 310 312 312 312 310 308 307 307 308 312 313 314 314 312 311 309 304 302 303 303 302 301 300 300 299 296 294 294 293
316 314 313 316 319 320 320 319 320 319 315 312 311 310 311 312 312 312 311 308 307 307 307 306 306 312 313 312 310 309 306 304 304 303 302 299 298 298 297 295 294 293 293
314 314 313 317 319 320 321 321 320 319 315 312 312 311 311 311 311 312 311 309 308 307 307 306 305 305 308 309 307 308 307 305 304 303 300 298 297 296 295 294 293 292 292
315 314 321 321 321 321 321 321 321 320 319 318 317 312 310 310 309 312 312 311 309 308 307 306 305 305 307 307 306 307 307 305 302 301 299 298 297 296 296 294 293 291 291
320 320 321 322 321 322 321 322 321 321 320 319 317 313 311 310 309 310 311 312 311 309 308 306 305 304 304 303 303 304 306 304 301 300 299 298 297 296 295 295 293 292 290
319 321 318 319 322 322 322 322 322 321 321 319 316 313 312 311 310 309 312 312 311 310 309 307 306 304 303 303 302 301 302 304 302 300 299 298 297 296 295 294 292 291 290
316 316 315 315 317 318 322 322 322 322 321 320 316 314 311 311 310 310 311 312 311 310 309 308 305 304 304 303 302 301 300 300 301 300 299 298 297 296 295 293 292 292 291
315 314 314 315 316 316 320 321 322 322 322 322 319 315 311 310 311 311 311 312 311 310 309 308 306 305 304 303 303 302 301 300 300 299 299 298 297 296 295 294 294 292 292
315 315 314 316 318 319 318 320 322 323 322 322 319 317 314 313 311 310 311 311 310 309 309 308 307 306 305 304 303 302 302 300 300 299 299 298 298 297 295 295 294 293 292
315 314 314 317 319 320 319 320 321 322 322 321 321 319 316 313 310 311 311 311 311 312 310 308 307 305 305 304 304 303 302 301 300 299 299 298 298 298 296 295 295 293 293
315 314 313 317 316 316 317 320 321 322 322 322 321 319 318 316 316 313 311 312 311 311 309 308 306 305 304 304 303 303 302 302 301 300 299 299 298 297 297 295 295 293 293
314 314 313 314 315 316 318 322 322 322 322 321 321 319 318 316 316 312 312 311 310 309 307 308 306 303 304 304 302 300 300 301 301 300 299 298 298 297 296 295 294 293 292
314 314 315 316 316 322 323 319 321 322 322 322 321 319 316 315 315 313 312 311 307 306 305 306 305 304 304 303 301 300 299 299 299 298 298 298 297 296 296 295 294 293 292
316 316 317 320 322 322 322 323 323 322 322 321 320 317 316 315 313 312 310 310 309 307 304 304 304 304 304 301 300 299 299 298 297 296 296 296 296 296 296 295 294 293 292
317 321 321 321 323 322 322 322 322 322 322 321 319 317 316 313 313 312 309 309 308 305 302 303 303 303 301 301 300 299 297 297 296 296 296 295 295 294 295 294 293 292 291
322 323 324 322 323 324 323 322 322 321 321 320 319 317 315 315 314 309 309 308 305 303 303 302 302 300 299 299 299 298 298 298 297 296 296 296 296 295 294 294 293 292 291
323 323 323 324 324 324 323 322 322 322 321 319 319 317 315 313 309 309 307 305 303 303 302 301 299 298 298 298 297 296 296 296 296 296 296 296 296 296 296 294 293 292 291
322 322 321 323 324 324 323 323 322 322 320 319 318 316 314 310 309 307 305 303 302 302 302 298 297 297 297 297 296 295 295 294 294 294 294 294 294 294 295 295 294 293 292
325 324 321 323 324 324 321 323 322 320 319 319 316 313 309 308 306 305 302 302 301 302 299 297 295 295 295 294 293 292 291 291 291 291 291 291 292 292 292 292 293 293 292
326 325 323 319 324 323 323 323 320 319 318 316 311 309 307 305 304 302 301 301 299 297 296 294 293 292 291 291 291 291 291 290 288 286 286 286 288 289 289 290 292 292 292
327 327 325 319 322 323 323 322 319 318 316 312 310 307 305 302 301 301 300 299 297 296 294 292 291 291 290 288 286 284 283 283 283 284 284 284 284 285 290 289 289 291 291
326 328 326 325 323 322 321 319 318 315 312 309 306 305 302 301 300 299 299 296 295 294 292 291 289 286 284 283 283 283 283 284 284 284 285 285 285 283 283 284 288 289 289
325 324 324 323 321 320 318 316 313 310 306 305 303 301 300 299 298 297 296 294 294 291 288 285 284 284 283 282 282 281 282 283 284 285 285 285 284 284 285 286 288 288 289
323 322 322 320 318 315 313 311 308 306 304 302 299 298 298 296 295 294 294 291 289 285 284 284 284 283 283 282 281 280 280 282 283 283 284 285 284 285 285 285 288 288 288
322 320 317 314 312 310 308 305 304 302 300 298 298 296 294 293 293 292 289 285 284 284 284 284 283 282 281 281 280 279 279 280 281 282 282 284 285 285 286 287 288 287 287

GFSMA_850_thetae_054.txt.gz
Theta_e
318 318 318 316 314 313 313 314 313 312 312 311 310 309 309 310 310 310 309 308 309 309 315 315 315 314 313 312 310 309 306 303 302 301 301 300 299 298 298 297 295 294 294
318 318 318 317 317 316 316 314 314 313 312 312 308 308 309 312 311 311 310 308 308 309 314 314 314 314 314 312 311 309 307 305 303 302 301 300 298 297 296 296 295 294 293
318 318 318 317 318 318 318 318 318 315 312 312 309 308 310 311 312 312 311 309 308 307 309 313 313 314 314 313 310 308 306 304 304 303 302 300 298 297 297 296 295 294 293
319 319 317 316 319 319 319 319 319 319 316 312 312 310 310 311 311 312 312 311 309 307 307 306 307 310 311 309 309 308 305 305 304 303 301 299 298 297 297 296 295 294 293
319 315 314 316 319 320 320 320 319 319 316 314 314 314 311 311 311 310 312 312 311 309 307 307 306 305 305 305 306 306 307 307 304 303 301 299 299 298 297 296 295 293 292
315 314 314 318 319 320 320 320 321 320 320 319 318 318 314 311 310 310 310 312 312 311 309 308 307 306 305 304 304 304 307 308 306 304 301 300 299 298 297 295 294 293 292
314 315 321 321 321 321 319 321 321 321 321 320 319 318 315 313 311 310 309 310 312 311 310 309 308 306 305 304 303 303 305 307 307 305 303 300 299 298 297 296 294 294 294
316 321 319 319 320 320 320 321 321 322 321 321 319 318 314 313 313 312 311 310 310 311 311 309 309 308 306 305 304 303 303 303 306 305 303 302 299 298 297 296 295 295 294
316 316 317 318 320 318 316 317 320 321 322 322 321 319 314 314 314 314 312 311 310 311 311 310 310 309 307 306 305 304 303 302 301 302 304 303 301 299 298 297 296 295 294
317 317 317 316 316 317 318 318 319 320 321 321 320 321 319 317 315 313 312 312 311 311 311 312 311 310 308 306 305 304 303 302 302 301 300 302 302 301 300 298 298 296 295
316 316 314 314 314 315 316 318 319 319 320 322 322 321 320 318 317 313 312 315 313 311 311 312 310 310 307 306 304 304 303 302 302 301 301 300 300 302 301 300 299 298 297
315 316 315 314 314 314 316 318 320 320 320 321 322 321 321 319 318 317 314 316 316 313 311 312 311 309 307 306 304 304 304 303 302 301 301 300 300 300 301 300 300 299 298
313 316 316 315 315 314 314 318 317 318 319 321 322 322 321 320 319 318 315 315 314 312 312 311 310 307 306 304 303 304 301 300 300 301 300 300 300 299 299 299 299 299 298
313 316 315 316 316 314 313 316 317 319 320 320 321 322 321 321 319 317 315 315 313 311 310 310 308 307 306 304 304 304 302 301 299 299 298 298 298 298 298 298 297 297 297
315 315 316 316 315 314 315 317 320 321 321 319 321 321 321 321 318 315 316 315 314 311 309 308 308 307 305 306 304 303 301 300 300 298 298 297 296 296 296 296 295 296 296
315 315 315 314 314 316 317 321 320 322 322 322 322 322 321 319 318 315 315 313 312 310 308 307 307 305 306 304 303 300 299 299 298 298 298 297 297 296 295 295 295 295 295
315 314 315 316 317 317 322 322 322 322 322 322 322 321 321 319 318 316 314 313 310 309 308 306 304 304 303 303 302 299 298 298 297 296 295 296 296 296 296 296 296 296 295
317 316 315 316 320 321 323 323 322 322 323 322 321 321 320 318 317 315 313 310 308 308 306 303 302 302 302 301 298 298 297 295 293 293 292 292 292 293 294 294 294 295 295
315 315 317 320 321 322 320 320 321 323 323 322 322 321 320 318 318 314 312 309 308 305 304 302 302 301 301 298 294 293 292 290 290 289 288 288 287 287 286 287 289 291 291
316 317 319 321 321 322 322 320 322 323 322 322 321 320 318 318 314 311 309 307 305 303 302 301 301 299 296 293 291 290 289 288 288 288 287 286 286 285 285 284 284 285 288
319 319 321 322 322 323 324 321 321 323 321 322 320 319 318 314 310 308 306 305 303 302 301 299 297 295 293 290 289 287 286 286 286 286 286 285 285 284 284 284 284 284 287
321 322 322 324 325 325 323 321 322 323 322 320 320 318 313 308 307 306 304 302 301 300 299 298 295 293 290 288 285 285 285 284 285 286 284 285 284 284 284 284 284 283 284
323 323 324 325 324 324 323 320 322 323 321 318 317 312 309 307 305 303 302 300 299 299 297 294 293 290 287 284 284 284 284 283 283 284 283 284 283 282 282 285 284 284 285
324 324 326 323 322 324 323 321 321 320 317 314 310 308 307 305 303 301 300 299 297 295 294 292 288 284 284 284 283 282 282 282 282 281 281 281 281 281 282 285 285 286 286
323 323 324 323 322 322 321 321 320 316 311 309 307 304 303 301 300 299 297 296 294 292 289 285 284 284 283 282 281 281 281 280 281 281 281 281 282 281 282 285 285 286 287
321 321 322 321 320 318 317 315 312 311 309 307 304 302 300 298 297 296 294 292 290 286 284 283 283 282 282 281 281 280 280 280 279 281 281 281 282 282 283 285 285 286 287

GFSMA_850_thetae_060.txt.gz
Theta_e
319 321 322 323 324 324 323 322 322 320 318 317 314 315 318 319 320 319 318 315 317 318 316 315 313 312 311 311 309 308 306 305 303 302 301 300 299 299 298 298 297 298 298
318 320 319 320 321 322 323 321 319 318 318 317 315 316 317 318 319 319 318 315 316 317 317 317 316 315 314 312 309 308 307 305 304 303 302 301 300 300 300 299 298 299 298
316 319 319 318 319 319 319 319 318 318 318 317 316 315 315 315 317 318 319 318 313 315 317 317 316 315 315 313 310 308 308 306 305 303 302 301 301 301 301 301 301 300 299
314 314 313 317 317 317 317 317 317 317 316 315 315 315 316 315 314 316 317 318 318 317 312 315 316 315 316 313 310 307 308 306 306 306 304 302 302 302 302 302 302 300 299
314 313 312 314 314 314 316 315 315 315 314 314 314 313 314 314 312 312 312 311 313 316 316 311 309 312 314 312 309 309 310 307 307 307 306 305 303 302 302 301 301 300 299
316 316 314 314 315 318 318 315 315 315 313 313 311 312 312 311 311 311 310 311 311 310 312 315 310 311 308 309 309 310 311 311 310 309 307 306 306 303 301 301 300 299 299
317 318 319 316 319 320 320 318 319 318 316 313 311 313 314 315 313 311 310 310 312 311 311 311 311 315 315 307 307 308 311 312 311 310 309 307 306 305 303 302 301 300 299
317 317 318 318 318 321 320 320 320 319 318 316 316 317 317 315 317 317 316 312 312 311 311 310 311 311 313 316 312 308 306 309 310 311 309 308 307 307 305 304 303 302 301
317 317 318 318 318 319 320 320 320 320 320 318 319 320 320 320 320 317 316 313 314 314 312 311 309 311 310 310 311 312 307 305 304 305 307 307 306 306 306 305 304 303 302
320 320 317 318 318 318 319 320 320 320 320 321 319 320 320 321 320 320 316 316 315 317 317 314 312 310 311 312 312 310 311 308 305 304 303 302 303 305 306 307 306 305 304
317 320 318 318 315 319 320 320 320 319 317 319 321 320 320 320 320 320 318 317 318 318 315 317 316 314 311 311 311 310 308 307 306 307 305 303 303 304 303 305 306 305 305
319 321 317 317 316 319 316 316 317 317 317 318 320 321 320 319 319 319 319 319 319 314 316 316 315 315 314 310 311 311 310 308 307 307 306 305 304 305 305 302 303 305 305
320 319 316 317 318 316 315 316 316 317 316 317 319 320 319 318 319 319 320 320 318 317 317 314 316 316 315 313 312 312 311 310 310 310 307 305 305 306 303 301 301 301 301
317 316 316 317 315 315 315 316 316 318 317 315 315 315 318 318 318 318 320 319 317 318 315 315 314 316 316 314 313 311 309 309 307 305 305 305 304 303 302 301 300 300 300
316 315 316 317 317 316 316 316 316 316 318 318 319 318 319 316 318 320 318 318 319 315 316 314 312 316 315 314 312 310 307 306 306 306 305 303 302 301 301 300 300 299 298
316 315 318 318 317 316 316 316 317 318 318 319 320 320 320 315 317 318 320 318 317 316 315 316 314 314 315 313 311 310 308 307 306 305 303 302 300 299 298 296 295 293 292
319 319 319 319 319 318 318 318 318 318 318 318 320 320 318 315 315 319 320 320 320 319 314 315 314 314 313 313 310 309 307 306 303 303 302 300 298 294 292 291 290 290 289
320 320 320 319 319 319 318 318 318 318 319 319 321 320 316 316 319 321 321 321 320 321 318 315 315 313 311 310 308 307 305 304 304 300 300 293 292 290 289 290 289 289 288
320 321 320 319 319 318 319 319 319 318 317 318 317 317 315 319 321 319 318 318 318 320 318 315 312 312 309 308 306 305 304 302 300 298 293 291 289 289 289 289 289 289 288
319 319 319 318 318 319 318 317 316 315 315 315 314 317 317 319 318 319 318 317 320 319 317 313 312 308 308 306 304 303 299 297 294 291 290 289 289 289 289 289 290 289 288
316 315 316 317 316 316 317 317 318 315 315 316 317 317 316 319 317 320 318 316 317 317 315 311 308 307 306 304 303 300 295 293 291 289 288 289 288 289 289 289 290 289 287
316 316 316 316 317 318 316 316 316 316 317 316 317 319 323 322 321 320 318 317 316 314 314 309 307 306 304 301 298 293 291 290 289 289 288 288 287 288 288 288 288 287 286
319 319 318 318 318 319 319 317 317 317 318 319 321 321 322 322 322 320 316 315 312 309 307 307 306 303 300 297 295 290 288 288 288 288 287 287 287 288 288 287 286 285 284
321 320 321 321 320 320 320 320 320 320 321 321 322 322 321 321 321 320 316 312 308 305 304 303 301 299 297 295 292 286 285 285 285 285 285 286 286 287 287 286 285 285 284
321 321 321 321 322 322 322 323 322 321 320 320 319 318 318 316 313 311 307 304 301 301 300 299 297 296 293 290 285 284 284 284 285 286 285 284 286 286 285 285 286 286 286
322 323 324 323 323 323 322 321 321 320 319 319 317 315 312 308 308 304 303 302 300 299 297 295 294 290 286 284 283 283 282 283 283 284 285 284 285 283 284 285 285 284 287

GFSMA_850_thetae_063.txt.gz
Theta_e
324 324 322 323 321 323 321 320 323 321 320 319 320 321 322 322 321 320 318 317 317 315 318 315 311 309 309 308 308 306 305 304 303 302 302 302 302 302 302 302 302 301 300
324 324 324 325 323 323 323 322 323 321 319 319 320 321 321 321 321 321 319 317 317 317 317 316 314 314 311 309 307 308 307 305 304 303 303 303 303 303 303 302 302 301 301
323 325 325 324 324 324 322 322 322 321 319 319 319 320 320 321 321 321 320 319 317 318 318 317 317 315 315 313 310 308 308 307 305 305 303 303 303 303 303 302 302 301 301
321 323 323 323 323 324 323 321 320 320 319 318 319 319 319 320 320 321 321 320 318 318 317 318 318 316 316 315 311 308 307 307 306 306 306 305 303 303 303 302 302 302 302
320 321 321 321 321 321 321 320 319 319 319 318 318 318 318 318 319 319 319 320 320 319 317 314 315 317 316 316 314 309 307 307 307 307 307 307 307 305 303 302 302 302 302
319 319 319 320 319 318 319 319 319 318 318 317 316 316 317 317 317 316 316 317 317 317 318 318 315 310 313 316 315 310 311 311 311 310 309 308 307 307 306 304 304 303 303
317 316 315 315 316 318 318 318 318 317 316 315 314 315 315 315 315 315 314 314 313 312 312 316 317 316 315 313 309 309 312 313 314 313 311 310 309 307 307 306 305 305 305
315 315 318 314 318 317 318 319 319 320 318 316 314 314 316 316 316 315 314 314 313 314 314 313 314 315 316 318 316 311 310 312 313 312 312 312 310 309 308 307 306 306 305
319 318 319 319 316 321 321 322 321 321 320 318 316 319 319 319 319 317 317 314 314 314 314 314 314 311 311 315 316 317 312 310 308 310 309 309 309 308 308 307 307 307 306
318 318 316 318 319 320 322 323 323 321 321 322 320 319 321 322 321 320 319 317 316 315 316 314 314 313 311 311 314 315 314 314 311 307 305 305 305 305 305 306 306 307 307
317 319 316 317 318 320 321 322 322 321 321 320 321 322 320 320 321 321 321 318 317 317 317 319 317 313 312 313 313 313 313 312 311 309 308 307 305 306 304 303 304 305 306
318 318 320 319 318 318 320 318 319 321 320 319 318 319 321 321 321 321 320 321 320 320 319 319 317 318 313 314 314 313 312 312 311 310 309 307 307 307 305 303 303 305 305
318 318 319 319 319 318 317 317 319 319 319 318 316 316 318 321 321 321 320 319 320 319 319 319 317 317 317 315 314 313 312 312 312 311 310 309 308 308 305 304 304 305 303
316 317 318 317 319 319 317 317 319 316 316 316 316 316 317 318 321 321 320 320 320 319 318 319 317 316 317 315 314 314 314 313 312 311 310 309 308 306 305 305 304 303 302
318 319 318 318 319 319 317 317 318 316 315 315 316 317 317 317 318 319 320 320 320 320 319 317 317 317 316 314 313 315 314 314 312 311 309 308 306 306 305 304 302 301 300
320 320 320 318 319 320 316 317 317 317 316 316 317 317 316 317 318 320 320 320 319 317 319 318 317 316 317 314 313 313 314 313 311 311 308 308 307 306 304 302 300 299 296
319 319 319 320 319 317 316 317 317 318 318 318 318 319 319 319 319 320 321 321 319 317 317 316 317 317 316 313 313 313 312 311 310 310 309 308 306 304 302 300 296 292 291
321 320 320 320 318 316 316 316 317 318 319 319 319 319 319 320 321 320 321 321 319 319 317 316 317 317 316 314 313 313 311 309 308 307 306 306 305 302 297 293 291 290 290
322 321 322 321 320 319 319 319 319 319 320 320 320 320 320 320 320 320 319 318 316 314 319 317 315 315 314 311 311 311 310 306 307 305 305 303 302 297 292 290 290 290 290
322 322 321 322 322 321 321 321 321 321 321 321 321 321 320 321 321 319 318 317 316 317 317 318 316 316 315 312 310 309 306 307 306 302 298 295 293 292 290 289 290 290 290
322 322 322 322 322 321 322 322 321 321 321 321 321 321 321 320 319 317 316 317 318 318 318 317 316 313 312 311 311 310 306 304 300 298 295 293 291 290 290 290 290 290 291
321 322 322 321 321 320 319 319 320 321 321 321 320 320 319 318 316 317 317 319 320 319 318 318 316 315 313 309 308 305 302 301 297 296 291 291 291 290 289 289 289 290 290
322 321 321 321 319 319 318 319 319 319 319 320 320 320 320 319 318 318 320 321 319 316 313 312 311 308 307 305 303 301 298 296 294 291 290 290 289 289 289 289 289 289 289
322 322 321 321 320 320 320 319 319 320 320 319 319 319 320 319 319 321 320 319 318 313 310 308 306 303 302 302 300 298 295 290 290 289 288 287 288 289 288 288 288 288 288
322 322 322 322 322 322 322 321 321 321 321 320 320 320 320 320 319 318 317 314 311 306 301 300 300 301 300 299 296 294 290 287 286 287 287 287 287 287 287 287 288 287 286
323 323 323 323 323 322 321 322 322 322 321 321 320 320 318 316 314 312 309 306 305 300 299 298 297 296 295 293 288 286 285 284 285 286 287 286 286 286 286 286 286 286 286

GFSMA_850_thetae_066.txt.gz
Theta_e
327 325 321 316 317 317 314 312 318 318 316 320 322 321 322 322 321 317 315 317 317 316 314 308 307 308 307 307 306 305 305 304 303 303 303 304 304 304 305 304 303 302 301
326 324 319 317 318 318 314 321 322 319 319 320 320 322 322 321 321 318 314 315 313 314 315 312 309 308 308 308 307 307 307 305 305 304 304 304 304 304 304 303 303 303 303
324 324 320 318 320 319 316 323 323 320 320 320 321 321 322 322 321 320 316 314 317 317 317 316 315 314 311 309 308 307 308 307 306 305 305 304 304 304 304 304 304 304 303
320 323 322 321 322 322 320 322 322 321 319 319 320 321 321 322 322 321 320 317 315 317 318 318 318 317 315 315 311 308 307 307 307 307 306 306 305 305 305 304 304 304 304
320 323 323 322 323 324 322 323 322 320 319 319 319 319 320 321 321 321 321 321 319 316 315 315 318 318 317 316 316 313 309 307 307 308 307 308 308 307 307 306 305 304 303
323 323 323 323 323 324 323 321 320 320 320 319 318 319 319 319 319 320 320 321 320 319 319 319 315 313 314 315 317 317 315 314 310 309 310 309 309 308 307 307 306 305 305
315 320 321 322 322 322 322 321 319 319 319 318 318 318 318 318 317 318 318 317 318 319 319 319 318 317 315 310 311 313 315 315 314 313 312 312 311 310 309 309 308 307 306
316 321 321 321 321 320 320 320 319 318 317 317 316 316 316 316 316 316 315 314 315 314 312 316 316 315 315 315 317 317 314 311 315 315 314 313 312 311 311 309 309 308 307
316 318 319 317 317 317 317 318 317 316 316 316 315 315 315 316 316 315 315 315 314 313 314 314 314 314 315 317 316 317 316 316 312 313 313 314 312 310 310 309 308 308 307
315 318 316 315 314 315 318 316 315 317 319 318 316 314 318 320 320 319 317 316 315 314 314 314 314 315 316 315 312 314 315 316 315 313 310 310 311 310 309 308 308 308 308
317 316 316 317 316 314 317 321 320 320 321 321 320 316 318 321 321 321 319 318 317 315 316 317 316 317 318 317 318 316 313 313 314 313 313 312 308 307 307 306 306 307 306
316 316 320 319 318 316 320 318 318 320 320 321 320 319 318 319 319 319 320 320 319 318 319 319 319 319 319 318 317 318 317 314 314 313 313 312 311 308 306 305 305 305 304
318 318 318 318 318 318 316 318 317 317 320 320 319 319 318 317 318 319 320 321 320 321 320 318 317 317 318 318 317 318 315 315 314 314 312 312 311 309 308 306 306 306 304
317 317 317 317 317 317 317 318 319 317 318 317 319 318 318 317 316 316 319 320 320 320 320 319 317 315 316 318 317 317 317 316 316 314 313 311 311 309 309 307 307 306 304
318 318 317 316 316 318 318 318 318 317 316 318 319 318 317 316 316 316 317 318 318 320 319 318 318 318 317 318 317 316 317 316 315 316 314 312 311 310 310 308 306 306 306
319 318 317 317 316 318 319 318 319 318 317 317 318 316 315 316 316 316 317 316 317 318 320 320 319 319 318 317 317 317 316 317 316 315 314 312 311 310 309 308 308 306 304
321 319 318 318 319 319 319 318 317 319 318 317 317 317 317 318 317 316 317 317 316 318 319 320 319 319 318 317 317 317 317 317 315 314 313 312 310 308 307 308 306 305 302
322 321 318 319 319 319 319 319 318 318 320 318 317 317 318 317 318 317 317 318 318 319 319 319 319 320 318 315 316 317 317 316 316 312 312 310 307 306 308 306 305 303 300
323 321 321 321 320 320 319 318 318 319 319 319 318 319 319 319 319 319 320 320 320 320 320 319 319 319 317 315 316 317 316 316 314 312 306 306 306 305 305 304 303 299 293
324 323 322 322 321 320 319 320 318 319 319 317 316 318 319 320 320 321 321 321 321 321 321 320 320 318 316 316 316 316 315 315 313 310 307 305 303 301 300 300 298 293 290
324 323 323 323 322 322 322 322 321 320 320 320 319 319 320 320 321 321 321 321 322 322 322 320 318 317 316 315 315 316 314 312 307 306 303 301 298 298 296 293 291 290 289
325 324 324 324 324 322 323 323 322 322 322 322 322 322 322 322 322 321 322 322 322 321 320 318 317 315 316 315 313 312 310 305 303 302 300 299 300 296 292 291 290 289 290
325 325 324 325 324 324 323 322 322 323 323 323 323 323 323 322 322 322 321 320 320 320 320 319 318 317 314 311 310 307 305 303 301 300 299 298 293 291 291 290 289 289 290
325 325 324 324 324 324 324 324 324 323 323 322 322 321 321 321 321 321 320 320 320 320 319 316 313 312 310 307 305 303 302 300 298 297 295 293 291 291 289 288 289 289 289
325 325 325 324 324 323 323 323 322 322 321 321 321 320 319 319 320 320 321 320 318 314 311 310 306 305 303 301 299 298 298 297 294 292 290 288 287 287 289 289 289 288 288
325 325 325 324 323 323 322 322 321 322 321 321 321 321 320 320 320 319 317 313 310 306 302 299 299 298 296 295 295 294 291 290 288 287 286 286 287 287 287 288 288 287 287

GFSMA_850_thetae_069.txt.gz
Theta_e
321 324 312 309 310 310 309 308 309 314 321 322 322 323 322 321 321 318 310 311 312 309 307 306 306 306 306 306 305 304 304 303 303 303 304 305 305 305 305 304 303 303 303
320 325 312 312 313 312 310 308 308 318 321 321 321 322 322 321 321 319 311 310 312 310 307 307 307 307 307 307 306 306 305 304 304 304 304 305 305 305 305 304 304 304 304
326 325 314 314 315 313 310 313 311 314 320 321 320 322 322 321 321 318 311 311 312 309 308 308 308 308 308 307 307 308 308 306 306 305 305 304 304 305 304 304 304 304 304
325 324 317 316 316 313 319 320 319 319 320 320 322 322 322 321 321 320 319 312 311 313 314 313 313 313 312 311 309 308 308 308 308 307 306 306 305 305 305 305 304 304 305
323 322 318 317 317 316 323 323 321 320 319 319 321 321 322 321 321 321 320 317 316 314 315 317 316 316 316 316 316 313 310 308 308 308 307 307 307 307 307 307 306 306 306
321 319 320 318 318 317 320 323 321 320 319 319 319 320 320 321 321 321 320 320 319 319 316 314 315 313 314 316 316 316 314 312 311 310 309 309 308 308 308 307 307 307 307
319 320 322 320 320 321 320 323 322 320 319 319 319 319 320 319 320 320 321 320 320 319 318 317 318 316 316 315 312 313 314 315 314 312 313 311 311 311 311 310 309 309 308
319 323 322 322 322 322 322 322 321 320 320 319 319 319 319 319 319 318 318 319 320 319 318 318 317 316 316 316 314 312 314 315 316 315 314 314 314 313 313 311 311 309 309
322 323 321 321 322 322 321 320 320 320 319 318 318 319 317 317 317 317 317 317 316 316 318 318 316 315 314 314 313 314 315 315 316 315 314 314 315 314 314 312 311 310 309
322 322 321 320 321 320 321 321 320 319 318 318 317 316 316 315 316 316 315 315 314 314 314 314 313 313 314 314 315 315 315 314 314 313 315 315 313 313 314 313 311 310 310
318 320 321 321 320 319 320 320 319 318 318 315 314 316 315 315 320 320 319 318 315 315 315 314 315 315 315 316 317 317 317 315 314 313 314 315 314 313 312 311 311 310 310
317 317 320 320 318 315 314 314 316 316 315 316 315 316 315 315 318 320 320 320 319 319 318 317 316 316 317 317 317 318 319 318 316 313 312 313 314 313 313 312 310 309 308
316 315 316 316 315 315 315 317 316 316 319 319 319 321 320 318 316 318 319 318 320 320 319 319 319 319 319 318 317 318 318 318 317 316 316 314 314 313 313 312 311 309 307
315 315 315 316 317 315 317 315 317 318 319 317 317 320 320 319 318 318 318 317 319 320 320 320 318 320 319 317 317 316 317 318 318 317 316 316 315 314 313 312 311 310 308
317 317 316 316 316 317 319 319 317 318 318 316 317 316 317 320 318 317 318 317 316 317 318 317 318 318 318 317 318 318 317 316 317 317 316 316 315 315 315 312 311 310 308
317 317 316 316 317 319 319 318 317 317 318 317 317 317 317 317 318 318 318 317 317 317 317 317 317 317 316 316 317 319 319 317 316 316 316 317 315 315 314 313 311 310 308
319 318 317 316 316 317 317 316 316 316 317 318 318 318 317 316 318 319 317 316 316 317 317 317 317 317 317 316 317 318 318 318 316 315 316 317 316 313 313 311 310 308 305
321 321 318 318 318 318 317 317 317 316 317 318 318 318 318 318 317 317 317 317 317 317 318 318 317 317 317 318 319 319 318 319 318 315 316 316 316 313 312 312 310 305 304
321 321 320 320 319 319 319 318 318 317 317 319 318 317 317 318 318 317 317 317 317 318 318 318 318 319 319 319 319 319 319 319 318 316 316 317 316 313 312 311 308 304 303
322 321 322 322 321 321 319 319 319 318 318 319 318 318 317 317 318 319 318 318 318 319 319 319 320 320 320 320 320 319 318 317 317 316 315 316 315 311 308 305 305 304 302
323 323 322 322 322 322 321 320 319 320 319 320 320 319 318 319 319 319 319 319 319 319 320 320 321 321 320 320 319 319 318 316 314 312 310 310 308 306 304 301 300 300 300
322 323 323 323 322 323 322 321 321 321 321 320 320 320 320 319 319 319 318 318 318 319 320 321 321 321 320 319 320 319 317 315 310 309 306 304 304 303 303 301 300 300 296
324 323 324 323 323 323 323 323 322 321 321 321 322 321 321 321 321 321 321 321 321 321 321 321 321 321 319 318 316 316 315 312 309 306 304 301 301 301 300 298 297 294 291
326 326 325 325 325 324 324 323 323 323 322 322 322 322 321 321 321 322 322 323 322 322 322 322 321 321 320 315 313 311 308 306 303 302 300 299 299 297 296 294 291 289 289
326 326 325 326 325 325 325 324 323 324 323 323 323 322 322 322 322 322 322 321 320 321 321 320 317 313 310 309 308 305 303 301 298 296 294 294 293 293 294 292 288 288 289
326 326 326 326 326 325 325 325 324 324 324 323 323 323 322 322 321 320 320 320 320 316 308 306 304 302 302 302 299 299 297 296 296 293 293 293 291 289 288 289 289 287 287

GFSMA_850_thetae_072.txt.gz
Theta_e
325 328 321 314 310 309 309 311 319 321 321 320 322 321 321 320 320 318 309 308 308 307 306 305 305 304 304 303 302 302 302 303 303 304 304 304 304 305 304 303 303 302 302
327 326 317 311 309 308 308 312 319 321 321 321 323 321 321 321 320 319 310 309 308 307 306 306 306 306 306 306 305 305 304 304 303 304 304 305 305 305 305 304 304 304 303
327 320 312 308 308 307 308 312 319 320 321 322 322 322 322 322 320 320 312 309 309 308 306 306 307 307 307 307 306 306 306 305 304 305 305 305 305 306 306 305 305 304 304
322 321 310 308 309 309 308 309 316 320 321 321 321 321 321 321 320 319 311 310 309 308 307 307 308 308 308 308 308 308 308 307 307 307 306 306 306 306 306 306 306 306 306
320 322 312 310 311 310 308 308 319 320 319 320 321 321 321 320 320 320 319 311 309 309 309 310 310 310 311 311 311 310 309 309 309 309 309 308 307 308 307 307 307 306 307
323 324 313 313 313 310 310 309 317 317 318 318 321 321 321 321 321 320 320 316 317 313 314 315 315 315 315 315 315 314 314 313 312 311 310 309 309 309 309 308 308 308 309
325 326 317 315 315 311 318 319 319 319 319 319 321 320 321 321 321 321 320 319 320 318 318 314 314 314 313 313 313 313 312 314 314 313 312 312 311 311 311 311 311 310 310
325 325 321 315 316 315 321 323 321 319 319 319 319 320 320 320 320 320 320 320 320 320 318 317 316 315 314 314 314 314 313 313 317 316 315 314 313 313 313 313 312 311 311
323 320 322 316 318 317 321 322 322 320 319 319 319 319 319 320 320 320 320 319 318 319 318 318 316 316 314 315 315 315 314 314 314 317 317 317 315 314 314 314 314 313 312
321 320 321 319 319 320 319 321 323 321 319 319 319 319 318 319 319 318 318 318 317 318 317 316 314 315 315 314 314 313 314 314 314 315 315 316 317 316 315 314 313 314 313
322 320 322 322 321 321 321 322 322 321 320 320 319 318 319 317 314 316 316 316 317 316 316 315 314 314 314 313 314 316 316 317 316 315 315 314 314 315 315 315 314 313 312
323 321 323 323 323 322 321 321 321 319 319 319 318 317 316 317 314 317 318 319 319 319 317 316 316 315 315 316 317 317 317 317 317 317 316 315 314 313 314 315 315 314 313
322 320 322 322 321 321 319 319 319 318 318 319 318 316 315 315 315 315 316 318 319 320 319 318 319 319 318 318 318 317 318 317 317 317 316 316 316 315 314 313 314 314 314
322 320 321 320 320 320 318 318 318 318 318 318 318 316 315 316 316 317 317 319 319 319 318 318 317 318 319 318 318 318 318 317 317 317 317 317 317 318 317 316 313 314 314
321 321 320 318 320 320 319 316 314 314 317 316 315 316 318 317 316 317 320 319 318 319 318 318 317 316 316 317 317 317 318 318 316 317 318 316 316 316 316 316 316 314 314
320 320 319 318 316 317 316 316 315 316 316 316 318 319 319 318 317 317 317 317 317 317 318 318 317 317 316 316 316 316 317 317 317 316 318 318 318 316 316 316 316 316 315
320 318 317 316 316 315 316 316 317 316 317 316 317 318 318 316 316 317 318 318 318 317 317 317 318 316 316 316 316 316 317 317 317 317 318 318 318 318 316 316 316 316 314
321 321 320 317 316 316 316 316 316 316 318 319 318 317 317 317 317 318 317 317 316 317 318 318 318 316 316 316 316 317 317 317 318 319 319 319 318 318 318 317 316 316 314
320 320 320 319 317 318 317 316 316 318 318 318 318 317 316 317 317 318 318 318 318 317 317 317 317 317 317 317 317 318 318 318 319 318 319 319 318 317 317 316 315 314 313
319 320 320 320 320 320 318 318 317 316 317 317 317 317 317 317 316 317 318 318 317 317 317 318 318 318 318 318 318 317 319 318 318 320 319 319 318 316 315 314 311 310 308
320 320 320 320 320 320 320 320 319 318 318 318 318 318 318 318 318 317 318 319 318 317 317 318 318 318 319 319 318 319 320 320 320 319 319 319 318 316 314 310 308 307 306
322 320 319 319 320 321 321 321 321 321 320 320 319 320 319 319 319 318 319 319 319 319 319 319 319 319 319 319 319 319 319 319 319 317 317 314 312 311 309 306 306 304 301
324 324 323 321 320 322 322 322 322 321 320 319 319 319 320 320 321 320 320 320 320 320 319 319 319 319 319 320 320 320 319 320 319 316 312 310 307 305 303 302 301 299 299
325 325 325 324 323 324 323 322 322 322 322 321 321 321 320 320 320 320 320 321 321 320 320 320 320 320 319 318 319 319 318 315 314 309 307 303 302 301 300 299 297 296 295
324 325 325 325 325 325 324 324 324 324 324 324 323 323 322 322 322 322 321 321 321 321 321 321 320 320 321 319 317 313 310 308 306 301 300 299 297 296 295 294 294 293 292
323 324 324 324 324 324 325 325 325 325 324 324 324 323 323 322 321 321 321 321 321 320 317 313 311 310 305 303 302 301 302 301 300 294 294 295 294 294 293 293 292 290 288

GFSMA_850_thetae_075.txt.gz
Theta_e
324 325 325 328 323 323 323 322 322 321 321 322 321 320 320 320 319 310 309 315 316 314 311 312 306 304 303 302 302 302 302 303 303 304 304 304 304 304 304 304 304 304 303
324 327 325 327 320 322 322 321 321 321 321 321 321 320 320 320 319 317 310 311 311 311 307 309 305 304 303 303 303 303 303 303 303 304 304 305 305 305 305 305 305 304 304
327 327 326 327 318 319 318 321 320 321 321 321 321 321 321 320 320 319 312 309 309 309 307 305 305 305 306 306 305 305 304 304 304 304 305 306 306 306 306 306 305 305 305
325 326 328 325 316 314 314 314 320 320 320 321 322 321 321 321 320 319 315 311 310 308 306 306 306 306 307 307 306 306 306 306 307 307 307 307 307 307 306 306 306 306 306
327 326 326 319 311 311 311 314 320 320 320 322 322 322 321 321 320 319 313 311 310 309 307 307 307 308 308 308 308 308 308 308 308 309 309 308 307 307 307 307 307 307 307
327 326 325 317 310 310 310 317 320 320 320 321 321 321 321 321 320 320 317 314 310 309 308 307 308 309 309 311 312 312 312 310 309 309 309 310 309 308 308 308 308 308 308
326 325 320 313 309 308 309 317 319 320 321 321 320 321 321 320 320 320 320 318 315 313 313 314 314 314 314 314 314 314 314 313 313 313 312 312 310 310 309 309 310 309 310
322 319 320 309 309 309 308 310 317 320 319 319 320 321 320 320 320 320 320 320 320 319 318 317 314 313 313 314 313 313 314 314 318 318 316 316 314 313 312 311 311 311 311
325 320 321 310 311 310 308 308 317 319 318 318 320 321 320 321 321 320 321 320 320 320 319 319 318 316 315 314 314 314 314 315 315 317 317 318 318 317 317 315 314 314 314
325 322 324 313 313 311 310 310 314 316 316 318 319 320 321 319 320 320 320 320 319 314 314 318 318 317 317 315 314 313 314 314 314 315 315 314 316 316 316 316 316 315 314
326 324 325 317 315 315 314 320 322 321 320 319 319 318 319 318 318 318 319 318 315 312 315 317 317 316 316 314 313 314 313 314 314 315 315 315 315 315 315 315 314 314 315
326 326 324 321 317 317 317 319 322 321 322 320 319 318 318 318 318 317 314 315 315 314 315 316 316 316 316 315 316 316 316 316 316 316 316 316 316 315 315 315 315 314 314
324 323 321 320 320 318 318 319 319 320 322 320 319 319 319 319 318 318 315 315 315 317 318 319 319 318 318 318 318 318 318 318 317 318 317 317 317 316 316 316 316 315 316
322 322 322 320 320 322 320 320 320 320 321 320 320 318 318 318 318 317 315 315 316 317 317 317 317 318 318 318 317 317 318 317 317 317 317 317 317 317 317 317 317 316 316
321 323 323 321 321 322 321 321 321 320 319 320 318 318 317 316 316 315 315 315 315 316 318 318 317 318 317 317 318 317 316 316 316 316 316 318 318 316 316 318 317 317 316
321 322 322 321 321 321 321 321 321 318 318 318 317 317 317 316 316 315 315 317 317 317 318 318 318 317 317 317 317 317 317 316 316 316 316 316 317 317 317 318 318 318 317
321 321 322 321 320 320 320 320 319 317 317 317 317 318 318 317 316 316 316 317 317 317 317 317 316 317 317 317 317 317 317 316 316 316 316 316 317 317 317 318 318 317 318
321 321 321 321 320 320 319 320 320 319 318 317 316 315 315 315 315 316 317 318 317 317 316 317 317 317 317 317 317 317 317 317 316 317 317 317 317 318 318 319 319 319 317
320 320 320 320 319 319 319 318 317 317 316 316 316 316 316 317 316 316 317 317 317 317 317 318 317 318 318 317 317 317 317 317 318 318 317 316 318 317 318 319 319 319 318
320 320 320 320 320 320 320 319 318 317 316 316 317 316 317 317 318 318 319 318 317 317 317 317 318 317 317 317 317 316 315 317 317 318 318 318 319 319 319 319 319 319 318
320 319 319 319 319 319 319 319 319 319 318 317 317 317 316 316 317 318 317 317 317 317 317 317 317 317 317 317 317 316 317 318 317 317 318 318 318 318 318 319 318 318 316
322 321 321 320 320 319 319 319 319 319 319 319 319 320 319 319 318 318 318 318 318 318 317 317 317 317 317 317 318 318 318 317 317 317 317 318 317 317 317 317 316 315 312
323 323 323 322 321 321 321 320 319 319 318 319 319 319 319 319 319 320 320 319 319 319 319 319 318 318 318 319 318 318 318 318 318 318 317 318 316 316 315 313 311 308 304
321 321 321 323 323 323 321 321 321 321 320 321 320 320 321 319 319 320 319 319 319 319 319 319 319 319 319 319 318 318 319 318 317 316 315 311 309 306 304 303 301 300 299
320 321 321 321 321 321 322 322 322 322 321 322 322 320 320 320 320 320 320 321 321 320 319 319 319 319 317 317 317 315 312 311 309 307 304 303 299 298 295 295 294 294 294
314 315 318 319 320 320 321 322 323 323 322 320 320 321 319 319 320 320 320 320 318 317 316 311 310 307 298 301 301 302 302 301 300 297 295 295 294 294 293 292 291 291 291

GFSMA_850_thetae_078.txt.gz
Theta_e
325 325 325 325 325 326 324 324 325 325 323 322 321 320 315 310 309 310 310 310 319 319 319 318 311 307 304 303 302 302 303 303 303 303 304 304 304 304 305 305 304 304 304
327 326 325 325 324 325 324 324 325 323 321 321 321 320 318 318 315 309 309 311 314 317 320 319 313 306 303 303 302 302 303 303 303 304 304 305 305 306 306 306 305 305 304
325 325 325 326 325 326 324 324 323 321 321 321 321 320 320 320 318 315 311 310 313 315 317 317 312 307 304 303 302 303 303 303 304 304 304 305 306 306 306 306 305 305 305
326 325 325 325 325 326 325 323 322 321 321 321 321 320 320 320 319 317 313 311 311 313 310 314 311 306 305 305 305 305 304 304 304 304 305 306 306 306 306 306 306 305 305
327 326 326 326 325 326 324 323 321 321 321 321 321 321 321 320 320 319 316 313 312 310 308 306 306 306 306 307 307 306 306 307 307 307 307 307 306 306 307 307 306 307 307
325 327 326 326 325 324 323 323 320 320 321 320 321 321 321 320 320 319 317 313 312 311 310 307 306 307 307 308 308 308 308 308 308 309 308 308 308 307 307 308 307 308 307
325 325 325 326 326 324 321 322 320 319 320 320 322 321 320 320 319 319 317 316 313 311 310 309 308 308 308 308 310 312 313 314 313 312 311 310 310 309 309 309 309 309 310
324 325 325 325 326 322 319 320 318 319 319 321 322 321 320 319 318 319 319 319 316 314 313 312 312 313 313 314 314 314 314 314 316 315 314 315 314 313 312 312 311 311 311
325 325 326 326 324 317 313 313 317 319 319 321 321 321 320 320 319 319 319 320 320 319 319 318 318 317 315 314 314 314 315 314 315 317 318 318 318 317 318 317 317 316 314
322 321 319 318 321 312 312 312 318 320 319 320 321 321 320 320 320 320 320 320 320 319 319 316 314 315 317 317 316 315 315 315 315 315 315 315 315 315 315 316 316 316 315
324 322 318 318 319 310 310 309 317 319 319 320 320 320 320 320 319 319 320 320 319 319 319 312 311 312 316 316 316 315 314 314 314 314 314 315 315 315 315 315 316 316 316
325 324 324 320 317 310 311 309 311 311 319 319 318 316 318 320 320 318 318 317 316 316 312 312 314 314 316 316 316 315 315 315 315 315 315 315 315 315 315 315 315 315 315
325 324 325 322 321 315 313 310 309 310 317 317 317 318 319 319 320 319 318 317 314 314 315 314 314 315 317 318 317 318 317 317 317 317 317 317 317 317 316 317 316 316 315
323 323 325 324 324 316 314 315 314 317 319 319 319 318 319 319 319 318 318 318 317 315 315 315 314 315 315 316 316 318 318 317 317 318 318 317 317 317 317 317 317 317 316
321 324 323 323 322 321 319 317 315 316 318 319 320 319 320 319 318 318 317 318 318 316 315 315 315 315 315 316 316 317 317 317 317 317 317 316 316 315 316 316 317 318 317
321 321 322 322 322 321 320 320 318 317 319 318 319 318 319 318 318 317 318 317 316 316 315 315 315 317 317 317 317 317 316 317 317 317 317 317 317 316 316 316 316 316 318
321 321 320 321 323 322 321 321 322 321 320 320 320 320 319 319 319 317 317 317 315 315 315 316 316 316 316 317 316 317 317 317 317 317 317 317 317 317 317 316 316 316 317
320 320 319 320 321 322 321 321 321 321 321 321 321 318 318 317 317 316 316 317 317 317 317 317 315 316 316 317 316 316 316 317 317 317 317 317 317 316 317 317 317 317 317
319 320 320 320 320 321 321 320 320 320 320 320 319 318 318 317 316 317 318 318 317 315 314 315 315 317 318 317 317 317 316 317 317 317 317 317 317 315 317 318 317 317 318
319 319 319 320 320 320 320 319 319 319 319 319 319 318 318 318 317 317 317 317 316 317 317 317 318 318 318 318 317 317 317 317 316 317 317 318 318 317 317 318 318 318 319
322 321 320 319 319 319 319 319 319 319 319 319 319 319 318 318 317 317 317 317 318 318 318 318 318 317 317 317 317 317 316 317 317 317 318 318 317 317 317 317 318 317 317
321 321 322 322 322 320 320 319 319 319 318 318 318 319 319 319 319 319 319 318 318 318 318 317 317 317 317 317 317 317 317 317 317 317 317 317 316 316 317 317 318 317 317
319 319 320 321 322 321 321 321 321 321 320 319 319 319 318 318 318 318 318 318 319 319 319 319 318 318 318 317 317 317 317 317 317 317 317 317 317 317 316 316 315 314 313
320 320 319 320 320 320 320 320 321 321 321 321 321 320 318 318 318 318 318 319 319 320 319 319 319 317 316 316 316 316 317 317 317 317 316 314 312 309 308 306 302 301 299
315 317 317 318 318 319 319 320 320 320 320 319 318 317 318 318 318 318 318 318 316 316 316 318 318 315 313 314 315 313 312 311 309 306 304 301 300 299 297 296 295 293 293
311 311 311 311 311 311 312 315 316 316 316 316 314 312 311 311 312 316 314 315 313 310 308 304 301 301 301 300 300 300 301 299 299 297 295 295 294 293 292 291 291 291 291

GFSMA_850_thetae_084.txt.gz
Theta_e
330 328 327 327 325 325 327 328 328 328 329 328 329 327 326 324 323 321 321 320 321 320 320 319 318 317 314 311 307 304 303 303 303 303 303 303 303 303 303 303 303 303 303
328 327 327 327 325 326 328 328 327 328 327 328 327 326 324 323 322 320 320 320 320 319 320 320 319 317 310 307 304 303 303 303 303 304 304 304 304 304 304 305 304 304 304
327 327 326 327 326 326 327 327 326 326 327 327 326 325 324 321 320 319 320 319 319 319 319 319 318 318 312 305 303 303 303 304 303 303 304 304 305 305 305 305 305 305 305
329 325 326 328 326 327 327 325 327 327 326 326 326 324 322 320 319 319 319 320 320 320 319 319 318 318 315 308 303 303 303 303 303 303 304 304 305 305 305 306 306 305 305
328 327 328 328 327 326 327 324 326 326 325 325 324 323 322 321 321 320 319 320 319 319 319 318 318 318 313 309 303 303 303 303 303 303 303 304 305 306 306 306 306 306 306
327 327 327 327 327 327 326 324 325 325 325 324 323 323 322 322 321 321 320 319 319 319 319 319 317 315 312 309 305 305 305 305 305 305 305 306 307 307 307 307 307 307 307
327 327 327 327 326 327 326 324 321 324 324 324 323 322 322 322 321 322 320 320 319 319 318 319 318 317 312 306 307 307 307 308 308 308 309 309 309 309 309 309 308 308 308
325 325 326 326 327 326 326 323 317 324 324 323 323 322 321 321 320 320 321 322 320 319 318 318 318 318 317 311 308 308 309 311 313 313 313 313 312 311 311 310 310 310 310
325 325 324 325 326 326 325 324 324 324 324 323 323 322 321 321 322 321 321 321 321 319 318 318 318 318 317 317 310 310 311 313 313 313 313 314 315 316 316 316 316 315 315
325 325 326 324 325 325 326 325 325 324 323 323 323 322 321 320 321 322 322 321 321 319 319 318 317 317 314 316 317 317 312 312 313 313 314 314 314 315 316 317 317 317 317
324 324 324 326 325 326 325 325 325 324 323 322 323 323 323 323 322 321 321 321 322 321 321 319 319 319 316 317 318 317 314 312 314 315 316 316 315 315 315 315 315 316 316
323 323 324 324 325 324 325 324 325 324 323 323 322 322 322 322 322 322 321 321 320 321 321 321 320 318 319 320 316 316 312 314 315 316 317 318 317 317 316 316 316 316 315
323 323 323 322 324 324 325 325 324 322 323 322 321 321 321 322 321 321 320 319 319 320 320 321 321 316 314 315 314 312 312 313 316 316 317 317 317 317 317 316 316 315 315
324 323 322 323 324 324 324 323 318 318 323 323 322 320 319 319 320 320 315 318 318 319 319 321 320 318 317 314 314 312 314 314 314 314 314 315 315 316 317 317 317 316 316
323 323 323 322 320 323 322 320 316 310 311 318 320 319 316 318 320 320 316 316 315 316 317 318 318 317 316 317 313 315 315 314 315 314 314 315 315 316 316 317 317 317 317
320 321 323 322 322 318 319 319 314 312 312 312 311 316 318 319 318 319 319 318 318 315 317 317 317 318 317 316 315 314 315 315 314 314 316 316 317 316 316 317 317 316 316
320 321 322 323 322 321 318 317 313 315 311 311 312 313 312 316 317 318 318 318 316 315 315 318 317 317 317 317 316 317 316 315 315 315 316 316 316 316 316 316 317 317 317
320 321 321 322 322 322 321 320 318 315 314 311 310 310 311 313 315 313 315 316 317 317 318 318 318 318 318 318 317 317 317 316 316 316 316 315 316 316 316 316 317 317 317
320 319 320 320 320 321 321 322 322 321 321 317 315 316 314 311 312 314 314 315 317 318 319 319 318 318 318 317 317 316 317 317 317 316 316 316 317 317 318 318 318 318 318
319 319 319 319 319 319 320 321 321 321 321 320 321 321 321 320 320 319 319 319 319 320 319 318 318 318 318 318 318 318 318 318 318 318 318 318 318 318 318 319 319 319 318
319 319 319 318 318 319 320 320 320 320 321 321 321 321 321 320 320 320 320 319 319 319 319 319 319 319 318 319 319 318 319 318 319 318 318 318 318 318 319 318 318 317 318
320 320 320 319 319 319 319 319 320 320 320 319 319 319 319 319 319 319 318 318 318 319 319 319 320 319 318 318 318 318 318 318 318 318 317 317 317 318 318 318 318 318 318
320 320 320 320 320 319 319 320 320 319 319 318 319 319 319 319 318 318 318 318 318 318 318 318 318 318 317 317 317 317 316 316 316 315 314 313 315 313 311 310 310 310 311
317 317 317 317 318 318 319 319 319 319 318 318 317 317 317 317 317 317 317 317 317 316 316 316 315 314 314 312 312 312 310 310 310 308 307 308 307 306 305 304 304 304 304
312 312 312 312 312 313 314 315 316 316 316 314 313 313 313 312 312 311 312 312 312 311 310 309 307 307 303 303 302 303 303 302 301 301 300 299 298 297 296 295 295 294 293
307 306 306 306 306 308 308 309 309 309 309 307 306 305 304 304 304 304 305 305 303 301 298 298 298 298 298 298 297 298 298 297 297 295 295 294 293 292 291 291 291 291 290

GFSMA_850_thetae_087.txt.gz
Theta_e
332 332 331 330 329 326 326 325 326 326 329 329 329 330 327 327 325 325 324 322 322 321 320 319 316 315 311 309 311 307 305 304 303 303 303 302 302 302 302 302 303 303 303
332 332 331 330 328 328 326 325 325 328 328 328 328 327 326 325 324 323 323 320 321 321 320 320 320 319 318 313 310 305 303 303 303 303 303 303 303 303 304 303 304 304 303
331 331 331 329 328 328 325 326 325 328 327 327 327 326 325 324 323 322 323 321 320 319 318 319 319 319 316 311 305 303 303 303 304 304 304 304 303 303 304 304 304 305 304
330 330 330 328 328 328 326 326 326 326 326 328 326 325 324 323 322 321 321 321 320 319 319 319 319 318 318 315 306 304 303 304 304 304 304 304 304 304 305 305 305 305 305
330 330 329 328 327 327 326 326 328 324 326 326 324 324 323 321 321 320 321 321 320 320 320 319 318 318 318 317 310 303 303 303 303 304 304 304 304 305 306 306 306 306 306
329 330 330 328 326 327 327 327 323 323 324 324 323 323 322 322 321 320 320 321 321 320 320 320 318 317 317 315 307 303 303 303 304 304 304 305 305 306 306 307 307 307 307
328 329 328 328 328 328 327 327 326 323 326 324 324 322 322 321 322 321 321 320 321 320 320 322 320 318 311 306 305 304 305 305 305 306 307 307 308 308 309 308 308 308 308
328 329 327 327 328 328 327 327 325 324 323 323 323 321 322 321 322 321 320 320 321 320 320 321 321 318 318 312 306 306 307 307 309 309 310 310 310 310 310 310 310 310 310
328 327 326 326 328 328 327 327 325 323 322 323 323 322 322 321 322 321 322 321 320 320 320 320 319 319 319 319 317 308 308 309 311 313 313 313 313 313 314 314 313 313 313
327 326 326 326 326 326 327 326 325 323 320 323 322 322 321 320 322 324 323 321 321 320 320 320 319 319 319 319 319 318 313 309 311 313 312 312 312 313 314 317 318 318 318
325 325 325 325 325 325 325 324 325 322 319 323 322 321 322 321 322 322 322 322 321 322 321 320 320 319 319 318 318 314 314 313 313 313 313 314 314 314 314 314 315 315 315
324 325 324 324 325 325 325 326 326 319 323 323 322 322 323 322 323 322 323 322 322 322 322 321 321 319 319 319 315 318 319 314 313 314 315 316 316 317 317 317 317 316 315
323 323 322 324 324 324 324 326 326 322 324 323 322 322 323 323 323 322 322 322 322 321 322 322 322 322 321 321 321 320 317 315 313 313 315 317 317 317 317 317 317 317 317
324 323 322 323 322 324 324 324 325 323 324 324 322 322 322 322 322 322 322 321 320 320 320 321 321 321 322 322 319 317 315 314 313 312 312 315 315 314 314 313 316 316 317
324 324 323 322 322 322 323 323 323 324 323 324 322 320 321 321 321 321 320 321 318 319 318 318 318 320 319 317 318 319 318 315 313 314 315 314 315 314 315 315 315 316 316
324 323 323 322 322 322 322 322 323 322 318 316 320 321 320 320 318 317 316 319 320 317 316 316 317 318 319 317 318 318 319 318 315 314 314 315 314 314 315 316 316 316 316
322 322 322 322 322 321 322 322 321 320 319 318 318 314 313 313 315 316 319 319 319 319 319 318 317 316 316 315 316 316 316 317 315 317 316 316 316 316 316 316 316 316 316
321 321 322 322 323 322 322 320 321 321 320 319 317 313 313 311 315 318 319 318 318 318 318 318 318 317 316 316 317 318 318 318 318 317 317 316 317 316 316 316 316 316 316
320 321 321 323 323 322 321 320 318 318 318 317 314 315 312 311 312 315 313 313 314 315 313 313 313 313 315 318 319 318 318 318 317 317 316 316 317 317 317 317 318 318 318
320 320 321 321 321 321 322 321 321 320 319 317 316 315 315 313 311 311 314 315 313 313 315 316 317 317 318 319 319 320 320 319 319 319 319 319 320 320 319 319 319 319 318
319 320 320 319 319 320 320 321 321 320 321 321 321 320 320 320 320 321 321 321 320 320 320 319 319 319 320 319 320 320 321 321 321 321 320 319 320 320 320 320 319 319 319
320 320 320 319 320 319 319 320 320 320 321 321 321 320 320 321 321 321 321 321 321 320 320 320 321 320 319 320 320 320 319 318 317 318 318 317 316 315 314 315 314 314 316
320 320 320 320 320 319 319 319 320 320 320 320 320 320 320 319 319 320 320 319 319 319 319 319 318 317 316 315 315 315 313 313 312 312 312 313 310 310 310 309 310 309 309
318 319 319 319 318 318 319 319 319 319 319 319 318 318 318 318 319 318 318 317 316 315 314 313 312 309 308 308 307 307 307 307 306 306 305 304 303 303 302 301 300 299 299
311 313 313 313 313 313 313 314 314 315 315 314 314 313 313 313 313 313 313 311 310 309 307 305 304 302 300 300 300 300 300 300 299 299 299 298 297 297 296 295 295 294 293
306 306 306 307 307 308 307 307 307 307 308 307 306 305 305 306 305 304 305 304 303 301 299 298 298 297 297 296 295 295 295 295 295 293 294 293 292 291 291 291 291 291 290

GFSMA_850_thetae_090.txt.gz
Theta_e
334 333 333 332 332 331 330 328 327 326 325 325 326 326 327 327 329 328 327 325 323 321 318 321 314 311 308 307 307 305 304 305 305 303 303 302 302 301 301 300 301 302 303
333 332 333 332 331 330 329 328 326 326 326 325 326 327 326 328 327 327 325 323 321 320 319 319 316 311 312 310 308 306 305 303 303 303 303 303 302 302 302 303 303 303 303
334 332 331 332 331 330 329 327 326 325 325 326 328 327 326 326 325 325 324 322 320 319 319 320 316 310 317 319 309 306 303 303 303 303 303 304 304 304 304 304 304 304 304
332 331 331 331 331 330 329 328 325 325 326 328 327 325 325 325 324 322 322 321 319 320 319 317 319 318 320 318 310 304 303 303 303 304 304 304 304 305 305 305 305 305 305
332 331 330 331 330 329 328 327 325 325 325 327 326 326 325 324 322 321 321 321 317 319 318 319 319 319 317 316 308 304 303 304 304 304 304 305 305 305 306 306 307 307 306
331 330 330 330 329 328 327 327 325 326 325 326 327 323 324 322 322 321 322 321 320 319 318 318 318 318 317 314 308 303 303 304 304 304 304 304 305 305 306 307 307 307 307
329 329 328 329 329 328 327 327 324 325 325 326 324 324 322 321 320 319 321 321 320 319 318 318 318 315 312 310 307 304 303 304 304 304 305 305 305 306 307 307 308 308 308
328 328 327 329 330 329 327 327 325 324 324 324 324 323 322 322 321 321 321 320 321 321 318 321 320 319 312 311 306 304 304 304 305 305 306 307 308 308 309 309 310 310 310
328 327 327 328 327 327 327 326 327 324 322 322 323 322 322 321 320 320 321 320 322 321 319 321 321 320 318 318 317 308 306 306 307 309 309 308 309 311 312 312 312 311 311
328 327 327 327 327 327 328 328 327 326 323 324 324 322 320 320 320 321 320 319 320 320 320 320 320 320 319 320 319 318 311 308 307 309 312 313 313 313 313 314 315 316 317
328 327 328 327 326 326 326 327 326 326 323 322 323 323 320 321 320 320 321 321 320 320 320 320 320 319 319 318 318 319 315 312 309 310 312 312 312 312 313 313 313 313 314
326 325 325 325 325 326 325 325 325 325 325 321 323 322 321 320 322 322 321 322 321 320 319 319 318 320 320 319 318 318 316 312 312 313 312 312 313 314 314 315 316 316 316
325 324 324 324 324 324 325 325 323 324 324 321 321 322 321 318 323 322 322 322 321 321 321 321 321 321 320 319 318 318 316 314 314 314 314 313 313 315 316 316 317 317 316
324 323 323 323 323 324 324 325 325 325 324 321 321 321 321 321 322 322 322 322 323 322 322 321 322 320 321 322 320 320 321 320 319 317 315 314 313 313 314 316 316 315 315
325 325 325 323 323 322 323 324 324 324 325 323 322 322 321 320 322 323 322 322 321 319 321 320 319 320 321 322 320 318 316 319 318 319 318 316 315 314 314 314 315 315 315
324 324 324 324 322 322 322 323 323 324 324 322 324 322 321 322 321 320 319 319 320 320 319 319 319 318 317 317 318 318 317 316 316 316 315 315 315 314 314 315 315 314 315
324 323 323 323 322 322 322 322 322 323 323 324 323 323 320 317 319 320 319 317 316 314 318 316 318 318 317 318 317 317 316 316 317 317 317 317 315 315 315 315 315 315 316
323 322 322 322 322 321 322 322 322 323 323 323 322 320 315 315 317 318 315 317 315 316 317 319 318 318 318 318 318 317 317 315 316 317 318 318 317 317 318 316 316 317 316
321 321 322 321 323 322 322 321 322 321 321 320 320 319 318 318 316 315 313 313 314 318 318 316 314 314 314 314 315 317 317 318 319 319 319 319 318 318 317 317 317 318 318
321 322 321 321 323 322 321 321 320 318 319 319 319 318 317 316 315 314 312 311 312 312 312 314 316 318 320 320 319 319 319 319 320 320 320 320 320 320 320 320 320 320 320
320 320 321 321 321 321 321 321 320 319 320 319 318 315 313 313 314 316 317 316 314 316 318 318 320 319 320 319 319 320 320 320 321 321 321 320 320 320 320 319 319 317 315
319 320 320 319 320 320 320 320 320 320 320 319 317 318 318 318 318 319 320 320 320 319 319 319 319 319 319 319 318 318 316 316 315 317 317 315 316 314 313 313 313 312 311
319 319 319 320 320 319 319 319 320 320 319 320 320 320 320 320 319 319 319 319 319 320 320 320 318 317 315 315 314 314 313 312 310 310 310 311 309 308 309 306 304 303 301
319 319 318 318 318 318 318 319 319 319 319 318 318 318 318 318 318 318 317 317 316 315 314 313 312 310 309 308 307 308 306 305 303 303 303 301 301 301 300 299 298 297 296
315 315 314 313 312 314 314 315 316 316 316 315 315 315 315 314 312 311 311 310 309 307 305 304 304 302 300 300 299 299 298 298 297 297 296 296 295 296 295 295 294 293 292
306 307 307 307 305 307 306 306 308 309 309 308 307 307 306 306 306 305 305 304 302 301 299 299 298 296 295 295 294 294 294 294 294 293 293 292 292 291 289 289 288 288 288

GFSMA_850_thetae_096.txt.gz
Theta_e
328 330 330 330 332 333 331 331 329 328 327 327 326 326 327 328 326 328 328 328 327 326 325 324 324 325 324 319 318 315 316 314 308 307 304 304 304 303 303 302 302 301 301
328 331 331 331 331 332 332 331 328 327 327 326 327 327 326 327 327 328 328 328 327 325 324 322 322 325 323 319 316 316 314 311 307 305 304 304 303 302 301 301 301 301 301
328 331 332 333 331 331 331 331 329 328 327 328 327 326 326 325 326 328 328 327 326 324 323 320 320 323 323 322 315 314 311 307 306 305 304 303 302 301 301 302 302 303 303
330 331 332 332 331 330 330 330 330 328 328 326 326 326 325 326 326 327 328 327 325 323 321 319 322 321 321 320 318 311 308 306 307 304 303 302 303 303 303 304 304 304 305
329 330 331 332 331 330 329 329 329 329 327 326 325 326 326 326 326 326 327 327 324 321 319 319 321 321 319 319 316 314 310 307 305 305 303 303 303 303 304 305 305 305 306
325 330 331 332 332 331 330 329 329 328 327 326 326 325 325 326 327 326 327 324 322 320 318 318 317 317 319 319 319 316 312 306 305 306 305 303 304 304 305 305 306 306 307
325 329 329 331 332 331 330 330 329 329 327 326 326 326 326 326 327 327 324 322 320 319 317 317 316 316 318 317 318 318 312 311 307 306 304 304 304 304 304 305 306 307 307
325 327 327 330 330 330 330 330 329 328 328 327 325 325 325 324 326 326 322 321 320 320 318 316 315 318 318 316 313 311 316 314 315 310 307 304 304 304 304 305 306 307 308
323 328 328 328 329 329 328 329 329 328 327 325 325 324 323 321 324 323 322 321 320 319 317 314 315 317 316 316 316 312 307 307 312 313 309 305 304 304 304 305 307 309 310
333 330 329 328 329 327 326 327 327 327 327 326 325 325 324 322 322 321 322 321 320 320 320 319 317 317 319 319 317 313 308 306 305 304 305 305 305 305 306 307 309 310 311
330 331 328 328 327 326 326 326 326 326 326 326 325 324 323 322 321 321 321 321 320 320 320 319 318 318 320 320 318 316 316 316 313 307 306 306 307 309 309 310 312 313 313
323 330 329 327 325 325 325 326 326 326 325 325 326 324 323 321 321 320 320 320 319 319 319 320 319 319 319 319 319 319 318 317 317 316 313 310 308 309 312 313 313 313 312
324 324 323 324 325 325 325 326 326 327 326 325 325 325 322 322 322 320 320 319 320 320 321 321 321 320 320 320 320 319 319 318 317 317 316 315 314 312 311 312 312 312 313
324 323 325 325 324 325 325 324 325 325 325 325 326 325 323 322 321 321 320 319 320 320 320 321 321 321 320 320 320 319 319 318 318 318 317 317 317 316 316 317 317 317 315
324 324 324 325 324 325 324 326 323 323 326 323 324 325 322 323 322 321 320 319 319 319 319 319 319 320 320 319 319 319 320 320 320 319 320 319 319 319 319 319 319 318 317
325 325 324 323 322 322 322 322 322 324 325 324 325 324 324 323 322 320 320 320 321 322 321 321 320 319 318 320 320 320 319 318 318 318 318 317 317 317 317 318 317 317 317
323 323 323 324 323 323 322 321 323 323 324 325 325 323 324 323 321 320 322 322 322 321 320 319 321 320 318 318 317 318 316 315 316 317 318 318 317 317 316 316 316 316 316
324 324 323 322 322 322 322 322 322 323 323 324 323 324 324 323 322 321 322 322 321 317 320 321 319 320 319 318 318 317 317 318 319 318 318 318 316 315 315 316 316 318 318
323 322 321 321 321 322 321 321 321 321 322 322 323 324 324 323 321 321 321 320 320 320 318 316 316 316 315 315 316 317 316 317 314 314 314 315 317 318 318 319 319 319 319
323 322 320 320 321 322 321 321 321 321 322 322 323 323 323 323 320 321 321 318 321 319 318 317 316 316 316 315 316 316 316 317 318 318 318 318 318 318 317 317 318 318 318
322 321 320 320 321 322 322 322 321 321 321 321 321 322 322 322 321 321 321 318 318 318 317 317 317 316 316 313 313 316 317 318 317 316 316 316 315 313 314 312 313 313 313
321 320 320 319 320 321 321 320 320 320 320 320 320 320 320 320 320 320 319 319 318 316 315 314 314 314 313 313 317 317 317 316 313 312 312 311 310 310 309 308 307 306 305
321 320 319 321 320 320 320 320 320 320 319 318 318 318 318 318 317 317 316 316 316 316 316 316 316 316 316 317 316 316 315 313 312 310 307 308 307 305 304 302 300 298 297
321 320 320 319 319 318 319 320 319 319 319 318 318 317 317 317 317 317 317 317 316 316 316 316 315 314 314 313 312 312 310 310 309 308 304 302 301 300 298 296 294 293 293
316 316 316 317 316 318 318 317 317 318 318 317 316 316 315 316 315 314 313 313 314 312 311 312 311 309 308 308 307 306 302 302 300 299 297 296 295 294 293 291 290 289 288
303 305 308 309 308 312 311 310 310 313 313 311 308 309 307 307 305 305 306 307 307 306 303 302 301 302 300 301 298 297 296 295 295 294 292 293 293 292 290 289 288 287 285

GFSMA_850_thetae_099.txt.gz
Theta_e
329 330 331 332 333 334 334 332 332 331 327 326 327 328 328 326 326 327 328 329 329 331 329 328 328 328 327 326 325 322 317 315 313 310 307 306 304 305 304 304 303 303 302
327 328 329 330 331 333 333 332 330 331 327 327 328 326 326 325 325 327 328 328 328 327 327 326 326 325 326 325 324 322 316 313 312 308 306 304 304 304 303 302 301 300 300
326 327 329 329 330 331 332 332 330 330 328 327 326 326 326 326 325 326 327 328 327 327 326 325 326 325 325 325 323 322 321 318 314 309 305 305 304 302 301 300 300 300 301
326 328 329 329 331 331 332 331 329 330 328 327 326 326 327 325 326 325 326 327 327 327 325 323 323 324 323 322 321 320 320 316 313 312 308 304 303 301 301 301 301 302 303
327 328 328 329 332 332 331 331 330 329 329 328 327 327 326 326 326 325 325 327 327 326 324 322 322 322 321 321 320 319 319 316 316 313 305 303 302 302 302 303 303 304 304
328 329 328 331 332 332 331 330 331 330 328 328 328 326 326 326 326 325 325 326 327 326 323 320 319 322 321 318 317 319 317 317 317 314 304 303 303 303 303 304 304 305 305
328 330 328 330 331 331 331 330 330 329 328 329 327 326 326 325 326 325 326 326 327 324 321 319 318 318 320 317 318 318 318 318 315 312 309 303 303 303 304 304 305 305 306
328 329 328 329 330 330 332 331 330 329 328 328 327 326 326 325 325 325 326 326 327 322 320 318 316 317 316 317 317 318 318 319 317 313 309 304 304 304 304 304 305 305 306
329 327 325 331 330 330 331 331 330 329 328 328 327 326 324 324 325 324 325 326 324 321 319 319 317 316 316 316 316 316 315 318 318 315 313 310 306 304 304 304 305 305 306
328 324 325 332 329 330 330 330 329 329 329 328 327 327 325 324 323 322 324 326 322 320 320 318 317 316 316 317 316 316 314 311 315 317 317 314 307 304 304 304 305 306 308
327 326 323 329 328 328 329 328 327 328 327 327 327 326 325 324 323 323 322 322 321 320 319 318 317 316 316 316 318 317 315 312 309 309 309 314 307 306 305 306 307 308 309
327 325 331 329 327 329 328 326 325 326 326 326 325 325 325 325 324 323 323 322 321 320 320 320 320 318 316 318 319 317 314 316 315 315 312 309 307 307 308 310 310 311 312
328 326 329 327 327 329 326 325 324 325 326 326 325 325 325 325 324 323 322 321 321 321 320 320 320 319 318 319 320 319 319 318 318 318 318 317 316 315 312 309 309 311 312
328 325 323 326 326 327 326 325 325 325 325 325 324 326 324 324 323 322 322 321 320 320 320 318 319 319 319 319 319 319 319 319 319 318 318 318 317 317 316 316 315 316 317
327 323 323 322 324 324 324 325 324 324 323 324 325 324 324 324 324 322 321 322 320 320 319 319 320 319 320 320 319 319 319 319 319 319 318 319 319 319 319 319 319 319 319
325 324 323 324 324 324 325 324 323 323 322 323 323 324 325 324 324 322 322 321 321 320 319 319 319 318 320 320 320 319 319 319 319 319 319 319 319 319 317 317 317 317 318
326 325 324 324 324 323 323 322 322 322 321 324 323 324 324 324 324 322 322 321 321 320 320 320 319 319 319 319 319 319 319 320 319 317 315 315 317 317 317 317 317 316 316
326 324 323 324 323 323 323 322 321 322 323 323 323 322 323 324 324 324 322 321 320 320 321 318 318 320 320 319 319 318 316 317 316 316 315 315 316 316 318 317 317 316 315
325 323 323 322 322 321 321 321 321 321 322 322 322 322 324 324 323 323 322 321 320 321 322 320 319 320 320 319 318 318 318 317 318 317 316 316 317 316 316 315 315 316 317
323 322 321 320 320 320 321 321 321 321 321 321 322 322 323 323 323 323 321 321 322 322 321 318 318 317 317 316 316 316 317 318 317 316 316 316 315 316 317 317 317 317 316
323 322 321 319 319 321 321 322 321 320 321 321 321 321 322 322 323 322 321 322 321 320 320 319 319 317 317 317 316 316 316 314 313 315 316 314 315 315 314 315 314 314 312
324 322 320 319 319 319 320 321 320 320 320 320 320 320 322 321 320 321 321 321 321 320 319 319 318 317 316 316 317 316 315 314 314 313 314 312 310 310 309 307 306 307 306
322 322 321 320 319 318 320 321 320 319 319 319 319 320 320 319 320 320 320 321 321 319 318 318 317 315 315 315 315 314 313 314 314 312 308 307 306 305 304 303 301 298 299
321 321 321 319 319 319 319 319 320 319 318 317 317 317 317 318 319 319 319 319 318 318 318 316 315 315 316 315 315 315 314 311 309 306 305 302 300 299 298 296 294 292 293
315 314 314 318 317 318 318 318 319 318 317 316 315 314 314 314 315 315 315 316 316 315 314 314 314 314 314 313 312 309 307 306 303 301 300 298 298 296 293 290 289 290 290
303 304 298 307 308 313 313 312 313 315 315 314 311 309 308 309 309 308 308 309 310 308 306 305 305 304 304 303 304 303 300 299 299 298 295 294 293 292 290 288 287 287 287

GFSMA_850_thetae_102.txt.gz
Theta_e
328 329 331 332 334 334 335 335 333 332 330 329 327 326 327 326 326 328 328 328 330 330 331 331 326 326 327 327 326 325 323 319 317 314 310 307 306 306 305 304 305 303 303
324 328 329 331 333 334 334 335 333 332 330 329 328 326 326 327 326 327 325 328 329 330 331 330 328 328 328 327 326 324 323 317 314 312 308 306 304 307 304 304 303 303 301
322 327 328 329 331 332 334 334 333 332 330 330 327 327 327 327 325 326 325 325 327 329 330 328 328 326 325 326 323 323 323 320 315 311 306 304 304 304 303 303 302 300 300
323 325 327 328 330 331 333 333 333 332 330 329 328 327 327 326 326 326 324 326 328 328 327 325 325 325 325 325 322 322 321 320 317 310 309 305 304 303 301 301 300 300 301
323 325 325 326 329 330 331 332 332 331 330 329 328 327 326 326 325 323 324 325 327 327 326 326 325 323 324 323 322 322 320 319 317 315 310 310 304 302 301 301 301 302 303
324 323 326 326 329 331 331 332 332 331 330 329 328 327 326 326 325 324 324 325 324 327 327 326 324 322 322 322 321 320 320 319 315 318 314 308 304 302 302 302 303 304 304
326 326 327 326 329 331 331 332 332 330 331 329 328 327 327 327 326 326 326 325 325 325 327 326 323 320 319 320 320 319 319 317 318 317 316 310 304 303 303 303 304 304 305
328 328 328 327 327 331 330 333 333 330 329 329 328 327 327 326 325 326 325 325 325 325 327 325 321 319 318 317 320 316 318 318 318 318 318 316 307 304 303 304 304 305 305
330 331 329 329 329 333 331 333 334 333 329 328 326 327 325 325 326 325 324 325 325 325 327 324 321 318 317 316 316 317 316 317 318 317 317 317 314 304 304 304 304 305 305
332 334 331 330 330 332 331 331 333 332 330 327 327 327 326 325 324 324 325 324 325 325 327 322 319 318 316 315 315 315 315 316 318 318 317 315 313 306 304 304 304 304 305
330 335 334 331 329 327 329 330 331 332 329 328 327 326 327 325 324 324 322 323 325 324 325 321 319 318 317 315 315 316 316 315 312 314 317 317 317 314 309 305 305 305 305
331 332 332 329 326 326 330 332 331 330 328 328 328 329 327 325 325 324 323 322 324 323 323 320 319 317 316 314 316 316 317 317 315 311 310 314 316 314 308 308 307 307 308
331 332 331 328 326 324 327 325 329 330 326 327 327 326 328 326 325 324 323 323 322 323 321 320 319 318 318 317 315 317 318 315 315 313 312 312 311 311 310 310 309 310 311
328 328 331 327 325 326 326 326 325 329 325 325 326 325 324 326 326 324 324 323 322 321 320 321 320 319 319 318 315 319 318 318 317 318 318 318 317 317 317 316 316 316 314
331 330 330 327 328 324 326 325 329 327 325 325 324 324 324 324 323 325 324 323 323 321 320 321 320 319 319 319 318 319 319 319 318 318 318 318 317 317 317 317 318 318 318
329 330 328 326 323 324 324 326 325 325 326 325 323 322 322 323 324 323 323 323 323 322 321 319 319 314 314 318 319 319 319 319 319 319 318 318 318 318 318 319 318 318 317
328 330 326 323 323 322 322 322 323 323 323 323 322 322 322 323 322 324 324 323 322 321 320 318 317 318 318 318 319 320 320 320 320 320 319 319 318 317 318 318 318 317 317
328 326 324 323 323 323 323 323 323 323 322 321 320 322 321 322 323 322 323 324 321 321 322 319 320 319 320 320 319 319 320 319 319 319 319 317 316 315 315 316 316 317 317
326 326 325 323 323 323 322 322 322 321 321 320 321 322 323 323 322 321 323 323 323 321 321 320 320 319 318 319 319 320 320 319 319 319 317 316 316 316 315 315 316 317 318
327 325 322 323 322 320 320 320 319 320 320 321 321 321 322 322 320 323 323 322 322 322 321 320 320 319 317 319 320 318 319 318 317 316 316 316 317 317 316 315 315 315 316
323 323 323 320 319 318 319 321 320 320 320 321 321 321 321 322 320 322 322 322 322 321 321 321 321 319 319 320 319 318 318 318 318 316 317 317 316 315 314 314 314 314 314
323 323 321 320 319 318 320 320 321 320 319 319 320 320 320 321 321 321 323 322 322 322 321 321 320 318 319 318 316 316 316 316 316 316 315 312 311 310 308 308 308 307 307
324 322 321 320 319 318 318 320 319 320 319 319 318 319 319 320 320 320 320 319 320 319 320 320 319 318 318 318 318 317 316 316 316 314 311 306 304 303 302 301 301 303 302
319 320 320 320 319 318 319 319 320 319 319 319 318 317 317 318 318 319 320 320 320 320 319 319 319 318 318 317 316 316 315 314 312 309 306 302 299 297 297 296 296 297 297
315 315 314 314 315 316 316 316 317 318 318 317 316 315 315 316 316 316 316 317 317 316 316 316 315 317 316 315 314 313 310 309 306 302 300 300 297 295 292 292 291 291 291
301 300 301 302 303 307 305 305 310 313 315 314 312 311 310 311 311 312 310 311 312 309 308 307 308 310 309 308 305 304 303 302 303 299 298 297 296 295 291 289 289 287 287

GFSMA_850_thetae_105.txt.gz
Theta_e
325 327 328 331 333 334 334 335 334 333 332 331 330 328 326 327 328 326 328 327 329 330 331 332 324 325 328 325 325 325 324 323 320 317 313 310 308 308 306 307 307 306 305
324 324 326 327 332 334 334 335 335 334 332 332 331 328 326 327 328 327 326 326 325 331 330 333 329 327 326 326 326 326 325 323 320 316 312 309 307 307 305 305 304 304 304
320 323 323 323 329 332 334 335 335 334 333 332 331 328 327 327 328 327 325 323 325 327 331 333 331 327 328 328 327 325 324 323 319 315 311 307 306 305 304 304 303 303 302
321 322 323 324 324 330 332 334 334 334 333 332 331 329 328 327 327 327 325 326 326 326 327 330 330 329 327 326 326 324 322 322 321 315 309 306 305 305 304 303 302 301 300
321 321 323 324 324 327 330 332 332 334 332 331 331 330 328 327 327 326 324 326 325 324 325 331 326 325 326 325 326 323 322 322 319 317 313 308 306 304 302 301 301 300 301
322 323 323 323 325 326 329 330 331 331 333 332 331 329 328 328 327 327 324 323 323 324 325 328 327 326 324 324 325 323 322 321 319 318 314 312 308 305 301 301 301 301 303
324 323 323 323 323 324 328 328 330 331 331 331 330 329 328 327 326 327 326 323 324 324 324 325 328 326 323 323 323 323 322 321 319 318 317 316 311 306 302 301 302 303 304
327 325 323 323 323 324 327 329 330 331 331 329 329 329 327 327 327 326 326 325 325 325 325 324 327 326 323 321 321 321 320 320 319 317 318 317 316 307 303 302 303 304 305
332 326 324 325 325 326 328 328 329 332 329 328 328 329 326 326 326 327 326 326 326 325 325 325 325 325 322 320 319 318 319 318 317 318 318 317 315 307 304 303 304 304 305
333 329 327 327 327 328 328 328 328 327 328 328 328 328 328 325 325 325 325 326 325 324 324 325 324 326 321 319 318 317 316 316 317 317 317 317 316 313 304 304 304 304 304
330 332 328 330 331 329 328 333 330 327 328 328 327 328 327 326 325 324 324 325 323 323 324 323 324 326 321 319 317 316 314 315 317 318 317 317 317 316 311 304 304 304 304
326 333 331 332 331 332 331 332 329 328 327 327 327 327 327 326 325 325 324 324 324 323 322 325 325 325 320 318 316 315 314 315 315 316 317 317 317 316 316 312 308 307 306
322 333 332 326 325 332 332 330 326 328 327 327 326 326 326 326 325 325 324 324 323 322 322 324 324 323 320 318 317 315 315 316 317 316 314 314 316 316 316 315 315 315 313
321 328 332 328 327 331 331 327 325 325 327 326 326 326 326 325 324 324 324 324 323 322 322 323 324 323 319 317 316 314 316 317 317 316 314 310 310 313 313 314 314 313 313
330 331 331 328 330 331 328 324 325 326 325 325 326 328 326 325 325 324 324 323 323 322 322 323 322 320 318 318 318 316 315 318 317 316 316 316 316 316 316 316 316 316 316
331 331 329 328 329 329 325 326 326 325 325 324 325 326 325 324 322 322 324 324 323 323 322 322 322 321 320 319 318 316 316 319 319 318 318 318 318 318 317 316 316 316 316
331 330 329 328 329 326 326 325 325 323 323 324 323 324 324 324 323 322 322 322 324 323 323 322 322 321 321 320 319 319 318 319 319 320 319 318 318 317 317 317 317 317 318
330 330 328 329 328 325 323 324 324 322 322 322 323 323 323 322 322 322 322 323 321 322 323 322 322 321 320 317 314 318 319 319 319 319 320 319 319 319 319 318 318 318 317
328 329 328 328 324 323 322 322 323 324 323 323 322 321 321 321 322 322 322 323 323 322 323 322 321 319 317 314 319 319 320 320 320 320 320 320 319 318 316 316 316 316 315
326 327 325 324 323 322 322 322 322 322 320 321 320 322 321 321 321 321 322 322 322 321 321 321 321 319 318 318 319 318 320 320 320 319 319 319 319 317 316 316 316 316 316
326 326 325 324 323 323 322 320 320 319 320 320 320 321 321 321 321 322 321 320 321 320 321 321 321 320 319 320 320 318 319 319 319 319 319 319 318 317 316 316 316 316 314
325 323 322 322 321 320 318 318 319 319 319 320 319 319 319 320 321 321 321 322 321 320 321 321 319 320 319 320 318 316 318 318 316 316 316 315 315 314 312 310 310 310 306
321 322 322 320 319 318 318 319 320 320 319 318 317 318 318 319 319 320 320 321 321 321 321 319 320 319 320 320 319 318 318 318 317 316 312 307 306 305 304 304 303 302 301
313 319 320 320 319 318 318 320 319 319 319 318 316 317 318 318 318 317 317 320 319 318 320 319 319 320 320 318 318 319 318 317 315 313 311 305 299 299 298 297 296 296 296
300 309 309 314 315 316 317 318 316 315 316 316 315 314 315 315 317 315 314 317 317 317 317 318 318 319 318 318 317 317 316 316 311 305 302 302 295 296 293 292 291 291 292
300 299 302 304 303 305 303 305 308 309 308 309 309 308 308 310 312 310 312 313 315 312 311 313 313 313 312 313 315 311 313 313 310 300 298 298 295 294 290 288 289 289 289

GFSMA_850_thetae_108.txt.gz
Theta_e
333 339 339 338 340 341 340 339 339 338 337 336 336 334 333 332 329 327 329 328 328 328 329 331 332 331 330 330 330 328 327 327 326 322 319 314 312 311 312 308 308 308 307
327 326 336 338 338 338 340 340 339 338 337 336 334 334 333 331 327 327 329 326 327 326 326 330 332 331 327 328 329 325 325 324 324 321 317 313 310 308 308 306 307 306 305
335 324 326 329 333 338 336 335 337 336 335 335 334 333 333 331 328 328 328 327 327 327 325 324 330 325 325 327 328 326 325 324 323 320 316 312 309 307 306 305 305 305 304
331 322 323 325 328 333 334 332 334 335 334 333 333 333 332 331 328 328 328 327 326 324 324 324 326 327 325 328 327 327 326 324 323 321 316 312 308 307 305 304 304 304 303
322 321 322 324 325 328 331 330 331 334 333 334 333 332 332 331 330 329 327 327 325 326 326 326 326 326 329 328 328 327 325 322 322 321 316 309 307 308 304 305 304 304 302
329 325 322 323 324 326 329 331 330 333 332 333 333 332 331 331 330 329 327 327 326 323 325 325 325 325 329 326 326 326 325 322 322 319 315 310 306 311 305 304 303 302 301
331 331 324 323 325 325 325 328 329 332 333 334 332 331 331 329 330 329 328 327 327 324 323 324 323 326 324 325 325 326 325 323 321 319 315 316 311 312 304 302 301 301 301
332 332 329 323 325 327 326 327 326 329 331 330 331 330 329 329 328 328 328 327 325 325 324 324 323 324 329 326 324 324 324 324 322 320 318 317 318 312 304 301 301 301 303
329 333 333 328 324 326 324 323 325 326 330 330 330 330 328 327 328 328 328 327 326 325 323 326 325 324 326 328 325 324 322 322 321 320 317 317 318 313 305 302 302 303 304
325 332 333 332 326 327 326 324 325 326 329 330 329 329 328 327 328 327 326 327 327 327 326 326 326 325 325 325 327 324 321 320 320 320 317 317 317 316 311 303 303 304 304
325 331 331 333 328 326 327 325 326 329 328 330 326 328 328 328 329 326 327 326 326 326 326 326 325 324 325 325 325 324 321 318 319 318 318 318 317 316 313 309 304 304 304
332 333 333 334 332 327 328 328 329 329 327 328 328 328 327 328 328 327 326 326 327 326 325 324 323 325 324 325 324 323 321 316 317 316 318 318 317 317 316 314 307 305 305
338 334 335 332 333 330 328 330 330 328 329 329 327 327 327 328 327 327 326 327 326 327 325 325 324 323 325 324 324 321 320 316 314 316 318 318 317 317 316 316 314 314 314
334 335 335 334 331 331 330 332 332 331 330 327 327 327 326 326 326 325 325 325 325 324 323 324 324 323 325 325 324 321 319 316 315 315 317 317 317 317 316 316 316 315 315
334 335 337 336 334 332 331 330 331 332 330 326 326 327 326 326 326 325 325 324 325 325 324 323 323 324 323 324 323 320 317 316 315 316 317 316 314 314 316 316 316 315 315
334 332 333 334 333 332 326 326 330 330 327 325 326 326 326 325 326 327 325 325 324 324 323 324 323 323 323 321 323 317 315 317 315 317 318 317 315 312 311 313 314 314 314
331 333 330 330 334 330 327 326 327 327 325 326 326 324 325 325 325 324 324 323 323 323 324 322 323 324 322 323 321 316 317 314 313 317 318 317 316 316 316 316 316 316 316
332 331 332 332 333 330 327 327 327 325 326 326 324 325 324 323 323 324 323 326 323 323 322 322 323 324 322 322 321 318 318 317 317 318 318 318 318 318 318 318 317 317 316
331 329 331 330 332 330 328 327 326 325 324 324 323 323 323 322 323 323 322 322 322 322 322 322 322 322 323 322 321 319 319 319 318 318 319 319 320 319 318 318 318 318 318
327 328 328 328 329 328 326 325 324 323 323 324 324 323 323 322 321 322 322 323 322 322 322 322 322 322 322 321 321 320 319 319 319 319 319 319 319 320 319 319 319 319 318
325 324 325 326 327 326 324 323 323 322 322 322 321 321 320 320 321 321 321 321 321 322 322 321 322 321 320 320 320 317 316 317 318 318 319 319 319 319 319 319 317 317 316
324 324 325 325 325 323 322 323 322 321 320 320 320 320 320 321 320 320 321 321 322 321 321 320 321 320 319 320 318 317 315 318 314 317 316 317 316 317 317 317 317 316 316
319 322 321 323 323 323 321 319 319 319 319 320 319 319 319 318 318 319 319 320 320 321 321 320 320 319 319 320 318 316 316 318 317 315 311 310 305 306 310 308 308 309 309
303 305 310 315 315 318 318 318 319 320 319 318 317 317 317 318 317 317 317 317 319 319 320 320 319 319 319 318 318 318 319 318 316 315 307 305 303 301 301 300 297 298 298
303 303 302 310 309 311 313 319 319 319 316 316 314 314 314 315 315 315 313 316 315 316 317 317 318 319 319 318 318 318 318 317 309 305 301 305 295 297 295 294 293 292 292
301 300 299 299 299 303 309 308 310 312 313 312 310 309 309 309 309 309 309 311 312 312 310 310 313 315 314 313 315 317 316 316 312 300 300 300 297 295 289 288 289 288 289

GFSMA_850_thetae_114.txt.gz
Theta_e
339 337 339 339 339 337 334 334 336 337 336 336 336 337 336 336 336 335 336 331 329 328 327 329 329 330 330 329 327 330 330 328 325 325 325 324 322 319 317 316 317 314 310
339 341 340 340 341 342 339 334 336 337 338 337 336 336 335 336 336 335 333 332 330 328 326 327 328 328 329 328 325 328 330 329 327 327 327 325 322 319 316 315 317 314 309
339 341 340 338 337 340 341 338 336 340 337 336 336 336 335 335 336 335 334 334 329 329 328 327 327 327 327 327 325 323 328 329 328 328 327 325 321 318 315 314 315 315 308
337 340 340 339 339 337 339 339 336 335 337 337 335 335 335 335 334 334 333 333 331 329 328 327 327 327 327 326 326 324 325 329 329 328 327 325 321 317 314 314 314 313 307
339 339 334 334 334 339 338 338 339 334 336 337 335 334 334 333 332 333 333 333 332 330 329 328 327 326 325 325 325 324 324 330 329 328 327 325 322 317 313 312 310 309 306
337 341 339 335 336 334 337 340 340 336 338 336 335 335 333 333 332 331 333 332 331 331 330 327 327 326 324 325 325 324 326 328 328 328 326 325 323 319 313 311 308 306 306
340 339 339 339 337 335 328 335 339 339 335 336 335 335 333 332 332 332 331 331 331 330 330 327 326 325 323 326 325 326 325 326 327 327 326 323 320 321 315 310 307 306 305
340 340 340 341 339 337 332 328 338 337 334 334 336 335 333 332 331 328 330 330 330 330 329 327 326 325 323 324 326 325 324 325 329 327 325 323 321 317 314 310 307 306 304
337 339 339 340 339 339 336 331 331 333 329 333 334 332 330 329 330 329 330 330 330 330 329 329 327 325 324 323 323 323 324 325 328 327 326 323 321 319 310 311 309 309 306
331 334 335 339 338 338 337 333 333 328 329 331 333 333 330 327 329 330 329 329 329 330 329 329 328 327 324 323 324 323 323 326 326 327 325 324 322 320 314 315 312 309 305
332 331 334 335 339 336 336 335 334 333 329 328 329 329 333 331 330 330 331 330 330 329 328 328 328 327 326 325 325 323 322 323 325 327 325 325 322 320 316 314 313 311 306
329 334 333 331 330 333 334 337 335 335 332 328 331 331 329 331 329 329 328 330 330 329 328 327 327 327 327 326 326 326 325 324 323 324 326 324 323 320 319 316 315 311 304
320 329 332 331 331 332 330 333 335 335 334 332 333 331 330 328 329 329 328 328 328 328 328 327 326 327 327 327 326 325 325 325 325 325 324 323 322 321 319 317 315 315 310
317 321 329 331 333 334 331 331 333 334 335 333 333 331 328 330 328 328 326 326 328 329 328 328 326 326 326 325 325 324 324 324 325 325 324 323 321 320 319 317 316 316 314
317 318 325 330 329 334 333 329 330 333 333 334 333 330 327 325 330 329 328 328 329 328 326 328 327 325 325 325 324 324 324 324 324 324 325 323 321 319 317 317 317 316 315
319 318 319 330 331 333 333 329 332 332 331 333 333 329 325 328 327 330 330 330 328 327 326 325 325 324 324 324 324 324 323 324 323 325 325 322 320 318 317 317 317 316 316
320 319 318 327 330 332 332 332 332 331 331 331 333 330 327 324 321 330 328 327 326 326 326 325 324 325 326 325 325 324 323 323 322 324 324 322 318 316 316 317 318 316 316
326 326 322 326 330 328 330 330 330 331 331 330 333 332 331 329 329 328 327 327 326 326 325 325 325 324 325 324 324 324 323 323 322 323 323 321 318 313 315 317 318 317 317
323 325 327 329 329 327 327 330 329 330 330 331 331 331 330 329 328 328 327 326 326 326 325 325 325 324 324 324 323 323 322 323 322 321 322 319 317 313 316 317 316 315 315
319 319 320 326 327 328 330 329 329 329 330 330 331 329 327 326 327 327 326 326 325 324 324 324 323 323 322 322 323 323 321 322 321 321 322 320 317 316 316 316 317 317 316
315 317 322 326 327 326 328 328 328 328 329 330 330 327 327 327 327 326 325 323 323 324 324 323 322 321 322 323 322 323 323 322 322 321 321 318 318 315 317 314 313 314 315
316 319 325 325 327 327 326 327 327 329 330 329 328 327 326 325 325 324 324 323 322 322 321 320 320 320 320 321 322 321 321 321 319 320 319 317 317 313 312 310 318 318 313
307 307 313 317 320 323 327 328 328 328 327 326 325 324 324 324 324 322 322 321 320 320 319 318 318 319 320 320 321 321 321 322 321 319 317 315 315 313 316 317 317 317 315
302 300 302 306 311 312 316 324 323 325 324 324 323 320 322 322 320 322 320 319 317 315 315 315 315 317 318 319 319 319 320 320 317 313 311 307 305 307 310 313 312 307 314
296 297 298 300 301 299 303 305 314 304 317 315 313 314 315 318 316 319 318 316 315 313 313 313 312 314 315 317 318 318 318 318 312 308 305 307 300 301 300 300 303 301 300
294 294 295 296 297 297 298 301 304 300 300 301 301 300 301 305 303 308 310 313 311 311 310 311 311 310 312 312 314 313 313 313 315 306 304 304 300 300 294 295 297 296 297

GFSMA_850_thetae_117.txt.gz
Theta_e
332 331 333 336 335 334 335 333 333 333 333 333 333 333 334 337 336 335 335 332 333 329 328 328 326 327 328 331 328 327 324 329 329 325 322 321 321 320 318 317 317 315 314
334 333 335 336 339 335 336 338 335 332 333 334 335 334 335 336 336 336 334 333 333 330 328 327 327 326 326 329 329 328 325 325 330 326 323 323 323 321 319 316 316 315 313
335 336 337 335 335 336 337 339 339 336 334 335 336 335 334 335 335 335 335 334 333 332 329 327 327 327 327 327 328 328 327 324 328 327 325 325 325 322 319 316 315 315 313
338 337 340 341 339 341 340 338 340 336 335 337 334 334 334 335 334 334 335 333 333 333 329 329 327 327 327 327 326 326 324 323 325 328 326 326 326 323 319 315 314 313 313
339 338 340 341 340 339 338 337 340 338 336 335 335 336 334 334 333 333 333 332 332 332 331 329 328 328 327 327 326 326 326 324 324 328 327 327 327 324 320 316 314 312 314
339 338 336 338 341 340 339 338 338 339 338 336 334 336 334 333 333 333 332 330 330 331 331 331 329 328 326 326 325 324 325 325 325 327 328 328 327 324 321 317 314 313 312
337 339 338 336 335 336 338 340 338 337 339 337 334 337 335 335 333 332 330 330 331 330 330 330 329 327 326 326 323 325 325 325 325 328 328 328 327 325 322 318 315 313 311
337 336 338 339 336 335 334 336 339 336 337 337 334 335 334 334 334 333 332 331 329 329 330 330 329 327 325 324 323 325 325 329 327 327 328 328 327 325 322 320 316 313 308
332 336 335 334 335 336 334 333 333 334 334 337 337 334 332 333 331 331 331 330 328 328 328 329 329 328 326 324 323 325 325 325 328 328 327 327 326 323 320 319 318 314 312
326 332 335 335 334 334 333 330 329 334 332 329 335 334 330 327 328 325 325 324 327 329 329 329 329 328 328 325 323 323 323 323 325 327 325 327 325 323 320 318 314 312 312
318 327 330 331 332 334 333 331 330 330 332 330 329 333 332 331 326 324 326 325 327 327 327 328 329 328 328 327 323 323 322 323 323 323 324 327 326 324 321 319 315 314 314
313 317 322 325 332 332 330 331 329 330 331 334 332 332 330 331 329 329 328 328 327 327 327 326 327 327 327 327 326 324 324 322 322 323 322 326 326 325 323 320 317 315 315
314 314 314 317 322 332 332 330 330 329 328 331 335 332 331 332 329 329 329 328 328 328 328 327 327 326 326 327 327 325 325 325 325 324 323 324 327 325 324 320 319 316 316
314 315 315 315 316 323 332 331 329 329 330 331 333 333 331 331 330 329 327 328 328 327 328 328 326 326 326 326 326 327 326 325 325 325 324 323 322 325 324 321 319 318 314
313 315 316 317 316 316 328 331 331 329 329 329 332 332 331 331 331 330 327 326 325 327 328 328 327 327 326 325 324 325 325 324 324 324 325 325 325 325 325 322 320 318 316
309 315 317 318 318 317 324 329 328 323 325 328 330 333 331 330 331 328 329 327 326 326 326 327 328 326 326 325 325 325 325 324 324 323 324 325 325 325 324 322 320 318 316
310 314 318 317 318 319 317 328 328 323 324 328 328 330 331 330 330 328 329 328 326 323 324 328 326 325 324 324 324 324 324 323 323 323 323 323 323 325 324 323 320 317 317
313 316 317 317 320 320 317 328 328 328 327 327 330 330 330 330 330 330 327 325 321 323 328 328 325 325 325 324 324 324 324 324 323 323 323 323 324 326 324 324 318 317 318
312 315 318 319 322 323 318 324 330 326 327 328 330 330 329 330 327 329 326 321 320 325 326 325 324 325 325 325 325 324 323 323 322 322 323 322 322 323 323 323 317 317 318
306 310 315 318 319 324 323 323 324 325 325 328 328 328 329 328 327 327 326 324 327 327 326 326 325 325 325 324 324 323 322 323 323 321 321 321 322 322 323 321 317 314 318
301 304 312 313 317 319 322 325 325 324 326 328 328 327 328 329 328 326 326 327 326 327 325 326 326 324 322 322 321 321 322 321 322 322 320 321 320 322 321 319 315 313 318
299 303 305 300 309 315 321 323 325 325 327 328 328 327 328 329 327 327 327 326 327 325 324 322 323 321 321 320 321 321 321 319 322 322 322 320 320 321 320 319 315 313 316
295 299 301 297 303 307 320 322 318 325 326 327 327 327 329 327 326 325 327 326 325 323 322 322 322 320 319 320 319 319 320 320 320 320 320 315 319 318 319 318 317 315 315
293 294 298 299 299 301 303 312 316 321 324 318 318 319 321 325 322 323 323 323 321 321 319 319 318 316 317 318 318 319 318 319 319 318 315 310 310 309 311 312 315 316 315
293 293 294 295 296 298 301 302 302 303 304 307 304 304 303 315 311 315 316 318 316 315 315 315 313 313 314 316 317 317 318 317 316 313 311 310 307 304 302 303 303 306 310
293 293 294 295 295 295 295 299 300 302 301 300 301 299 299 300 300 300 305 308 308 309 311 312 311 311 311 312 314 315 315 315 314 310 307 305 305 303 296 295 296 296 297

GFSMA_850_thetae_123.txt.gz
Theta_e
332 332 331 331 333 335 335 334 334 334 333 332 332 331 330 331 331 332 332 329 327 331 331 332 330 330 328 329 330 331 331 331 331 328 326 327 327 321 321 321 322 321 319
332 332 331 331 331 332 334 335 335 335 334 333 333 332 331 331 331 332 332 332 329 330 331 331 330 329 329 328 328 329 331 331 331 330 326 326 327 323 322 320 320 318 317
334 334 333 333 332 332 333 335 336 336 336 335 334 333 332 331 332 332 333 333 332 333 332 332 331 328 328 328 327 329 330 331 330 328 325 324 328 325 321 320 319 317 315
338 337 336 336 335 334 333 333 335 336 336 337 337 334 333 332 331 332 333 333 332 332 332 331 331 329 328 327 327 327 328 330 329 327 325 325 327 326 322 321 320 317 314
332 327 336 333 333 335 335 333 333 335 336 336 337 335 334 334 333 332 332 333 333 332 332 332 332 331 329 327 327 327 327 328 328 328 326 326 325 328 323 321 321 319 315
329 331 330 328 327 324 334 335 334 334 334 334 334 335 334 335 334 334 334 333 333 333 331 331 332 331 330 328 327 327 327 327 326 327 327 325 325 328 324 322 322 321 317
323 327 332 329 326 325 329 331 331 333 334 333 332 333 333 333 334 334 335 334 333 332 330 328 330 331 330 329 328 327 327 326 327 325 326 325 324 327 326 324 323 322 319
317 321 324 329 328 326 326 324 333 328 332 330 332 333 331 332 334 334 336 334 332 331 330 328 327 328 328 329 329 328 328 326 326 325 325 325 325 324 327 325 324 324 321
311 312 314 317 321 324 330 330 330 329 331 332 332 329 329 332 332 332 331 333 333 331 330 327 326 328 328 327 328 328 328 326 325 324 323 326 326 325 325 326 325 324 323
310 310 311 311 314 318 322 327 330 331 330 327 329 332 325 326 325 324 327 328 329 331 330 329 327 328 327 326 327 327 327 326 325 323 324 324 326 328 326 327 326 325 324
307 309 310 311 311 312 313 316 322 329 332 328 326 330 329 324 324 324 325 325 327 327 330 329 329 329 328 326 326 327 327 326 325 322 322 323 325 325 328 325 327 325 324
306 307 309 310 310 311 311 312 313 320 326 332 331 330 330 327 326 324 323 321 326 326 325 326 327 327 326 325 327 326 327 327 325 321 323 323 326 328 329 326 327 326 324
308 308 309 310 310 310 311 312 312 313 316 327 333 329 328 328 325 326 323 323 325 326 324 322 321 322 322 324 324 325 325 326 325 322 323 323 327 327 325 326 326 324 322
307 308 309 311 312 312 312 312 312 312 313 314 328 331 330 329 328 327 324 323 326 327 327 325 325 322 322 322 322 324 325 325 326 323 323 321 323 324 323 323 325 324 322
304 306 308 310 311 313 314 314 313 313 313 314 316 330 330 330 328 327 326 327 328 328 328 328 327 325 323 323 323 324 324 324 326 325 324 323 322 321 320 321 322 321 323
301 302 307 309 309 310 311 312 313 313 314 314 315 320 330 330 329 329 327 326 327 327 327 327 327 326 325 324 323 324 325 324 326 326 324 325 325 324 323 323 322 322 323
299 302 304 307 309 310 311 311 310 312 315 316 317 316 320 329 329 329 328 325 325 328 330 328 328 326 325 325 323 325 324 324 324 326 326 326 326 325 324 325 324 323 323
298 300 302 304 306 308 310 311 311 314 315 316 318 318 317 326 328 326 328 325 324 327 329 327 328 327 326 324 325 326 325 325 324 324 324 324 324 325 324 323 324 322 325
297 298 299 301 303 305 306 309 310 313 316 317 318 319 318 319 328 326 325 327 325 326 327 328 328 328 327 325 325 326 325 324 324 324 324 324 323 323 323 323 324 325 323
293 294 295 297 299 302 302 305 308 312 313 315 317 319 318 319 327 327 322 325 324 326 329 328 327 328 327 325 324 325 324 324 324 324 324 323 323 323 322 322 323 322 323
290 291 292 293 293 295 297 304 310 312 315 316 316 317 317 319 325 325 323 321 323 324 326 328 328 326 326 325 322 324 325 324 323 324 323 323 322 322 322 321 321 321 322
290 290 290 289 290 291 295 300 307 310 314 317 316 317 319 322 323 323 323 322 323 324 325 327 326 326 323 322 322 322 325 324 324 324 323 323 321 319 321 322 321 321 322
292 291 289 288 288 290 292 297 301 304 310 313 314 317 318 320 322 323 323 325 325 325 325 326 325 325 323 323 322 324 324 324 323 323 322 321 319 319 319 317 320 320 320
291 290 290 290 290 291 293 297 299 298 299 303 305 306 310 313 315 320 323 325 325 325 324 324 325 321 319 321 323 324 321 323 324 322 320 320 319 318 316 317 320 320 321
290 289 289 291 291 291 293 295 294 296 297 299 301 301 302 304 303 309 307 312 317 321 323 323 324 324 320 321 323 324 323 322 321 321 320 318 317 316 315 315 317 317 319
283 283 284 288 289 290 290 292 294 295 296 297 298 297 297 299 300 303 304 301 304 305 307 308 305 316 316 321 320 318 320 320 320 319 318 316 315 313 311 311 311 312 314

GFSMA_850_thetae_126.txt.gz
Theta_e
335 336 338 338 338 338 337 336 335 335 335 334 332 331 330 329 329 329 330 330 330 327 329 332 331 331 329 329 329 330 331 331 331 331 330 325 327 327 323 320 322 323 322
335 335 336 337 337 334 333 333 334 335 335 335 334 333 331 330 329 329 329 331 331 328 328 331 330 331 329 329 328 328 330 331 331 331 330 327 327 327 326 320 322 322 322
335 334 335 334 333 332 332 331 332 333 333 335 335 335 333 332 331 330 330 331 332 331 329 330 331 331 330 329 328 327 329 330 331 331 330 328 327 328 327 322 321 322 321
326 328 331 335 334 333 333 334 333 333 333 333 332 333 333 334 333 332 331 332 332 332 330 332 332 331 331 328 328 327 328 329 330 330 330 329 326 326 327 325 321 321 321
329 330 330 329 328 333 331 334 335 335 333 332 332 332 332 334 335 333 331 332 333 333 332 332 332 332 331 329 328 327 327 327 327 329 329 328 326 324 327 327 322 321 320
328 330 331 331 331 330 330 329 330 330 334 334 334 331 331 332 333 333 332 332 332 333 333 332 331 332 332 330 329 327 327 327 327 327 327 328 325 325 326 327 325 322 321
321 326 326 328 329 329 329 330 329 328 325 332 333 331 330 330 330 332 332 330 330 331 333 333 332 331 331 331 331 329 327 327 327 327 326 326 327 327 326 325 326 323 322
311 313 315 318 323 328 329 328 327 327 325 327 331 330 330 329 329 328 329 328 328 329 331 334 333 331 329 330 330 329 328 327 327 327 326 326 325 325 325 325 327 324 323
310 310 310 311 313 319 324 329 329 326 325 325 331 330 330 329 329 329 328 327 326 327 328 329 332 331 328 327 328 327 328 329 327 328 326 325 324 324 325 325 327 324 324
305 306 308 309 310 310 313 317 326 326 326 326 324 325 327 328 327 326 325 324 326 324 325 327 329 330 330 328 327 326 326 327 328 328 326 325 323 323 325 326 325 326 324
305 305 305 306 307 309 310 311 315 322 327 325 329 328 327 327 326 324 325 325 325 321 323 325 328 329 329 328 327 327 325 326 327 327 326 325 322 322 323 325 327 326 326
305 305 306 306 306 308 309 310 310 311 314 319 325 328 330 327 326 326 325 323 322 322 322 324 326 327 329 329 328 328 326 325 326 327 326 325 322 322 322 323 325 327 325
305 306 306 307 307 307 309 309 310 310 311 312 316 325 329 329 328 328 325 324 322 322 322 322 322 325 325 327 328 326 326 325 326 327 326 325 322 321 325 326 325 328 326
304 305 305 306 308 308 308 310 311 311 311 311 312 315 325 329 330 328 328 326 324 324 323 322 322 321 326 323 322 322 324 324 326 326 326 324 322 321 323 324 326 327 326
298 300 302 303 306 308 309 309 309 311 312 312 311 312 315 325 326 329 328 327 326 324 324 322 321 321 325 326 325 322 322 322 324 325 326 324 323 321 323 324 324 323 322
295 296 297 298 302 307 309 309 308 308 310 314 313 312 312 314 324 328 328 327 326 326 324 324 324 325 326 327 327 325 323 322 324 324 325 325 323 323 322 319 320 322 322
294 295 295 296 297 300 305 307 308 306 307 309 312 312 312 313 317 323 326 328 327 327 326 325 326 326 325 325 327 326 324 324 324 324 325 326 324 324 323 321 321 321 322
292 292 292 294 295 297 298 300 304 306 307 309 312 314 315 315 315 322 324 326 327 328 327 327 326 326 326 326 327 327 325 324 325 324 325 326 326 324 325 324 324 324 324
290 290 291 291 292 293 295 297 299 302 306 309 311 312 313 315 317 316 319 320 327 327 325 327 326 324 326 328 327 325 325 324 325 325 325 325 326 326 325 325 325 324 323
290 290 290 289 290 291 292 294 298 299 304 306 310 311 313 315 316 318 318 319 326 327 324 324 324 323 325 327 327 326 325 325 326 325 325 325 324 325 324 324 324 323 323
289 289 289 288 288 289 289 291 296 299 303 308 309 309 311 314 316 316 317 320 319 324 325 323 325 326 324 325 326 326 325 325 325 325 325 324 324 323 323 322 322 322 322
291 290 289 287 287 288 289 290 293 296 300 305 303 307 312 313 314 315 317 319 322 324 323 322 326 323 323 324 324 325 325 324 324 324 324 324 324 323 322 320 322 322 321
291 291 291 290 289 289 289 289 291 293 295 296 299 303 308 309 312 315 317 317 321 323 323 322 322 322 322 322 324 325 325 324 322 324 324 323 323 323 322 321 321 319 320
288 291 292 291 290 289 291 291 291 291 291 290 293 296 300 306 310 310 315 313 320 322 322 322 323 324 323 322 322 325 323 322 322 323 324 323 322 322 322 321 320 319 320
284 283 284 284 287 290 290 291 293 292 292 290 291 293 294 299 299 303 305 307 309 312 312 313 317 318 321 323 322 322 322 322 322 321 322 321 321 320 319 319 318 317 318
282 283 282 282 282 282 283 287 291 294 294 292 291 292 293 296 298 300 301 300 303 300 300 300 304 304 302 317 319 319 319 319 320 321 318 318 318 318 317 317 316 316 316

GFSMA_850_thetae_132.txt.gz
Theta_e
339 338 339 339 339 338 338 339 339 338 337 337 338 338 338 338 337 336 336 330 330 330 330 330 330 331 331 331 330 329 330 330 331 331 331 329 329 329 328 327 325 322 324
339 339 337 338 338 338 337 337 338 338 337 338 337 336 337 337 337 337 336 335 329 329 330 330 330 328 330 332 330 328 330 330 331 331 332 331 330 329 328 327 327 322 323
339 338 338 337 336 336 335 335 336 335 335 334 334 335 335 334 335 336 336 337 336 329 329 330 331 330 329 330 331 331 329 329 330 331 331 331 331 330 329 328 328 326 322
335 335 336 337 336 336 335 332 333 332 332 331 332 332 333 334 334 334 335 336 337 334 331 329 330 332 329 329 330 331 330 329 329 330 330 331 331 331 330 329 327 328 325
332 332 332 331 333 335 334 332 332 332 332 329 327 331 329 325 335 334 334 336 336 335 334 333 329 331 331 330 331 331 330 330 329 328 329 330 330 331 331 329 327 327 328
325 325 325 326 326 328 329 331 331 332 330 331 329 324 325 329 334 332 334 334 336 335 334 334 331 330 332 330 330 331 331 331 329 329 328 329 330 330 330 330 328 328 328
313 315 316 317 319 320 323 326 333 332 331 330 327 326 327 325 332 333 333 335 334 334 330 332 330 333 333 332 332 331 331 331 330 329 328 328 328 329 330 330 329 328 327
309 309 310 310 311 312 314 317 322 329 330 331 331 328 329 327 331 330 331 329 330 331 330 331 332 332 330 332 331 329 330 331 331 329 328 327 327 327 328 328 329 328 326
304 305 305 306 307 309 309 310 312 316 322 327 329 330 329 330 330 332 331 329 329 329 329 327 331 330 330 331 330 330 330 330 330 330 329 328 327 327 327 327 327 327 326
302 302 303 304 304 305 305 306 309 310 312 317 325 328 328 329 330 329 330 330 330 331 328 326 327 328 327 327 327 329 328 328 329 329 330 330 328 327 327 326 326 327 326
301 302 302 302 303 303 304 304 305 306 309 312 314 317 324 326 328 328 327 328 328 328 328 325 324 323 323 324 326 324 327 327 329 328 327 329 329 327 327 327 326 326 325
300 300 301 302 302 303 304 304 304 304 305 307 309 311 314 322 325 327 328 328 328 326 326 325 324 324 323 326 326 325 322 324 326 328 327 326 326 327 328 328 327 326 325
296 297 298 298 300 301 301 302 303 302 303 305 306 308 310 314 321 325 326 327 328 328 328 327 325 323 322 324 326 326 323 322 325 326 328 327 326 326 326 328 328 328 326
292 293 293 294 295 295 297 298 299 300 302 302 304 306 307 308 311 317 324 325 328 327 328 328 328 328 326 325 324 325 324 321 326 326 326 329 327 326 326 326 327 327 326
291 291 291 292 293 295 296 296 297 298 299 300 301 303 305 306 308 310 314 323 325 326 327 327 328 328 326 325 324 324 324 321 326 324 324 327 329 328 327 326 326 327 326
291 291 292 291 291 291 291 293 295 297 297 299 301 303 303 305 306 308 309 313 321 325 325 325 326 327 328 327 325 323 322 321 320 322 324 324 328 329 328 326 326 326 326
289 288 287 288 288 288 289 290 293 295 296 295 297 299 303 304 304 307 309 310 315 321 323 324 325 326 329 328 329 328 326 324 323 322 323 325 325 326 327 325 325 326 326
287 286 287 286 287 287 287 287 288 290 291 293 295 298 300 303 305 305 306 309 311 316 321 323 324 325 326 328 328 329 328 326 326 324 323 321 325 324 324 325 325 325 326
286 286 285 285 286 286 286 287 288 289 290 291 293 294 297 301 303 305 306 307 310 312 318 321 323 323 325 327 327 327 329 327 325 325 323 323 323 325 323 323 324 325 325
289 287 285 284 285 285 285 286 286 286 288 289 291 295 297 297 299 300 303 306 308 311 316 319 321 323 323 325 326 326 328 330 327 326 326 325 324 326 324 324 324 325 325
288 289 289 287 286 286 287 287 285 284 285 287 289 292 294 295 296 298 302 307 308 311 313 318 318 320 322 323 323 326 326 327 326 326 326 325 325 326 325 325 325 325 325
282 284 287 288 288 288 288 289 288 285 284 284 286 288 291 295 296 298 300 304 308 309 311 313 317 318 319 322 323 324 324 327 326 325 325 324 326 326 326 326 325 325 325
282 282 283 283 283 284 288 290 290 288 287 285 284 286 288 291 293 295 296 301 305 307 308 311 313 314 317 319 320 320 323 322 324 324 324 323 322 325 325 326 326 325 325
281 281 282 282 282 282 282 283 286 289 290 289 286 286 288 289 291 293 295 298 299 301 304 307 308 308 310 316 318 318 319 321 324 324 323 322 323 324 324 326 326 325 325
280 280 280 280 281 281 281 282 282 283 283 286 289 288 289 289 291 293 295 294 294 294 294 296 297 298 300 307 316 317 316 316 321 320 322 322 322 322 324 325 325 325 326
279 279 279 279 279 280 280 280 281 281 282 281 282 283 286 288 290 292 294 294 294 293 294 295 296 297 299 301 306 309 312 311 311 314 314 313 317 319 318 321 320 320 321

GFSMA_850_thetae_135.txt.gz
Theta_e
341 341 340 339 340 340 339 340 340 340 339 338 339 339 338 339 338 336 336 336 335 332 330 330 331 329 330 330 329 330 330 330 331 331 331 330 329 329 329 328 326 324 321
337 337 339 339 339 340 339 339 339 339 339 339 338 337 336 340 338 338 338 336 335 333 329 329 329 330 329 330 331 331 330 329 330 331 331 331 331 329 330 329 328 327 324
340 340 340 339 339 339 339 339 339 340 338 338 336 337 337 336 333 333 333 334 337 336 334 329 328 329 330 329 328 331 331 329 329 330 330 331 331 331 330 329 328 328 327
336 338 338 335 333 334 336 336 332 325 334 335 334 334 337 335 332 331 332 328 334 338 338 333 329 328 328 330 329 329 331 331 330 329 330 330 331 332 331 330 329 328 327
330 331 330 328 329 331 333 334 332 333 333 332 332 333 333 331 331 329 334 329 334 333 337 337 333 330 328 328 330 329 329 330 330 329 329 329 330 331 331 331 330 329 328
321 321 320 322 323 324 325 327 330 331 332 332 332 333 332 332 330 329 330 325 330 332 333 335 336 335 332 329 329 330 329 331 330 330 329 329 328 330 331 330 331 329 329
310 310 311 311 312 314 316 316 321 325 329 330 331 331 331 331 331 327 326 325 328 333 334 334 335 337 333 330 329 331 330 329 330 331 330 329 328 328 329 331 330 330 329
305 305 306 307 308 309 310 313 317 320 320 324 328 328 330 331 332 330 327 326 326 329 333 334 335 335 335 331 329 331 331 330 330 330 330 329 328 328 328 329 329 329 330
302 302 302 303 304 305 308 310 312 314 317 319 321 325 327 327 328 330 330 328 327 325 333 332 332 334 335 332 329 329 332 330 329 329 328 329 329 328 327 327 328 328 329
302 302 302 302 301 302 303 305 308 309 311 314 316 317 322 325 327 327 327 332 333 332 332 333 333 334 334 330 328 330 326 328 327 328 329 329 330 329 328 327 327 328 328
301 301 301 301 301 301 301 302 302 303 304 306 310 314 317 318 321 326 327 328 328 328 329 330 332 333 334 335 331 325 322 325 326 326 329 329 329 330 329 327 326 327 327
298 298 298 298 299 300 300 301 301 301 302 303 304 305 310 314 315 319 324 325 326 326 328 329 330 331 331 330 330 326 324 324 325 326 327 328 329 329 327 328 327 326 327
294 293 294 294 296 295 296 297 299 300 301 300 301 303 304 307 311 314 317 319 322 325 326 327 328 327 328 328 329 327 327 328 326 325 323 324 327 329 327 326 327 327 327
291 291 291 291 292 292 292 294 295 296 297 297 298 300 301 303 304 308 312 316 318 319 324 326 327 329 329 328 326 326 328 327 325 325 323 322 324 329 328 325 326 325 327
289 290 290 290 290 290 290 291 292 294 295 297 299 299 299 300 302 305 306 310 314 316 318 321 325 327 329 330 329 327 326 326 324 324 324 323 323 326 328 328 327 326 325
288 289 289 289 289 289 289 289 290 291 291 293 294 295 297 299 300 303 305 306 309 313 316 318 321 326 327 330 329 328 325 326 326 325 324 323 325 323 323 325 329 328 327
287 287 287 288 288 288 288 288 289 290 289 291 292 293 294 296 299 300 302 304 306 309 313 316 318 321 324 325 328 329 327 327 327 326 325 323 324 321 322 324 327 328 328
289 287 287 287 286 286 286 286 287 287 287 287 289 291 292 294 296 299 301 303 304 306 310 313 316 319 322 322 325 326 329 329 329 329 328 325 323 321 323 324 325 328 328
290 288 287 286 286 286 285 285 286 286 285 286 286 288 290 293 295 297 299 300 303 305 307 309 312 316 320 322 323 324 327 327 330 329 328 327 326 324 323 322 325 325 326
288 288 286 285 285 287 288 288 285 284 284 284 285 287 288 290 293 295 296 299 301 304 306 308 310 313 318 321 322 324 324 326 326 326 328 325 325 325 323 323 323 326 325
284 283 283 283 284 287 287 288 286 284 283 283 284 285 286 288 290 291 295 296 298 301 305 308 311 313 317 319 321 322 324 325 325 325 325 327 326 326 326 325 324 324 325
283 282 282 281 281 281 286 289 288 287 286 285 285 285 285 288 289 290 292 295 297 301 303 305 309 311 315 317 319 320 323 325 325 326 327 324 325 324 326 326 325 325 325
282 281 281 281 281 281 282 282 284 286 287 286 286 287 286 286 288 288 289 291 293 296 300 303 305 306 308 312 313 316 318 320 323 323 323 323 324 324 324 325 325 326 326
281 281 280 280 280 280 281 282 282 282 281 283 285 287 286 287 287 288 288 289 290 291 294 295 296 296 298 303 308 310 314 317 318 319 319 319 321 322 324 324 323 323 325
281 281 279 279 279 280 280 281 281 281 281 281 280 281 282 287 289 290 291 290 289 289 290 291 291 293 295 298 302 306 309 311 314 316 317 318 319 319 321 322 322 323 323
281 281 280 279 278 278 279 280 280 280 279 280 280 280 280 280 282 284 289 289 290 288 290 292 293 293 294 295 296 297 299 302 304 306 308 309 314 315 313 320 320 321 323

GFSMA_850_thetae_138.txt.gz
Theta_e
337 334 336 338 337 338 339 338 337 337 338 335 332 331 339 340 338 337 337 336 335 335 332 329 329 330 329 328 330 330 331 331 330 331 331 331 329 329 328 328 326 325 322
337 340 337 333 336 338 338 338 337 337 338 338 337 333 336 339 338 335 334 335 336 336 332 329 328 329 330 329 329 330 329 330 330 330 330 331 331 329 329 329 328 327 325
334 335 336 334 336 337 336 335 337 337 336 327 324 334 336 335 338 338 338 335 332 332 334 335 329 328 328 329 329 329 329 330 330 329 330 330 331 331 330 329 329 328 327
331 330 330 331 332 332 331 332 334 334 331 327 322 324 334 334 332 333 333 333 335 335 335 333 331 331 329 328 329 329 329 328 330 329 329 330 330 331 331 330 329 330 328
323 323 323 326 328 326 326 326 329 331 331 334 331 329 329 328 330 332 332 332 331 330 334 333 334 333 333 329 328 330 330 328 329 330 330 329 330 330 331 331 330 330 329
311 310 311 313 314 315 318 321 319 321 329 331 333 332 331 330 331 331 332 331 329 329 330 330 333 331 332 333 330 328 330 330 328 330 330 330 329 330 330 331 331 331 330
305 305 306 307 308 309 310 312 314 315 319 319 325 327 327 326 328 328 329 330 331 330 329 330 328 332 331 330 332 331 329 329 329 328 329 330 329 329 329 330 331 331 331
303 302 302 303 303 304 305 307 311 311 312 319 321 323 325 322 323 324 327 328 330 329 329 327 328 330 328 329 331 332 330 328 328 330 329 329 330 329 329 328 329 330 330
304 304 304 303 302 302 302 303 305 309 309 311 317 318 322 325 324 325 327 328 329 330 330 329 326 329 330 331 332 331 332 329 328 329 329 329 329 330 329 328 328 328 329
301 302 302 303 303 303 301 301 301 302 305 306 308 314 317 317 318 320 321 323 324 327 328 330 328 326 328 331 331 332 330 329 329 329 329 330 329 328 328 328 328 327 328
299 299 300 300 300 300 301 301 301 301 301 302 303 305 309 315 317 318 317 315 319 324 325 325 326 327 328 330 331 331 332 331 328 329 330 330 328 326 327 329 328 327 327
298 297 297 297 297 297 297 297 298 299 298 299 300 302 303 305 309 311 314 315 316 321 325 327 325 324 323 325 329 330 331 331 330 327 326 330 328 326 326 328 328 328 327
294 293 292 293 292 292 293 293 294 295 296 295 297 298 300 302 303 307 308 311 313 316 316 323 327 326 325 324 326 327 330 331 333 329 325 325 327 327 327 327 328 328 328
290 290 290 290 290 290 290 291 291 292 293 294 294 296 296 298 300 302 303 305 307 310 312 316 313 321 325 322 325 327 327 328 328 327 327 326 326 326 326 327 327 327 326
290 289 289 289 289 290 289 289 289 290 291 291 292 293 294 295 296 299 300 302 304 306 308 310 313 313 315 323 325 328 326 327 326 327 328 328 327 325 324 323 326 327 325
290 290 289 289 289 289 289 288 288 289 289 289 290 291 292 293 295 295 297 298 300 303 306 308 310 313 313 319 325 327 326 324 326 327 327 327 326 324 325 324 323 326 326
291 291 289 289 288 288 288 287 287 287 287 287 287 288 288 290 292 294 295 297 300 301 304 305 307 309 313 318 316 322 325 325 327 327 326 327 327 326 326 325 323 325 325
292 290 291 291 289 290 289 287 287 286 286 285 285 285 286 287 290 293 294 296 298 300 302 304 305 307 309 313 318 321 323 323 324 326 327 326 326 326 326 325 325 322 321
288 289 289 290 290 290 290 289 286 285 284 284 284 284 284 284 288 290 292 295 297 299 301 302 305 306 308 310 313 316 320 323 323 323 322 327 327 327 325 325 324 323 322
284 284 284 284 284 285 288 289 286 286 285 284 283 282 283 285 287 288 290 292 294 296 298 300 303 305 307 308 312 314 319 321 321 319 321 318 325 324 324 325 325 323 322
284 283 284 283 283 283 283 285 285 284 286 286 285 284 284 285 287 287 287 287 290 294 297 300 302 304 306 310 312 316 318 320 322 322 321 322 323 325 324 324 325 325 323
283 283 283 282 282 282 281 281 281 281 282 284 285 286 285 286 286 286 286 286 286 288 292 295 298 300 302 304 308 310 312 316 319 321 323 323 323 324 323 325 325 326 326
282 282 282 282 281 280 280 280 279 280 280 280 280 282 287 286 286 286 286 286 286 285 286 288 289 291 295 299 304 309 310 310 314 316 319 319 323 322 323 323 323 323 323
282 281 281 280 280 280 280 280 279 279 279 279 280 279 280 282 285 286 287 287 286 285 284 285 286 287 289 292 297 301 305 309 309 311 312 313 316 317 317 318 318 319 321
282 281 280 279 279 279 280 280 280 279 278 279 279 278 279 279 279 281 286 288 288 287 286 286 287 288 289 291 293 298 301 304 304 304 305 309 310 312 315 317 318 320 321
282 282 281 279 278 278 278 279 279 279 278 278 278 278 277 277 277 278 280 281 281 283 287 289 289 290 289 288 288 288 288 291 294 297 295 300 301 303 309 312 314 316 318